[[{"header":{"parameterUnit":"m.s-1","parameterCategory":1,"la1":31.0,"la2":29.5877,"lo1":-88.7671,"lo2":-86.6584,"dy":0.0162,"dx":0.0185,"nx":115,"ny":88,"refTime":"2023-06-25T00:00:00:Z","depth":0,"parameterNumber":2,"parameterNumberName":"U-component_of_WINDS"},"data":[0.0,0.0,0.0,0.0,0.0,0.0,0.0,0.0,0.0,0.0,0.0,0.0,0.0,0.0,0.0,0.0,0.0,0.0,0.0,0.0,0.0,0.0,0.0,0.0,0.0,0.0,0.0,0.0,0.0,0.0,0.0,0.0,0.0,0.0,0.0,0.0,0.0,0.0,0.0,0.0,0.0,0.0,0.0,0.0,0.0,0.0,0.0,0.0,0.0,0.0,0.0,0.0,0.0,0.0,0.0,0.0,0.0,0.0,0.0,0.0,0.0,0.0,0.0,0.0,0.0,0.0,0.0,0.0,0.0,0.0,0.0,0.0,0.0,0.0,0.0,0.0,0.0,0.0,0.0,0.0,0.0,0.0,0.0,0.0,0.0,0.0,0.0,0.0,0.0,0.0,0.0,0.0,0.0,0.0,0.0,0.0,0.0,0.0,0.0,0.0,0.0,0.0,0.0,0.0,0.0,0.0,0.0,0.0,0.0,0.0,0.0,0.0,0.0,0.0,0.0,0.0,0.0,0.0,0.0,0.0,0.0,0.0,0.0,0.0,0.0,0.0,0.0,0.0,0.0,0.0,0.0,0.0,0.0,0.0,0.0,0.0,0.0,0.0,0.0,0.0,0.0,0.0,0.0,0.0,0.0,0.0,0.0,0.0,0.0,0.0,0.0,0.0,0.0,0.0,0.0,0.0,0.0,0.0,0.0,0.0,0.0,0.0,0.0,0.0,0.0,0.0,0.0,0.0,0.0,0.0,0.0,0.0,0.0,0.0,0.0,0.0,0.0,0.0,0.0,0.0,0.0,0.0,0.0,0.0,0.0,0.0,0.0,0.0,0.0,0.0,0.0,0.0,0.0,0.0,0.0,0.0,0.0,0.0,0.0,0.0,0.0,0.0,0.0,0.0,0.0,0.0,0.0,0.0,0.0,0.0,0.0,0.0,0.0,0.0,0.0,0.0,0.0,0.0,0.0,0.0,0.0,0.0,0.0,0.0,0.0,0.0,0.0,0.0,0.0,0.0,0.0,0.0,0.0,0.0,0.0,0.0,0.0,0.0,0.0,0.0,0.0,0.0,0.0,0.0,0.0,0.0,0.0,0.0,0.0,0.0,0.0,0.0,0.0,0.0,0.0,0.0,0.0,0.0,0.0,0.0,0.0,0.0,0.0,0.0,0.0,0.0,0.0,0.0,0.0,0.0,0.0,0.0,0.0,0.0,0.0,0.0,0.0,0.0,0.0,0.0,0.0,0.0,0.0,0.0,0.0,0.0,0.0,0.0,0.0,0.0,0.0,0.0,0.0,0.0,0.0,0.0,0.0,0.0,0.0,0.0,0.0,0.0,0.0,0.0,0.0,0.0,0.0,0.0,0.0,0.0,0.0,0.0,0.0,0.0,0.0,0.0,0.0,0.0,0.0,0.0,0.0,0.0,0.0,0.0,0.0,0.0,0.0,0.0,0.0,0.0,0.0,0.0,0.0,0.0,0.0,0.0,0.0,0.0,0.0,0.0,0.0,0.0,0.0,0.0,0.0,0.0,0.0,0.0,0.0,0.0,0.0,0.0,0.0,0.0,0.0,0.0,0.0,0.0,0.0,0.0,0.0,0.0,0.0,0.0,0.0,0.0,0.0,0.0,0.0,0.0,0.0,0.0,0.0,0.0,0.0,0.0,0.0,0.0,0.0,0.0,0.0,0.0,0.0,0.0,0.0,0.0,0.0,0.0,0.0,0.0,0.0,0.0,0.0,0.0,0.0,0.0,0.0,0.0,0.0,0.0,0.0,0.0,0.0,0.0,0.0,0.0,0.0,0.0,0.0,0.0,0.0,0.0,0.0,0.0,0.0,0.0,0.0,0.0,0.0,0.0,0.0,0.0,0.0,0.0,0.0,0.0,0.0,0.0,0.0,0.0,0.0,0.0,0.0,0.0,0.0,0.0,0.0,0.0,0.0,0.0,0.0,0.0,0.0,0.0,0.0,0.0,0.0,0.0,0.0,0.0,0.0,0.0,0.0,0.0,0.0,0.0,0.0,0.0,0.0,0.0,0.0,0.0,0.0,0.0,0.0,0.0,0.0,0.0,0.0,0.0,0.0,0.0,0.0,0.0,0.0,0.0,0.0,0.0,0.0,0.0,0.0,0.0,0.0,0.0,0.0,0.0,0.0,0.0,0.0,0.0,0.0,0.0,0.0,0.0,0.0,0.0,0.0,0.0,0.0,0.0,0.0,0.0,0.0,0.0,0.0,0.0,0.0,0.0,0.0,0.0,0.0,0.0,0.0,0.0,0.0,0.0,0.0,0.0,0.0,0.0,0.0,0.0,0.0,0.0,0.0,0.0,0.0,0.0,0.0,0.0,0.0,0.0,0.0,0.0,0.0,0.0,0.0,0.0,0.0,0.0,0.0,0.0,0.0,0.0,0.0,0.0,0.0,0.0,0.0,0.0,0.0,0.0,0.0,0.0,0.0,0.0,0.0,0.0,0.0,0.0,0.0,0.0,0.0,0.0,0.0,0.0,0.0,0.0,0.0,0.0,0.0,0.0,0.0,0.0,0.0,0.0,0.0,0.0,0.0,0.0,0.0,0.0,0.0,0.0,0.0,0.0,0.0,0.0,0.0,0.0,0.0,0.0,0.0,0.0,0.0,0.0,0.0,0.0,0.0,0.0,0.0,0.0,0.0,0.0,0.0,0.0,0.0,0.0,0.0,0.0,0.0,0.0,0.0,0.0,0.0,0.0,0.0,0.0,0.0,0.0,0.0,0.0,0.0,0.0,0.0,0.0,0.0,0.0,0.0,0.0,0.0,0.0,0.0,0.0,0.0,0.0,0.0,0.0,0.0,0.0,0.0,0.0,0.0,0.0,0.0,0.0,0.0,0.0,0.0,0.0,0.0,0.0,0.0,0.0,0.0,0.0,0.0,0.0,0.0,0.0,0.0,0.0,0.0,0.0,0.0,0.0,0.0,0.0,0.0,0.0,0.0,0.0,0.0,0.0,0.0,0.0,0.0,0.0,0.0,0.0,0.0,0.0,0.0,0.0,0.0,0.0,0.0,0.0,0.0,0.0,0.0,0.0,0.0,0.0,0.0,0.0,0.0,0.0,0.0,0.0,0.0,0.0,0.0,0.0,0.0,0.0,0.0,0.0,0.0,0.0,0.0,0.0,0.0,0.0,0.0,0.0,0.0,0.0,0.0,0.0,0.0,0.0,0.0,0.0,0.0,0.0,0.0,0.0,0.0,0.0,0.0,0.0,0.0,0.0,0.0,0.0,0.0,0.0,0.0,0.0,0.0,0.0,0.0,0.0,0.0,0.0,0.0,0.0,0.0,0.0,0.0,0.0,0.0,0.0,0.0,0.0,0.0,0.0,0.0,0.0,0.0,0.0,0.0,0.0,0.0,0.0,0.0,0.0,0.0,0.0,0.0,0.0,0.0,0.0,0.0,0.0,0.0,0.0,0.0,0.0,0.0,0.0,0.0,0.0,0.0,0.0,0.0,0.0,0.0,0.0,0.0,0.0,0.0,0.0,0.0,0.0,0.0,0.0,0.0,0.0,0.0,0.0,0.0,0.0,0.0,0.0,0.0,0.0,0.0,0.0,0.0,0.0,0.0,0.0,0.0,0.0,0.0,0.0,0.0,0.0,0.0,0.0,0.0,0.0,0.0,0.0,0.0,0.0,0.0,0.0,0.0,0.0,0.0,0.0,0.0,0.0,0.0,0.0,0.0,0.0,0.0,0.0,0.0,0.0,0.0,0.0,0.0,0.0,0.0,0.0,0.0,0.0,0.0,0.0,0.0,0.0,0.0,0.0,0.0,0.0,0.0,0.0,0.0,0.0,0.0,0.0,0.0,0.0,0.0,0.0,0.0,0.0,0.0,0.0,0.0,0.0,0.0,0.0,0.0,0.0,0.0,0.0,0.0,0.0,0.0,0.0,0.0,0.0,0.0,0.0,0.0,0.0,0.0,0.0,0.0,0.0,0.0,0.0,0.0,0.0,0.0,0.0,0.0,0.0,0.0,0.0,0.0,0.0,0.0,0.0,0.0,0.0,0.0,0.0,0.0,0.0,0.0,0.0,0.0,0.0,0.0,0.0,0.0,0.0,0.0,0.0,0.0,0.0,0.0,0.0,0.0,0.0,0.0,0.0,0.0,0.0,0.0,0.0,0.0,0.0,0.0,0.0,0.0,0.0,0.0,0.0,0.0,0.0,0.0,0.0,0.0,0.0,0.0,0.0,0.0,0.0,0.0,0.0,0.0,0.0,0.0,0.0,0.0,0.0,0.0,0.0,-3.4997,0.0,0.0,0.0,0.0,0.0,0.0,0.0,0.0,0.0,0.0,0.0,0.0,0.0,0.0,0.0,0.0,0.0,0.0,0.0,0.0,0.0,0.0,0.0,0.0,0.0,0.0,0.0,0.0,0.0,0.0,0.0,0.0,0.0,0.0,0.0,0.0,0.0,0.0,0.0,0.0,0.0,0.0,0.0,0.0,0.0,0.0,0.0,0.0,0.0,0.0,0.0,0.0,0.0,0.0,0.0,0.0,0.0,0.0,0.0,0.0,0.0,0.0,0.0,0.0,0.0,0.0,0.0,0.0,0.0,0.0,0.0,0.0,0.0,0.0,0.0,0.0,0.0,0.0,0.0,0.0,0.0,0.0,0.0,0.0,0.0,0.0,0.0,0.0,0.0,0.0,0.0,0.0,0.0,0.0,0.0,0.0,0.0,0.0,0.0,0.0,0.0,0.0,0.0,0.0,0.0,0.0,0.0,0.0,0.0,0.0,-3.6991,-3.7706,-3.7613,-3.724,-3.6606,0.0,0.0,0.0,0.0,0.0,0.0,0.0,0.0,0.0,0.0,0.0,0.0,0.0,0.0,0.0,0.0,0.0,0.0,0.0,0.0,0.0,0.0,0.0,0.0,0.0,0.0,0.0,0.0,0.0,0.0,0.0,0.0,0.0,0.0,0.0,0.0,0.0,0.0,0.0,0.0,0.0,0.0,0.0,0.0,0.0,0.0,0.0,0.0,0.0,0.0,0.0,0.0,0.0,0.0,0.0,0.0,0.0,0.0,0.0,0.0,0.0,0.0,0.0,0.0,0.0,0.0,0.0,0.0,0.0,0.0,0.0,0.0,0.0,0.0,0.0,0.0,0.0,0.0,0.0,0.0,0.0,0.0,0.0,0.0,0.0,0.0,0.0,0.0,0.0,0.0,0.0,0.0,0.0,0.0,0.0,0.0,0.0,0.0,0.0,0.0,0.0,0.0,0.0,0.0,0.0,0.0,0.0,0.0,0.0,0.0,0.0,0.0,-3.8797,-3.837,-3.7575,0.0,0.0,0.0,0.0,0.0,0.0,0.0,0.0,0.0,0.0,0.0,0.0,0.0,0.0,0.0,0.0,0.0,0.0,0.0,0.0,0.0,0.0,0.0,0.0,0.0,0.0,0.0,0.0,0.0,0.0,0.0,0.0,0.0,0.0,0.0,0.0,0.0,0.0,0.0,0.0,0.0,0.0,0.0,0.0,0.0,0.0,0.0,0.0,0.0,0.0,0.0,0.0,0.0,0.0,0.0,0.0,0.0,0.0,0.0,0.0,0.0,0.0,0.0,0.0,0.0,0.0,0.0,0.0,0.0,0.0,0.0,0.0,0.0,0.0,0.0,0.0,0.0,0.0,0.0,0.0,0.0,0.0,0.0,0.0,0.0,0.0,0.0,0.0,0.0,0.0,0.0,0.0,0.0,0.0,0.0,0.0,0.0,0.0,0.0,0.0,0.0,0.0,0.0,0.0,0.0,0.0,0.0,0.0,0.0,0.0,-3.9002,-3.9722,-3.9681,0.0,-3.7545,0.0,0.0,0.0,0.0,0.0,0.0,0.0,0.0,0.0,0.0,0.0,0.0,0.0,0.0,0.0,0.0,0.0,0.0,0.0,0.0,0.0,0.0,0.0,0.0,0.0,0.0,0.0,0.0,0.0,0.0,0.0,0.0,0.0,0.0,0.0,0.0,0.0,0.0,0.0,0.0,0.0,0.0,0.0,0.0,0.0,0.0,0.0,0.0,0.0,0.0,0.0,0.0,0.0,0.0,0.0,0.0,0.0,0.0,0.0,0.0,0.0,0.0,0.0,0.0,0.0,0.0,0.0,0.0,0.0,0.0,0.0,0.0,0.0,0.0,0.0,0.0,0.0,0.0,0.0,0.0,0.0,0.0,0.0,0.0,0.0,0.0,0.0,0.0,0.0,0.0,0.0,0.0,0.0,0.0,0.0,0.0,0.0,0.0,0.0,0.0,0.0,0.0,0.0,0.0,0.0,0.0,0.0,0.0,0.0,0.0,-3.9793,-4.0439,-4.037,-3.9673,0.0,0.0,0.0,0.0,0.0,0.0,0.0,0.0,0.0,0.0,0.0,0.0,0.0,0.0,0.0,0.0,0.0,0.0,0.0,0.0,0.0,0.0,0.0,0.0,0.0,0.0,0.0,0.0,0.0,0.0,0.0,0.0,0.0,0.0,0.0,0.0,0.0,0.0,0.0,0.0,0.0,0.0,0.0,0.0,0.0,0.0,0.0,0.0,0.0,0.0,0.0,0.0,0.0,0.0,0.0,0.0,0.0,0.0,0.0,0.0,0.0,0.0,0.0,0.0,0.0,0.0,0.0,0.0,0.0,0.0,0.0,0.0,0.0,0.0,0.0,0.0,0.0,0.0,0.0,0.0,0.0,0.0,0.0,0.0,0.0,0.0,0.0,0.0,0.0,0.0,0.0,0.0,0.0,0.0,0.0,0.0,0.0,0.0,0.0,0.0,0.0,0.0,0.0,0.0,0.0,0.0,0.0,0.0,0.0,0.0,-4.0005,-4.0493,-4.0987,-4.0987,-4.036,-3.8982,0.0,0.0,0.0,0.0,0.0,0.0,0.0,0.0,0.0,0.0,0.0,0.0,0.0,0.0,0.0,0.0,0.0,0.0,0.0,0.0,0.0,0.0,0.0,0.0,0.0,0.0,0.0,0.0,0.0,0.0,0.0,0.0,0.0,0.0,0.0,0.0,0.0,0.0,0.0,0.0,0.0,0.0,0.0,0.0,0.0,0.0,0.0,0.0,0.0,0.0,0.0,0.0,0.0,0.0,0.0,0.0,0.0,0.0,0.0,0.0,0.0,0.0,0.0,0.0,0.0,0.0,0.0,0.0,0.0,0.0,0.0,0.0,0.0,0.0,0.0,0.0,0.0,0.0,0.0,0.0,0.0,0.0,0.0,0.0,0.0,0.0,0.0,0.0,0.0,0.0,0.0,0.0,0.0,0.0,0.0,0.0,0.0,0.0,0.0,0.0,0.0,0.0,0.0,0.0,0.0,0.0,0.0,0.0,-4.013,-4.0699,-4.1205,-4.1522,-4.1588,-4.106,0.0,0.0,0.0,0.0,0.0,0.0,0.0,0.0,0.0,0.0,0.0,0.0,0.0,0.0,0.0,0.0,0.0,0.0,0.0,0.0,0.0,0.0,0.0,0.0,0.0,0.0,0.0,0.0,0.0,0.0,0.0,0.0,0.0,0.0,0.0,0.0,0.0,0.0,0.0,0.0,0.0,0.0,0.0,0.0,0.0,0.0,0.0,0.0,0.0,0.0,0.0,0.0,0.0,0.0,0.0,0.0,0.0,0.0,0.0,0.0,0.0,0.0,0.0,0.0,0.0,0.0,0.0,0.0,0.0,0.0,0.0,0.0,0.0,0.0,0.0,0.0,0.0,0.0,0.0,0.0,0.0,0.0,0.0,0.0,0.0,0.0,0.0,0.0,0.0,0.0,0.0,0.0,0.0,0.0,0.0,0.0,0.0,0.0,0.0,0.0,0.0,0.0,0.0,0.0,0.0,0.0,0.0,0.0,0.0,-4.0768,-4.1522,-4.1916,-4.1916,-4.2045,-4.1581,0.0,0.0,0.0,0.0,0.0,0.0,0.0,0.0,0.0,0.0,0.0,0.0,0.0,0.0,0.0,0.0,0.0,0.0,0.0,0.0,0.0,0.0,0.0,0.0,0.0,0.0,0.0,0.0,0.0,0.0,0.0,0.0,0.0,0.0,0.0,0.0,0.0,0.0,0.0,0.0,0.0,0.0,0.0,0.0,0.0,0.0,0.0,0.0,0.0,0.0,0.0,0.0,0.0,0.0,0.0,0.0,0.0,0.0,0.0,0.0,0.0,0.0,0.0,0.0,0.0,0.0,0.0,0.0,0.0,0.0,0.0,0.0,0.0,0.0,0.0,0.0,0.0,0.0,0.0,0.0,0.0,0.0,0.0,0.0,0.0,0.0,0.0,0.0,0.0,0.0,0.0,0.0,0.0,0.0,0.0,0.0,0.0,0.0,0.0,0.0,0.0,0.0,0.0,0.0,0.0,0.0,0.0,0.0,0.0,-4.1588,0.0,-4.2429,-4.2412,-4.2445,-4.2093,0.0,0.0,0.0,0.0,0.0,0.0,0.0,0.0,0.0,0.0,0.0,0.0,0.0,0.0,0.0,0.0,0.0,0.0,0.0,0.0,0.0,0.0,0.0,0.0,0.0,0.0,0.0,0.0,0.0,0.0,0.0,0.0,0.0,0.0,0.0,0.0,0.0,0.0,0.0,0.0,0.0,0.0,0.0,0.0,0.0,0.0,0.0,0.0,0.0,0.0,0.0,0.0,0.0,0.0,0.0,0.0,0.0,0.0,0.0,0.0,0.0,0.0,0.0,0.0,0.0,0.0,0.0,0.0,0.0,0.0,0.0,0.0,0.0,0.0,0.0,0.0,0.0,0.0,0.0,0.0,0.0,0.0,0.0,0.0,0.0,0.0,0.0,0.0,0.0,0.0,0.0,0.0,0.0,0.0,0.0,0.0,0.0,0.0,0.0,0.0,0.0,0.0,0.0,0.0,0.0,0.0,0.0,0.0,-4.1209,-4.2508,-4.2587,-4.2743,-4.3052,-4.2743,-4.2555,0.0,0.0,0.0,0.0,0.0,0.0,0.0,0.0,0.0,0.0,0.0,0.0,0.0,0.0,0.0,0.0,0.0,0.0,0.0,0.0,0.0,0.0,0.0,0.0,0.0,0.0,0.0,0.0,0.0,0.0,0.0,0.0,0.0,0.0,0.0,0.0,0.0,0.0,0.0,0.0,0.0,0.0,0.0,0.0,0.0,0.0,0.0,0.0,0.0,0.0,0.0,0.0,0.0,0.0,0.0,0.0,0.0,0.0,0.0,0.0,0.0,0.0,0.0,0.0,0.0,0.0,0.0,0.0,0.0,0.0,0.0,0.0,0.0,0.0,0.0,0.0,0.0,0.0,0.0,0.0,0.0,0.0,0.0,0.0,0.0,0.0,0.0,0.0,0.0,0.0,0.0,0.0,0.0,0.0,0.0,0.0,0.0,0.0,0.0,0.0,0.0,0.0,0.0,0.0,0.0,0.0,0.0,0.0,0.0,-4.2571,-4.2945,-4.3113,-4.3096,-4.299,-4.2515,0.0,0.0,0.0,0.0,0.0,0.0,0.0,0.0,0.0,0.0,0.0,0.0,0.0,0.0,0.0,0.0,0.0,0.0,0.0,0.0,0.0,0.0,0.0,0.0,0.0,0.0,0.0,0.0,0.0,0.0,0.0,0.0,0.0,0.0,0.0,0.0,0.0,0.0,0.0,0.0,0.0,0.0,0.0,0.0,0.0,0.0,0.0,0.0,0.0,0.0,0.0,0.0,0.0,0.0,0.0,0.0,0.0,0.0,0.0,0.0,0.0,0.0,0.0,0.0,0.0,0.0,0.0,0.0,0.0,0.0,0.0,0.0,0.0,0.0,0.0,0.0,0.0,0.0,0.0,0.0,0.0,0.0,0.0,0.0,0.0,0.0,0.0,0.0,0.0,0.0,0.0,0.0,0.0,0.0,0.0,0.0,0.0,0.0,0.0,0.0,0.0,0.0,0.0,0.0,0.0,0.0,0.0,0.0,0.0,-4.2821,-4.319,-4.3372,-4.3295,-4.3174,-4.2586,-4.1459,0.0,0.0,0.0,0.0,0.0,0.0,0.0,0.0,0.0,0.0,0.0,0.0,0.0,0.0,0.0,0.0,0.0,0.0,0.0,0.0,0.0,0.0,0.0,0.0,0.0,0.0,0.0,0.0,0.0,0.0,0.0,0.0,0.0,0.0,0.0,0.0,0.0,0.0,0.0,0.0,0.0,0.0,0.0,0.0,0.0,0.0,0.0,0.0,0.0,0.0,0.0,0.0,0.0,0.0,0.0,0.0,0.0,0.0,0.0,0.0,0.0,0.0,0.0,0.0,0.0,0.0,0.0,0.0,0.0,0.0,0.0,0.0,0.0,0.0,0.0,0.0,0.0,0.0,0.0,0.0,0.0,0.0,0.0,0.0,0.0,0.0,0.0,0.0,0.0,0.0,0.0,0.0,0.0,0.0,0.0,0.0,0.0,0.0,0.0,0.0,0.0,0.0,0.0,0.0,0.0,0.0,0.0,0.0,-4.3096,-4.3295,-4.3509,-4.3552,-4.3312,-4.2647,0.0,0.0,0.0,0.0,0.0,0.0,0.0,0.0,0.0,0.0,0.0,0.0,0.0,0.0,0.0,0.0,0.0,0.0,0.0,0.0,0.0,0.0,0.0,0.0,0.0,0.0,0.0,0.0,0.0,0.0,0.0,0.0,0.0,0.0,0.0,0.0,0.0,0.0,0.0,0.0,0.0,0.0,0.0,0.0,0.0,0.0,0.0,0.0,0.0,0.0,0.0,0.0,0.0,0.0,0.0,0.0,0.0,0.0,0.0,0.0,0.0,0.0,0.0,0.0,0.0,0.0,0.0,0.0,0.0,0.0,0.0,0.0,0.0,0.0,0.0,0.0,0.0,0.0,0.0,0.0,0.0,0.0,0.0,0.0,0.0,0.0,0.0,0.0,0.0,0.0,0.0,0.0,0.0,0.0,0.0,0.0,0.0,0.0,0.0,0.0,0.0,0.0,0.0,0.0,0.0,0.0,0.0,0.0,0.0,-4.3113,-4.3372,-4.3568,-4.3568,-4.3295,-4.2647,0.0,0.0,0.0,0.0,0.0,0.0,0.0,0.0,0.0,0.0,0.0,0.0,0.0,0.0,0.0,0.0,0.0,0.0,0.0,0.0,0.0,0.0,0.0,0.0,0.0,0.0,0.0,0.0,0.0,0.0,0.0,0.0,0.0,0.0,0.0,0.0,0.0,0.0,0.0,0.0,0.0,0.0,0.0,0.0,0.0,0.0,0.0,0.0,0.0,0.0,0.0,0.0,0.0,0.0,0.0,0.0,0.0,0.0,0.0,0.0,0.0,0.0,0.0,0.0,0.0,0.0,0.0,0.0,0.0,0.0,0.0,0.0,0.0,0.0,0.0,0.0,0.0,0.0,0.0,0.0,0.0,0.0,0.0,0.0,0.0,0.0,0.0,0.0,0.0,0.0,0.0,0.0,0.0,0.0,0.0,0.0,0.0,0.0,0.0,0.0,0.0,0.0,0.0,0.0,0.0,0.0,0.0,0.0,-4.2759,-4.3096,-4.3432,-4.3568,-4.3492,-4.3251,-4.2647,0.0,0.0,0.0,0.0,0.0,0.0,0.0,0.0,0.0,0.0,0.0,0.0,0.0,0.0,0.0,0.0,0.0,0.0,0.0,0.0,0.0,0.0,0.0,0.0,0.0,0.0,0.0,0.0,0.0,0.0,0.0,0.0,0.0,0.0,0.0,0.0,0.0,0.0,0.0,0.0,0.0,0.0,0.0,0.0,0.0,0.0,0.0,0.0,0.0,0.0,0.0,0.0,0.0,0.0,0.0,0.0,0.0,0.0,0.0,0.0,0.0,0.0,0.0,0.0,0.0,0.0,0.0,0.0,0.0,0.0,0.0,0.0,0.0,0.0,0.0,0.0,0.0,0.0,0.0,0.0,0.0,0.0,0.0,0.0,0.0,0.0,0.0,0.0,0.0,0.0,0.0,0.0,0.0,0.0,0.0,0.0,0.0,0.0,0.0,0.0,0.0,0.0,0.0,0.0,0.0,0.0,0.0,0.0,-4.2759,-4.3052,-4.3355,-4.3492,-4.3388,-4.3174,-4.2635,0.0,0.0,0.0,0.0,0.0,0.0,0.0,0.0,0.0,0.0,0.0,0.0,0.0,0.0,0.0,0.0,0.0,0.0,0.0,0.0,0.0,0.0,0.0,0.0,0.0,0.0,0.0,0.0,0.0,0.0,0.0,0.0,0.0,0.0,0.0,0.0,0.0,0.0,0.0,0.0,0.0,0.0,0.0,0.0,0.0,0.0,0.0,0.0,0.0,0.0,0.0,0.0,0.0,0.0,0.0,0.0,0.0,0.0,0.0,0.0,0.0,0.0,0.0,0.0,0.0,0.0,0.0,0.0,0.0,0.0,0.0,0.0,0.0,0.0,0.0,0.0,0.0,0.0,0.0,0.0,0.0,0.0,0.0,0.0,0.0,0.0,0.0,0.0,0.0,0.0,0.0,0.0,0.0,0.0,0.0,0.0,0.0,0.0,0.0,0.0,0.0,0.0,0.0,0.0,0.0,0.0,0.0,0.0,-4.2555,-4.2945,-4.3113,-4.3174,-4.3174,-4.3113,-4.2847,0.0,0.0,0.0,0.0,0.0,0.0,0.0,0.0,0.0,0.0,0.0,0.0,0.0,0.0,0.0,0.0,0.0,0.0,0.0,0.0,0.0,0.0,0.0,0.0,0.0,0.0,0.0,0.0,0.0,0.0,0.0,0.0,0.0,0.0,0.0,0.0,0.0,0.0,0.0,0.0,0.0,0.0,0.0,0.0,0.0,0.0,0.0,0.0,-3.7304,0.0,0.0,0.0,0.0,0.0,0.0,0.0,0.0,0.0,0.0,0.0,0.0,0.0,0.0,0.0,0.0,0.0,0.0,0.0,0.0,0.0,0.0,0.0,0.0,0.0,0.0,0.0,0.0,0.0,0.0,0.0,0.0,0.0,0.0,0.0,0.0,0.0,0.0,0.0,0.0,0.0,0.0,0.0,0.0,0.0,0.0,0.0,0.0,0.0,0.0,0.0,0.0,0.0,0.0,0.0,0.0,0.0,0.0,0.0,-4.2524,-4.2759,-4.299,-4.3035,-4.2867,-4.2867,-4.268,0.0,0.0,0.0,0.0,0.0,0.0,0.0,0.0,0.0,0.0,0.0,0.0,0.0,0.0,0.0,0.0,0.0,0.0,0.0,0.0,0.0,0.0,0.0,0.0,0.0,0.0,0.0,0.0,0.0,0.0,0.0,0.0,0.0,0.0,0.0,0.0,0.0,0.0,0.0,0.0,0.0,0.0,0.0,0.0,0.0,0.0,0.0,0.0,0.0,0.0,0.0,0.0,0.0,0.0,0.0,0.0,0.0,0.0,0.0,0.0,0.0,0.0,0.0,0.0,0.0,0.0,0.0,0.0,0.0,0.0,0.0,0.0,0.0,0.0,0.0,0.0,0.0,0.0,0.0,0.0,0.0,0.0,0.0,0.0,0.0,0.0,0.0,0.0,0.0,0.0,0.0,0.0,0.0,0.0,0.0,0.0,0.0,0.0,0.0,0.0,0.0,0.0,0.0,0.0,0.0,0.0,0.0,-4.2045,-4.2381,-4.2492,-4.2805,-4.2805,-4.2508,-4.2508,-4.2302,-4.1964,0.0,0.0,0.0,0.0,0.0,0.0,0.0,0.0,0.0,0.0,0.0,0.0,0.0,0.0,0.0,0.0,0.0,0.0,0.0,0.0,0.0,0.0,0.0,0.0,0.0,0.0,0.0,0.0,0.0,0.0,0.0,0.0,0.0,0.0,0.0,0.0,0.0,0.0,-3.391,-3.6008,0.0,0.0,0.0,0.0,0.0,0.0,0.0,0.0,-3.8294,0.0,0.0,0.0,0.0,0.0,0.0,0.0,0.0,0.0,0.0,0.0,0.0,0.0,0.0,0.0,0.0,0.0,0.0,0.0,0.0,0.0,0.0,0.0,0.0,0.0,0.0,0.0,0.0,0.0,0.0,0.0,0.0,0.0,0.0,0.0,0.0,0.0,0.0,0.0,0.0,0.0,0.0,0.0,0.0,0.0,0.0,0.0,0.0,0.0,0.0,0.0,0.0,0.0,0.0,0.0,0.0,-4.1307,-4.1588,-4.1851,-4.2174,-4.2238,-4.2238,-4.2174,-4.1916,-4.1588,-4.1209,0.0,0.0,0.0,0.0,0.0,0.0,0.0,0.0,0.0,0.0,0.0,0.0,0.0,0.0,0.0,0.0,0.0,0.0,0.0,0.0,0.0,0.0,0.0,0.0,0.0,0.0,0.0,0.0,0.0,0.0,0.0,0.0,0.0,0.0,0.0,0.0,0.0,0.0,0.0,-3.7132,-3.8161,0.0,0.0,0.0,0.0,0.0,0.0,0.0,0.0,-3.8173,0.0,0.0,0.0,0.0,0.0,0.0,0.0,0.0,0.0,0.0,0.0,0.0,0.0,0.0,0.0,0.0,0.0,0.0,0.0,0.0,0.0,0.0,0.0,0.0,0.0,0.0,0.0,0.0,0.0,0.0,0.0,0.0,0.0,0.0,0.0,0.0,0.0,0.0,0.0,0.0,0.0,0.0,0.0,0.0,0.0,0.0,0.0,0.0,0.0,0.0,0.0,0.0,0.0,0.0,0.0,-4.1008,-4.1323,-4.1522,-4.1638,-4.1785,-4.1785,-4.172,-4.1456,-4.1189,0.0,0.0,0.0,0.0,0.0,0.0,0.0,0.0,0.0,0.0,0.0,0.0,0.0,0.0,0.0,0.0,0.0,0.0,0.0,0.0,0.0,0.0,0.0,0.0,0.0,0.0,0.0,0.0,0.0,0.0,0.0,0.0,0.0,0.0,0.0,0.0,0.0,0.0,0.0,0.0,-3.7587,-3.8427,-3.8649,0.0,0.0,0.0,0.0,0.0,0.0,-3.8723,-3.8427,0.0,0.0,0.0,0.0,0.0,0.0,0.0,0.0,0.0,0.0,0.0,0.0,0.0,0.0,0.0,0.0,0.0,0.0,0.0,0.0,0.0,0.0,0.0,0.0,0.0,0.0,0.0,0.0,0.0,0.0,0.0,0.0,0.0,0.0,0.0,0.0,0.0,0.0,0.0,0.0,0.0,0.0,0.0,0.0,0.0,0.0,0.0,0.0,0.0,0.0,0.0,0.0,0.0,0.0,0.0,-4.0715,-4.1055,-4.1189,-4.1272,-4.139,-4.139,-4.1189,-4.1055,-4.0715,0.0,0.0,0.0,0.0,0.0,0.0,0.0,0.0,0.0,0.0,0.0,0.0,0.0,0.0,0.0,0.0,0.0,0.0,0.0,0.0,0.0,0.0,0.0,0.0,0.0,0.0,0.0,0.0,0.0,0.0,0.0,0.0,0.0,0.0,0.0,0.0,0.0,0.0,0.0,0.0,0.0,-3.8516,-3.8723,-3.8943,0.0,0.0,0.0,0.0,-3.8855,-3.8797,0.0,0.0,0.0,0.0,0.0,0.0,0.0,0.0,0.0,0.0,0.0,0.0,0.0,0.0,0.0,0.0,0.0,0.0,0.0,0.0,0.0,0.0,0.0,0.0,0.0,0.0,0.0,0.0,0.0,0.0,0.0,0.0,0.0,0.0,0.0,0.0,0.0,0.0,0.0,0.0,0.0,0.0,0.0,0.0,0.0,0.0,0.0,0.0,0.0,0.0,0.0,0.0,0.0,0.0,0.0,0.0,-4.0524,-4.073,-4.095,-4.1102,-4.0935,-4.0867,-4.0867,-4.0493,-4.0146,0.0,0.0,0.0,0.0,0.0,0.0,0.0,0.0,0.0,0.0,0.0,0.0,0.0,0.0,0.0,0.0,0.0,0.0,0.0,0.0,0.0,0.0,0.0,0.0,0.0,0.0,0.0,0.0,0.0,0.0,0.0,0.0,0.0,0.0,0.0,0.0,0.0,0.0,0.0,0.0,0.0,-3.8292,-3.8516,-3.8885,-3.9134,0.0,0.0,-3.9031,-3.887,-3.8649,0.0,0.0,0.0,0.0,0.0,0.0,0.0,0.0,0.0,0.0,0.0,0.0,0.0,0.0,0.0,0.0,0.0,0.0,0.0,0.0,0.0,0.0,0.0,0.0,0.0,0.0,0.0,0.0,0.0,0.0,0.0,0.0,0.0,0.0,0.0,0.0,0.0,0.0,0.0,0.0,0.0,0.0,0.0,0.0,0.0,0.0,0.0,0.0,0.0,0.0,0.0,0.0,0.0,0.0,0.0,-4.0051,-4.0191,-4.0277,-4.0401,-4.0501,-4.0401,-4.0331,-4.0176,-3.9879,-3.961,0.0,0.0,0.0,0.0,0.0,0.0,0.0,0.0,0.0,0.0,0.0,0.0,0.0,0.0,0.0,0.0,0.0,0.0,0.0,0.0,0.0,0.0,0.0,0.0,0.0,0.0,0.0,0.0,0.0,0.0,0.0,0.0,0.0,0.0,0.0,0.0,0.0,0.0,0.0,0.0,0.0,0.0,-3.8277,-3.859,0.0,0.0,0.0,-3.8855,-3.8487,0.0,0.0,0.0,0.0,0.0,0.0,0.0,0.0,0.0,0.0,0.0,0.0,0.0,0.0,0.0,0.0,0.0,0.0,0.0,0.0,0.0,0.0,0.0,0.0,0.0,0.0,0.0,0.0,0.0,0.0,0.0,0.0,0.0,0.0,0.0,0.0,0.0,0.0,0.0,0.0,0.0,0.0,0.0,0.0,0.0,0.0,0.0,0.0,0.0,0.0,0.0,0.0,0.0,0.0,0.0,0.0,0.0,-3.9925,-3.9925,-3.9925,-3.9925,-3.9854,-3.9696,-3.9538,-3.9337,0.0,0.0,0.0,0.0,0.0,0.0,0.0,0.0,0.0,0.0,0.0,0.0,0.0,0.0,0.0,0.0,0.0,0.0,0.0,0.0,0.0,0.0,0.0,0.0,0.0,0.0,0.0,-2.8255,0.0,0.0,0.0,0.0,0.0,0.0,0.0,0.0,0.0,0.0,0.0,0.0,0.0,0.0,-3.7763,-3.7976,-3.8202,-3.8559,0.0,0.0,-3.8531,-3.8103,-3.813,-3.7976,0.0,0.0,0.0,0.0,0.0,0.0,0.0,0.0,0.0,0.0,0.0,0.0,0.0,0.0,0.0,0.0,0.0,0.0,0.0,0.0,0.0,0.0,0.0,0.0,0.0,0.0,0.0,0.0,0.0,0.0,0.0,0.0,0.0,0.0,0.0,0.0,0.0,0.0,0.0,0.0,0.0,0.0,0.0,0.0,0.0,0.0,0.0,0.0,0.0,0.0,0.0,0.0,0.0,0.0,0.0,-3.9696,-3.9696,-3.9681,-3.9681,-3.9322,-3.9177,-3.9104,-3.8738,-3.8441,0.0,0.0,0.0,0.0,0.0,0.0,0.0,0.0,0.0,0.0,0.0,0.0,0.0,0.0,0.0,0.0,0.0,0.0,0.0,0.0,0.0,0.0,0.0,0.0,0.0,0.0,0.0,0.0,0.0,0.0,0.0,0.0,0.0,0.0,0.0,0.0,0.0,0.0,0.0,0.0,0.0,-3.7134,-3.7303,-3.7672,-3.8037,0.0,0.0,-3.813,-3.7702,-3.78,-3.7701,-3.7148,0.0,0.0,0.0,0.0,0.0,0.0,0.0,0.0,0.0,0.0,0.0,0.0,0.0,0.0,0.0,0.0,0.0,0.0,0.0,0.0,0.0,0.0,0.0,0.0,0.0,0.0,0.0,0.0,0.0,0.0,0.0,0.0,0.0,0.0,0.0,0.0,0.0,0.0,0.0,0.0,0.0,0.0,0.0,0.0,0.0,0.0,0.0,0.0,0.0,0.0,0.0,0.0,0.0,-3.9177,-3.9162,-3.9147,-3.9162,-3.9162,-3.8885,-3.8664,-3.8575,-3.8142,-3.7825,0.0,0.0,0.0,0.0,0.0,0.0,0.0,0.0,0.0,0.0,0.0,0.0,0.0,0.0,0.0,0.0,0.0,0.0,0.0,0.0,0.0,0.0,0.0,0.0,0.0,0.0,0.0,0.0,-3.042,-3.1151,-3.1596,0.0,0.0,0.0,0.0,0.0,0.0,0.0,0.0,0.0,0.0,-3.6716,-3.7056,-3.7692,0.0,0.0,-3.846,-3.8925,-3.8746,-3.8552,-3.8357,-3.8116,-3.7645,0.0,0.0,0.0,0.0,0.0,0.0,0.0,0.0,0.0,0.0,0.0,0.0,0.0,0.0,0.0,0.0,0.0,0.0,0.0,0.0,0.0,0.0,0.0,0.0,0.0,0.0,0.0,0.0,0.0,0.0,0.0,0.0,0.0,0.0,0.0,0.0,0.0,0.0,0.0,0.0,0.0,0.0,0.0,0.0,0.0,0.0,0.0,0.0,0.0,0.0,0.0,0.0,-3.8723,-3.8723,-3.856,-3.856,-3.8546,-3.8277,-3.8066,-3.7901,-3.7534,-3.7226,0.0,0.0,0.0,0.0,0.0,0.0,0.0,0.0,0.0,0.0,0.0,0.0,0.0,0.0,0.0,0.0,0.0,0.0,0.0,0.0,0.0,0.0,0.0,0.0,0.0,0.0,0.0,0.0,-3.0408,-3.1241,-3.1849,0.0,0.0,0.0,0.0,0.0,0.0,0.0,0.0,0.0,0.0,-3.6507,-3.7035,-3.7637,-3.79,-3.7948,-3.8752,-3.9396,-3.9658,-3.9027,-3.8559,-3.8408,0.0,0.0,0.0,0.0,0.0,0.0,0.0,0.0,0.0,0.0,0.0,0.0,0.0,0.0,0.0,0.0,0.0,0.0,0.0,0.0,0.0,0.0,0.0,0.0,0.0,0.0,0.0,0.0,0.0,0.0,0.0,0.0,0.0,0.0,0.0,0.0,0.0,0.0,0.0,0.0,0.0,0.0,0.0,0.0,0.0,0.0,0.0,0.0,0.0,0.0,0.0,0.0,0.0,-3.8516,-3.8516,-3.8127,-3.7886,-3.7886,-3.7519,-3.7317,-3.7303,-3.69,-3.6573,-3.6308,0.0,0.0,0.0,0.0,0.0,0.0,0.0,0.0,0.0,0.0,0.0,0.0,0.0,0.0,0.0,0.0,0.0,0.0,0.0,0.0,0.0,0.0,0.0,0.0,0.0,0.0,-2.9485,-3.042,-3.1151,0.0,0.0,0.0,0.0,0.0,0.0,0.0,0.0,0.0,0.0,-3.6119,-3.6585,-3.7379,-3.7365,-3.7715,-3.8712,-3.8921,-3.924,-3.9827,-3.8936,-3.7992,0.0,0.0,0.0,0.0,0.0,0.0,0.0,0.0,0.0,0.0,0.0,0.0,0.0,0.0,0.0,0.0,0.0,0.0,0.0,0.0,0.0,0.0,0.0,0.0,0.0,0.0,0.0,-3.9857,-3.9313,0.0,0.0,0.0,0.0,0.0,0.0,0.0,0.0,0.0,0.0,0.0,-3.8412,-3.8127,0.0,0.0,0.0,0.0,0.0,0.0,0.0,0.0,0.0,0.0,0.0,0.0,-3.7839,-3.7687,-3.761,-3.7443,-3.7289,-3.7056,-3.6808,-3.6638,-3.6256,-3.5871,-3.5535,0.0,0.0,0.0,0.0,0.0,0.0,0.0,0.0,0.0,0.0,0.0,0.0,0.0,0.0,0.0,0.0,0.0,0.0,0.0,0.0,0.0,0.0,0.0,0.0,0.0,-2.9393,0.0,0.0,0.0,0.0,0.0,0.0,0.0,0.0,0.0,0.0,0.0,-3.5279,-3.5922,-3.6121,-3.6459,-3.7147,-3.7556,-3.7957,0.0,0.0,0.0,0.0,0.0,0.0,0.0,0.0,0.0,0.0,0.0,0.0,0.0,0.0,-3.5425,-3.4591,-3.4425,-3.4371,-3.4114,0.0,0.0,0.0,0.0,0.0,0.0,0.0,0.0,0.0,0.0,0.0,0.0,0.0,0.0,0.0,0.0,-3.961,0.0,0.0,0.0,0.0,0.0,0.0,0.0,0.0,-3.8292,-3.7976,-3.7901,-3.761,-3.7457,0.0,-3.7134,-3.7148,0.0,0.0,0.0,0.0,0.0,0.0,0.0,0.0,-3.7226,-3.7056,-3.6915,-3.6758,-3.6665,-3.6363,-3.6177,-3.599,-3.5535,-3.5141,-3.4825,-3.4397,-3.4134,0.0,0.0,0.0,0.0,0.0,0.0,0.0,0.0,0.0,0.0,0.0,0.0,0.0,0.0,0.0,0.0,0.0,0.0,0.0,0.0,0.0,0.0,0.0,-2.9276,0.0,0.0,0.0,0.0,0.0,0.0,0.0,0.0,0.0,-3.4325,-3.4844,-3.5417,-3.6069,-3.6184,-3.6413,-3.714,0.0,0.0,0.0,0.0,0.0,0.0,0.0,-3.8395,-3.8226,-3.7861,-3.7479,-3.7214,-3.6887,-3.6546,-3.5883,0.0,0.0,-3.4885,-3.4613,-3.445,-3.4295,-3.4074,-3.372,-3.3434,-3.3563,-3.3652,0.0,0.0,0.0,0.0,0.0,0.0,0.0,0.0,-3.9895,-3.9681,0.0,-3.9481,0.0,0.0,0.0,0.0,0.0,0.0,0.0,0.0,-3.8005,-3.7625,-3.7303,-3.7226,-3.707,-3.6665,-3.6665,-3.6522,-3.6391,-3.6758,0.0,0.0,0.0,0.0,0.0,0.0,-3.6665,-3.6665,-3.6204,-3.5951,-3.5951,-3.5642,-3.5399,-3.5386,-3.4729,-3.4397,-3.4397,-3.3966,-3.3641,-3.3398,-3.3398,0.0,0.0,0.0,0.0,0.0,0.0,0.0,0.0,0.0,0.0,0.0,0.0,0.0,0.0,0.0,0.0,0.0,0.0,0.0,0.0,-2.8499,0.0,0.0,0.0,0.0,0.0,0.0,0.0,0.0,0.0,0.0,-3.4591,-3.471,-3.5158,-3.6133,0.0,0.0,0.0,0.0,-3.7886,-3.7821,-3.7364,-3.7182,-3.7351,-3.7402,-3.7505,-3.7492,0.0,0.0,-3.6452,-3.6368,-3.6143,-3.55,-3.5114,-3.4945,-3.5404,-3.474,-3.4304,-3.4654,-3.4288,-3.3953,-3.3645,-3.3464,-3.3411,-4.1851,0.0,0.0,0.0,0.0,-4.0524,-4.0246,-3.9895,-3.9753,-3.9625,-3.9496,-3.9424,0.0,0.0,0.0,0.0,0.0,0.0,-3.8142,-3.7763,-3.7457,-3.7134,-3.6822,-3.6508,-3.627,-3.6191,-3.5951,-3.5723,-3.5642,-3.5629,-3.5871,-3.627,0.0,0.0,0.0,0.0,-3.5871,-3.5804,-3.5629,-3.548,-3.5399,-3.5236,-3.499,-3.4729,-3.4147,-3.3882,-3.3894,-3.3641,-3.3484,-3.3398,-3.3056,0.0,0.0,0.0,0.0,0.0,0.0,0.0,0.0,0.0,0.0,0.0,0.0,0.0,0.0,0.0,0.0,0.0,0.0,0.0,-2.8466,-2.8593,-2.8978,0.0,0.0,0.0,0.0,0.0,0.0,0.0,0.0,0.0,-3.439,-3.4951,-3.5486,0.0,0.0,-3.6557,-3.6883,-3.7108,-3.7188,-3.7281,0.0,0.0,0.0,-3.6896,-3.6828,-3.6439,-3.6168,-3.5895,-3.5608,-3.5684,-3.5551,-3.4835,-3.4736,-3.4698,-3.4261,-3.4213,-3.4091,-3.393,-3.3755,-3.3381,-3.3158,-3.2958,-3.2757,-4.1339,-4.1138,-4.1055,-4.0799,-4.0401,-4.0246,-3.9965,-3.9696,-3.9625,-3.9496,-3.9424,-3.9424,-3.9352,-3.925,-3.8973,0.0,0.0,0.0,-3.7763,-3.738,-3.6886,-3.6587,-3.627,-3.5951,-3.571,-3.5629,-3.5399,-3.5236,-3.5141,-3.4895,-3.4977,-3.5223,0.0,0.0,-3.548,-3.548,-3.5399,-3.5141,-3.5059,-3.4908,-3.4743,-3.4564,-3.4397,-3.4147,-3.381,-3.3556,-3.3556,-3.3386,-3.3227,-3.3142,-3.2884,-3.2624,0.0,0.0,0.0,0.0,0.0,0.0,0.0,0.0,0.0,0.0,0.0,-2.9393,-2.885,0.0,0.0,0.0,-2.7683,-2.789,-2.8467,-2.8596,0.0,0.0,0.0,0.0,0.0,0.0,0.0,-3.2723,-3.3047,-3.3446,-3.3953,-3.4433,-3.503,-3.5596,-3.5883,-3.6168,-3.6263,0.0,-3.6452,-3.6452,-3.6414,-3.6295,-3.625,-3.625,-3.6168,-3.5775,-3.5404,-3.5114,-3.4932,-3.4944,-3.4772,-3.4284,-3.4146,-3.3995,-3.3369,-3.3066,-3.2932,-3.3224,-3.3047,-3.2656,-3.2342,-3.2294,-3.2119,-4.083,-4.0455,-4.047,-4.0331,-4.0191,-3.9824,-3.9681,-3.9696,-3.9481,-3.9424,-3.9424,-3.9424,-3.925,-3.9031,-3.8664,0.0,0.0,-3.7763,-3.738,-3.69,-3.648,-3.6084,-3.5629,-3.5399,-3.5236,-3.5086,-3.499,-3.4895,-3.4634,-3.4481,-3.4243,-3.4076,-3.466,-3.499,-3.5003,-3.499,-3.4908,-3.4634,-3.4481,-3.423,-3.4076,-3.381,-3.3725,-3.3713,-3.3471,-3.3398,-3.3398,-3.3154,-3.2982,-3.2711,-3.2636,-3.255,-3.23,0.0,0.0,0.0,0.0,0.0,0.0,0.0,0.0,0.0,0.0,0.0,0.0,0.0,0.0,0.0,-2.7242,0.0,-2.8147,-2.8469,0.0,0.0,0.0,-3.0349,-3.1084,-3.1322,-3.1629,-3.1913,0.0,0.0,0.0,0.0,-3.4023,-3.5041,-3.5417,-3.5598,-3.5647,-3.5842,-3.5817,-3.5817,-3.5526,-3.5514,-3.5745,-3.5636,-3.5551,-3.5247,-3.476,-3.4513,-3.4426,-3.4228,-3.4006,-3.3731,-3.3373,-3.3083,-3.287,-3.1924,-3.1251,-3.2566,-3.2341,-3.1911,-3.1804,-3.1819,-3.1889,-4.0539,-4.0347,-4.0036,-3.9895,-3.9839,-3.9768,-3.964,-3.9481,-3.9424,-3.9424,-3.9424,-3.9424,-3.9177,-3.8855,-3.8427,-3.8142,-3.7929,-3.738,-3.69,-3.6466,-3.6017,-3.5615,-3.5236,-3.4825,-3.4647,-3.4564,-3.4217,-3.3966,-3.3966,-3.3882,-3.3882,-3.381,-3.3979,-3.4063,-3.4063,-3.4063,-3.3979,-3.3966,-3.3882,-3.3797,-3.3797,-3.3556,-3.3484,-3.3471,-3.324,-3.3154,-3.3167,-3.2982,-3.2723,-3.2723,-3.2376,-3.2113,-3.1849,-3.1572,0.0,0.0,0.0,0.0,0.0,0.0,0.0,0.0,0.0,-2.8571,-2.7914,0.0,-2.7769,0.0,-2.759,-2.7834,-2.8389,-2.843,0.0,0.0,-2.9818,-3.0182,-3.0588,-3.0817,-3.1137,-3.1322,-3.1742,-3.2181,-3.2878,-3.3322,-3.3868,-3.444,-3.4976,-3.5469,-3.5752,-3.6026,-3.6227,-3.609,-3.6054,-3.6002,-3.58,-3.5646,-3.5509,-3.5216,-3.5011,-3.4818,-3.4395,-3.4176,-3.4073,-3.3761,-3.2807,-3.2332,-3.2867,-3.2306,-3.204,-3.2243,-3.2122,-3.1992,-3.1998,-3.2073,-3.1943,-4.0401,-4.0137,-3.9839,-3.961,-3.9538,-3.9553,-3.9481,-3.9424,-3.9424,-3.9424,-3.9424,-3.9192,-3.887,-3.8486,-3.8202,-3.7839,-3.7457,-3.7056,-3.6573,-3.6004,-3.5615,-3.5236,-3.4743,-3.441,-3.423,-3.405,-3.3797,-3.3641,-3.3556,-3.3556,-3.3556,-3.3471,-3.3398,-3.3398,-3.3484,-3.3641,-3.3641,-3.3556,-3.3471,-3.3398,-3.3386,-3.3326,-3.3227,-3.324,-3.3154,-3.3068,-3.2896,-3.281,-3.2636,-3.2376,-3.2025,-3.1749,-3.1572,-3.1026,-3.0668,0.0,0.0,0.0,0.0,0.0,0.0,0.0,0.0,0.0,0.0,0.0,-2.7608,0.0,-2.7772,0.0,-2.853,-2.857,-2.8775,-2.9323,-2.9564,-2.9669,-2.9754,-3.0381,-3.0832,-3.0926,-3.1516,-3.2057,-3.2656,-3.311,-3.3592,-3.4179,-3.4633,-3.5097,-3.5453,-3.5786,-3.5888,-3.5786,-3.5762,-3.5671,-3.5385,-3.5201,-3.4982,-3.4773,-3.4669,-3.4459,-3.4027,-3.3944,-3.386,-3.3402,-3.3049,-3.2813,-3.2642,-3.2577,-3.2425,-3.2117,-3.1881,-3.1745,-3.1766,-3.1824,-3.175,-4.0353,-3.9996,-3.9768,-3.9553,-3.9424,-3.9424,-3.9424,-3.9424,-3.9424,-3.9424,-3.9337,-3.8943,-3.8575,-3.8202,-3.7915,-3.7548,-3.6993,-3.6665,-3.627,-3.5629,-3.5236,-3.4743,-3.4314,-3.416,-3.3894,-3.3641,-3.3641,-3.3569,-3.3398,-3.3398,-3.3227,-3.3081,-3.3081,-3.3081,-3.3167,-3.3471,-3.3556,-3.3398,-3.3154,-3.3081,-3.3081,-3.3081,-3.3081,-3.3081,-3.3081,-3.2982,-3.2711,-3.2711,-3.2463,-3.2025,-3.1761,-3.1484,-3.1116,-3.0578,-3.0125,0.0,-2.9209,0.0,0.0,0.0,0.0,0.0,0.0,0.0,0.0,-2.7479,-2.7472,-2.7979,-2.7849,-2.8006,-2.8601,-2.8621,-2.8727,-2.9036,-2.9076,-2.9116,-2.9232,-3.0054,-3.0653,-3.0663,-3.1535,-3.2221,-3.2512,-3.2739,-3.3236,-3.3999,-3.4403,-3.4679,-3.4978,-3.5341,-3.548,-3.5167,-3.5167,-3.5189,-3.4838,-3.4604,-3.4392,-3.4263,-3.4084,-3.3804,-3.3526,-3.3678,-3.3603,-3.3031,-3.3454,-3.365,-3.2444,-3.242,-3.238,-3.2075,-3.1758,-3.1625,-3.1491,-3.1523,-3.1523,-4.0568,-3.9925,-3.9625,-3.9424,-3.9424,-3.9424,-3.9424,-3.9424,-3.9424,-3.9337,-3.9192,-3.8943,-3.8575,-3.8202,-3.7672,-3.7303,-3.6978,-3.6191,-3.571,-3.548,-3.4812,-3.4397,-3.416,-3.3738,-3.3484,-3.3471,-3.3326,-3.3154,-3.3154,-3.3167,-3.3154,-3.3081,-3.3081,-3.3081,-3.3081,0.0,0.0,0.0,-3.3154,-3.3081,-3.3081,-3.3081,-3.3081,-3.3081,-3.3081,0.0,-3.2723,-3.255,-3.2213,-3.1749,-3.1484,0.0,0.0,0.0,0.0,0.0,0.0,0.0,0.0,0.0,0.0,0.0,-2.7491,-2.7482,-2.7784,-2.7811,-2.7939,-2.8221,-2.8174,-2.8203,-2.8388,-2.8408,-2.8514,-2.8737,-2.9162,-2.9469,-2.9685,-3.0176,-3.0439,-3.0439,-3.1079,-3.1605,-3.2038,-3.2553,-3.3076,-3.3604,-3.3946,-3.4238,-3.425,-3.4966,-3.5328,-3.535,-3.5271,-3.5218,-3.5033,-3.489,-3.4615,-3.4261,-3.4151,-3.3896,-3.3641,-3.3561,-3.3705,-3.3327,-3.3258,-3.3033,-3.2632,-3.2293,-3.1921,-3.1876,-3.1772,-3.1751,-3.1671,-3.1711,-3.1657,-4.0728,0.0,-3.9703,-3.9424,0.0,-3.9424,-3.9424,-3.9424,-3.9424,-3.925,-3.8943,-3.8649,-3.8277,-3.7915,-3.7366,-3.6993,-3.6679,-3.6045,-3.5548,-3.5236,-3.4647,-3.423,-3.3894,-3.3556,-3.3313,-3.324,-3.3167,-3.3081,-3.3081,-3.3081,-3.3081,-3.3081,-3.3081,-3.3081,-3.3081,-3.3081,-3.3081,-3.3081,-3.3081,-3.3081,-3.3081,-3.3081,-3.3081,-3.3081,0.0,0.0,0.0,0.0,0.0,0.0,0.0,0.0,0.0,0.0,0.0,-2.885,-2.8384,-2.7926,-2.7765,-2.7595,-2.7529,-2.7784,-2.7806,-2.7851,-2.7756,-2.8038,-2.8172,-2.8262,-2.8301,-2.8301,-2.8301,-2.8301,-2.8486,-2.88,-2.9026,-2.9233,-2.9689,-3.0187,-3.0558,-3.0598,-3.1105,-3.1666,-3.187,-3.2467,-3.2889,-3.3119,-3.3625,-3.3861,-3.3861,-3.4513,-3.4958,-3.4758,-3.4635,-3.4412,-3.4311,-3.4311,-3.4199,-3.3974,-3.3861,-3.3625,-3.3275,-3.3452,-3.338,-3.2965,-3.2747,-3.2653,-3.2238,-3.1802,-3.1407,-3.1526,-3.1556,-3.1441,-3.146,-3.145,-3.1441,-4.1016,-4.0616,-3.9766,-3.9424,-3.9424,-3.9424,-3.9424,-3.9424,0.0,0.0,0.0,-3.8337,-3.7991,-3.761,-3.7134,-3.6679,-3.6312,-3.5804,-3.5386,-3.499,-3.4494,-3.405,-3.3628,-3.3471,-3.324,-3.3081,-3.3081,-3.3081,-3.3081,-3.3081,-3.3081,-3.3081,-3.3081,-3.3081,-3.3081,-3.3081,-3.3081,-3.3081,-3.3081,-3.3081,-3.3081,-3.3068,-3.3068,-3.3068,-3.281,-3.255,-3.23,-3.1937,-3.1484,-3.1128,-3.0578,-3.0125,-2.9943,-2.9209,-2.8757,-2.8477,-2.781,-2.7541,-2.7708,-2.7489,-2.7532,-2.8028,-2.8202,-2.8144,-2.7803,-2.8096,-2.8301,-2.8301,-2.8301,-2.8301,-2.8301,-2.8301,-2.8467,-2.8877,-2.8984,-2.9209,-2.9639,-3.0295,-3.0695,-3.0849,-3.1327,-3.1672,-3.1767,-3.2217,-3.2581,-3.2571,-3.2924,-3.3275,-3.3388,-3.3829,-3.4278,-3.4076,-3.3851,-3.3625,-3.3512,-3.3512,-3.3399,-3.3285,-3.3275,-3.3048,-3.283,-3.2913,-3.283,-3.2038,-3.2109,-3.2099,-3.1797,-3.1331,-3.106,-3.1189,-3.1208,-3.1112,-3.0995,-3.1112,-3.1102,-4.144,-4.0631,-3.9751,-3.9424,-3.9424,-3.9424,-3.9424,-3.9424,-3.9192,-3.9031,-3.8782,-3.8337,-3.7976,-3.7534,-3.6978,-3.6508,-3.6031,-3.5494,-3.4908,0.0,-3.3966,-3.3641,-3.3386,-3.324,-3.3154,-3.3081,-3.3081,-3.3081,-3.3081,-3.3081,-3.3081,-3.3081,-3.3081,-3.3081,-3.3081,-3.3081,-3.3081,-3.3081,-3.3081,-3.3081,-3.3081,-3.2896,-3.2711,-3.2723,-3.255,-3.2213,-3.1837,-3.1749,-3.1306,-3.0397,-3.0216,-2.984,-2.9024,-2.8839,-2.8384,-2.7652,-2.772,-2.7667,-2.7259,-2.7652,-2.7999,-2.8251,-2.8262,-2.8262,-2.8213,-2.8252,-2.8301,-2.8301,-2.8301,-2.8301,-2.8301,-2.8301,-2.8467,-2.8887,-2.9258,-2.9639,-3.0059,-3.0498,-3.0888,-3.0888,-3.1179,-3.1325,-3.1441,-3.1672,-3.1903,-3.1903,-3.2133,-3.2143,-3.2363,-3.3048,-3.3625,-3.3625,-3.3625,-3.3388,-3.2924,-3.281,-3.2696,-3.2133,-3.2133,-3.2133,-3.2018,-3.2048,-3.2058,-3.1797,-3.1496,-3.1351,-3.1295,-3.1149,-3.0907,-3.0986,-3.0995,-3.1005,-3.0898,-3.1005,-3.1005,-4.1654,-4.095,-3.9843,-3.9424,-3.9424,-3.9424,-3.9352,-3.9192,-3.9017,-3.887,-3.8723,-3.8127,-3.7701,-3.7394,-3.685,-3.6284,-3.579,-3.5331,-3.4825,-3.4397,-3.3894,-3.3543,-3.3386,-3.324,-3.3081,-3.3081,-3.3081,-3.3081,-3.3081,-3.3081,-3.3081,-3.3081,-3.3081,-3.3081,-3.3081,-3.3081,-3.2982,-3.2884,-3.2982,-3.3081,-3.2896,-3.2723,-3.2636,-3.255,-3.2201,-3.1937,-3.1661,-3.1306,-3.0847,-3.0216,-2.9852,-2.9393,-2.885,-2.8384,-2.7914,-2.7367,-2.7385,-2.7448,-2.7282,-2.7821,-2.8192,-2.8271,-2.8301,-2.8301,-2.8301,-2.8301,-2.8301,-2.8301,-2.8301,-2.8301,-2.8301,-2.8301,-2.8545,-2.9209,-2.9453,-2.9844,-3.0459,-3.0742,-3.0889,-3.0889,-3.1005,-3.1112,-3.1112,-3.1325,-3.1556,-3.1556,-3.1682,-3.1787,-3.1787,-3.2248,-3.2592,-3.2592,-3.2592,-3.2477,-3.2238,-3.2238,-3.2123,-3.1787,-3.1787,-3.1672,-3.1566,-3.1702,-3.1616,-3.1354,-3.1043,-3.0927,-3.1102,-3.0966,-3.0976,-3.0879,-3.0898,-3.0898,-3.0898,-3.0898,-3.0898,-4.1534,-4.104,-3.9918,-3.9424,-3.9424,-3.9424,-3.9265,-3.9104,-3.8855,-3.8708,-3.856,-3.7915,-3.7457,-3.7148,-3.6615,-3.6058,-3.5642,-3.5236,-3.4743,-3.4217,-3.3894,-3.3556,-3.3313,-3.3154,-3.3081,-3.3081,-3.3081,-3.3081,-3.3081,-3.3081,-3.3081,-3.3081,-3.3081,-3.3081,-3.3081,-3.3081,-3.2896,-3.2723,-3.281,-3.281,-3.2636,-3.255,-3.2463,-3.2213,-3.1849,-3.1572,-3.1484,-3.0836,-3.0397,-3.0034,-2.9405,-2.8943,-2.8664,-2.7914,-2.7494,-2.7236,-2.7148,-2.7332,-2.7564,-2.8006,-2.8301,-2.8301,-2.8301,-2.8301,-2.8301,-2.8301,-2.8301,-2.8301,-2.8301,-2.8301,-2.8301,-2.8301,-2.8633,-2.9443,-2.958,-2.9932,-3.0723,-3.0898,-3.0898,-3.0898,-3.0898,-3.0898,-3.0889,-3.1112,-3.1218,-3.1218,-3.145,-3.1566,-3.1566,-3.1566,-3.1566,-3.1672,-3.1682,-3.1797,-3.1672,-3.1672,-3.1672,-3.1682,-3.1566,-3.145,-3.1344,-3.1394,-3.1414,-3.1015,-3.0889,-3.0889,-3.0889,-3.0889,-3.0889,-3.0898,-3.0898,-3.0898,-3.0898,-3.0898,-3.0898,-4.087,-4.0382,-3.9723,-3.9424,-3.9424,-3.9424,-3.9265,-3.9104,-3.887,-3.856,-3.8202,-3.7763,-3.738,-3.6978,-3.635,-3.5804,-3.5399,-3.5003,-3.441,-3.3797,-3.3713,-3.3471,-3.3154,-3.3081,-3.3081,-3.3081,-3.3081,-3.3081,-3.3081,-3.3081,-3.3081,-3.3081,-3.3081,-3.3081,-3.3081,-3.2884,-3.2723,-3.2711,-3.2562,-3.2487,-3.2388,-3.2201,-3.195,-3.1749,-3.1484,-3.1116,-3.0758,-3.0397,-3.0034,-2.9577,-2.9128,-2.8571,-2.8092,-2.7631,-2.7246,-2.7148,-2.7292,-2.7594,-2.8163,-2.8242,-2.8301,-2.8301,-2.8301,-2.8301,-2.8301,-2.8301,-2.8301,-2.8301,-2.8301,-2.8301,-2.8301,-2.8301,-2.8633,-2.9385,-2.9551,-2.9912,-3.0664,-3.0898,-3.0898,-3.0898,-3.0898,-3.0898,-3.0889,-3.1005,-3.1005,-3.1005,-3.1005,-3.1122,-3.1122,-3.1122,-3.1122,-3.1112,-3.145,-3.1556,-3.145,-3.1325,-3.1334,-3.1112,-3.1005,-3.1005,-3.1005,-3.1005,-3.0898,-3.1015,-3.0898,-3.0898,-3.0889,-3.0898,-3.0889,-3.0772,-3.0782,-3.0898,-3.0898,-3.0889,-3.0772,-4.0779,-4.0337,-3.9694,-3.9424,-3.9424,-3.9424,-3.9177,-3.8929,-3.887,-3.8427,-3.7839,-3.7687,-3.7317,-3.6822,-3.627,-3.5723,-3.5236,-3.4743,-3.423,-3.3713,-3.3556,-3.3398,-3.3167,-3.3081,-3.3081,-3.3081,-3.3081,-3.3081,-3.3081,-3.3081,-3.3081,-3.3081,-3.3081,-3.2995,-3.2896,-3.2711,-3.255,-3.2288,-3.2113,-3.1937,-3.1749,-3.1761,-3.1661,-3.1395,-3.0937,-3.0578,-3.0397,-3.0034,-2.9577,-2.9117,-2.8757,-2.829,-2.782,-2.7357,-2.7084,-2.714,-2.7409,-2.7761,-2.8252,-2.8301,-2.8301,-2.8301,-2.8301,-2.8301,-2.8301,-2.8301,-2.8301,-2.8301,-2.8291,-2.8301,-2.8301,-2.8301,-2.8535,-2.9092,-2.9404,-2.9814,-3.04,-3.0723,-3.0898,-3.0898,-3.0898,-3.0898,-3.0898,-3.0898,-3.0898,-3.0898,-3.0898,-3.0889,-3.0898,-3.0898,-3.0898,-3.0889,-3.1112,-3.1228,-3.1112,-3.1102,-3.0995,-3.0889,-3.0898,-3.0898,-3.0889,-3.0898,-3.0898,-3.0898,-3.0898,-3.0772,-3.0626,-3.047,-3.0334,-3.0382,-3.0732,-3.0761,-3.043,-3.0294,-3.0294,-4.0507,-4.0053,-3.9619,-3.9424,-3.9424,-3.9424,-3.9177,-3.8782,-3.8782,-3.8337,-3.761,-3.7548,-3.7226,-3.6601,-3.6111,-3.5629,-3.5072,-3.4564,-3.4063,-3.3713,-3.3471,-3.3326,-3.3167,-3.3081,-3.3081,-3.3081,-3.3081,-3.3081,-3.3081,-3.3081,-3.3081,-3.3081,-3.2995,-3.2896,-3.2711,-3.2636,-3.2288,-3.1937,-3.1661,-3.1395,-3.1205,-3.1217,-3.1205,-3.0949,-3.0487,-3.0125,-2.9852,-2.9497,-2.9117,-2.8653,-2.8395,-2.8019,-2.7536,-2.7081,-2.6845,-2.7122,-2.7442,-2.7851,-2.8262,-2.8301,-2.8301,-2.8301,-2.8301,-2.8301,-2.8301,-2.8301,-2.8301,-2.8301,-2.8291,-2.8184,-2.8301,-2.8301,-2.8476,-2.8768,-2.9118,-2.9449,-2.9754,-3.0199,-3.0451,-3.0471,-3.0432,-3.0655,-3.0655,-3.0645,-3.0538,-3.0538,-3.0645,-3.0645,-3.0645,-3.0645,-3.0655,-3.082,-3.0801,-3.0645,-3.0889,-3.0762,-3.0762,-3.0762,-3.0645,-3.0528,-3.0645,-3.0645,-3.0645,-3.0411,-3.0674,-3.0674,-3.0274,-2.9982,-2.9818,-2.9912,-3.0243,-3.0418,-3.0068,-2.9785,-2.9785,-3.9828,-3.9469,-3.9439,-3.9424,-3.9424,-3.9424,-3.9192,-3.8782,-3.8782,-3.8352,-3.7625,-3.7394,-3.7007,-3.6391,-3.5884,-3.548,-3.5086,-3.441,-3.3979,-3.3713,-3.3484,-3.3326,-3.3081,-3.3081,-3.3081,-3.3081,-3.3081,-3.3081,-3.3081,-3.3081,-3.3081,-3.3081,-3.2896,-3.2711,-3.2624,-3.2288,-3.195,-3.1673,-3.1395,-3.1128,-3.0668,-3.0385,-3.0306,-3.0216,-3.0216,-2.9852,-2.922,-2.8943,-2.8664,-2.8395,-2.7914,-2.7547,-2.7251,-2.6794,-2.6703,-2.6986,-2.7402,-2.7851,-2.8213,-2.8301,-2.8301,-2.8301,-2.8301,-2.8301,-2.8301,-2.8291,-2.8291,-2.8301,-2.8067,-2.796,-2.8184,-2.8184,-2.8242,-2.8391,-2.8516,-2.8646,-2.8766,-2.9174,-2.9393,-2.9479,-2.9716,-2.9887,-2.9982,-2.9922,-2.9954,-2.9944,-2.9874,-2.9963,-2.9906,-2.9963,-3.0128,-3.0547,-3.0411,-3.0138,-3.0616,-3.0635,-3.0392,-3.0392,-3.0274,-3.0039,-2.9922,-2.9922,-2.9912,-3.0058,-3.0488,-3.0478,-2.9931,-2.9639,-2.9493,-2.953,-2.9714,-2.9842,-2.9459,-2.922,-2.9356,-3.9798,-3.9409,-3.9424,-3.9424,-3.9424,-3.9424,-3.9192,-3.8782,-3.8782,-3.8352,-3.7687,-3.738,-3.6993,-3.6391,-3.5804,-3.5399,-3.5003,-3.423,-3.381,-3.3628,-3.3386,-3.3154,-3.3081,-3.3081,-3.3081,-3.3081,-3.3081,-3.3081,-3.3081,-3.3081,-3.3081,-3.3081,-3.281,-3.2636,-3.2463,-3.2025,-3.1673,-3.1395,-3.0949,-3.0487,-3.0306,-2.976,-2.9485,-2.9312,-2.9301,-2.9209,-2.8943,-2.856,-2.8102,-2.7736,-2.7547,-2.7262,-2.6805,-2.6661,-2.6775,-2.6973,-2.7432,-2.7851,-2.8223,-2.8301,-2.8301,-2.8301,-2.8301,-2.8291,-2.8291,-2.8174,-2.8067,-2.797,-2.7755,-2.7647,-2.7647,-2.7755,-2.7704,-2.7758,-2.8015,-2.8214,-2.8414,-2.8625,-2.888,-2.8909,-2.9041,-2.9117,-2.9059,-2.9126,-2.9126,-2.9117,-2.9126,-2.9145,-2.9136,-2.9126,-2.9346,-2.9891,-2.9585,-2.9089,-2.888,-2.9707,-3.0039,-3.0039,-2.9922,-2.9893,-2.9766,-2.97,-2.9681,-2.9526,-3.0001,-3.0001,-2.939,-2.8901,-2.8783,-2.8701,-2.8893,-2.9102,-2.8755,-2.8355,-2.8573,-3.9625,-3.9424,-3.9424,-3.9424,-3.9424,-3.9424,-3.9192,-3.8782,-3.8782,-3.8352,-3.7687,-3.7303,-3.6915,-3.6312,-3.5656,-3.5236,-3.499,-3.4134,-3.3713,-3.3628,-3.3326,-3.3081,-3.3081,-3.3081,-3.3081,-3.3081,-3.3081,-3.3081,-3.3081,-3.3081,-3.3068,-3.2982,-3.2723,-3.2463,-3.2113,-3.1761,-3.1395,-3.0937,-3.0487,-3.0136,-2.976,-2.9312,-2.885,-2.8571,-2.8466,-2.8384,-2.8373,-2.8008,-2.7631,-2.7262,-2.7061,-2.688,-2.643,-2.6378,-2.6537,-2.6787,-2.7217,-2.7637,-2.8037,-2.8223,-2.8301,-2.8301,-2.8184,-2.8174,-2.8174,-2.7853,-2.7745,-2.7638,-2.7422,-2.7206,-2.7098,-2.6989,-2.6989,-2.7126,-2.746,-2.7519,-2.7427,-2.7651,-2.793,-2.8087,-2.8029,-2.8134,-2.8097,-2.8125,-2.8134,-2.8106,-2.8097,-2.8106,-2.8106,-2.8106,-2.8389,-2.8984,-2.8615,-2.7897,-2.7518,-2.8034,-2.8756,-2.89,-2.9002,-2.9086,-2.9151,-2.9123,-2.9114,-2.9114,-2.9114,-2.9123,-2.8871,-2.8265,-2.8029,-2.7692,-2.8102,-2.8489,-2.7921,-2.716,-2.7449,-3.9424,-3.9424,-3.9424,-3.9424,-3.9424,-3.9352,-3.9177,-3.8855,-3.8782,-3.8277,-3.761,-3.7162,-3.6758,-3.6312,-3.5494,-3.5072,-3.4908,-3.4147,-3.3713,-3.3628,-3.3326,-3.3081,-3.3081,-3.3081,-3.3081,-3.3081,-3.3081,-3.3081,-3.3081,-3.3068,-3.297,-3.2711,-3.2475,-3.2201,-3.1749,-3.1484,-3.0949,-3.0397,-3.0216,-2.9669,-2.8943,-2.8757,-2.8477,-2.7998,-2.782,-2.7631,-2.7631,-2.7441,-2.7167,-2.689,-2.6699,-2.64,-2.61,-2.5859,-2.5947,-2.6406,-2.6797,-2.7207,-2.7666,-2.8037,-2.8223,-2.8184,-2.8077,-2.797,-2.7853,-2.7638,-2.7431,-2.7323,-2.7098,-2.6881,-2.6554,-2.6336,-2.6227,-2.6545,-2.6609,-2.64,-2.6015,-2.6145,-2.6397,-2.6786,-2.6839,-2.6937,-2.6823,-2.6831,-2.6777,-2.6795,-2.6822,-2.6804,-2.6882,-2.6873,-2.7185,-2.7486,-2.7191,-2.6599,-2.6364,-2.6381,-2.7016,-2.7546,-2.7558,-2.7667,-2.7748,-2.7758,-2.7669,-2.7794,-2.8019,-2.8019,-2.7034,-2.6676,-2.6909,-2.6801,-2.7365,-2.7419,-2.681,-2.6199,-2.639,-3.9424,-3.9424,-3.9424,-3.9424,-3.9352,-3.9265,-3.9017,-3.8797,-3.8501,-3.8052,-3.7548,-3.6993,-3.6508,-3.6045,-3.5399,-3.5003,-3.4839,-3.405,-3.3713,-3.3641,-3.3313,-3.3081,-3.3081,-3.3081,-3.3081,-3.3081,-3.3081,-3.3081,-3.3081,-3.2896,-3.2797,-3.2636,-3.23,-3.2025,-3.1661,-3.133,-3.0781,-3.0216,-2.9669,-2.922,-2.8757,-2.829,-2.782,-2.7536,-2.7262,-2.7081,-2.688,-2.6976,-2.6784,-2.64,-2.6294,-2.61,-2.5917,-2.5732,-2.5937,-2.6328,-2.6494,-2.6934,-2.7559,-2.7773,-2.7882,-2.799,-2.795,-2.7745,-2.753,-2.7314,-2.6989,-2.6881,-2.6554,-2.6236,-2.6008,-2.567,-2.567,-2.5898,-2.6008,-2.5789,-2.5357,-2.5343,-2.5327,-2.544,-2.5475,-2.5475,-2.5492,-2.5509,-2.5432,-2.5432,-2.5423,-2.5423,-2.5509,-2.5449,-2.5639,-2.6184,-2.563,-2.531,-2.4989,-2.4927,-2.5448,-2.6031,-2.6285,-2.6487,-2.6434,-2.6452,-2.6487,-2.6522,-2.6858,-2.6478,-2.5524,-2.5383,-2.563,-2.5866,-2.6093,-2.5852,-2.5444,-2.5244,-2.5152,-3.9481,-3.9424,-3.9424,-3.9424,-3.9352,-3.9177,-3.9017,-3.8782,-3.8337,-3.7976,-3.7534,-3.6978,-3.6429,-3.5951,-3.5399,-3.4908,-3.4577,-3.3979,-3.3641,-3.3556,-3.324,-3.3081,-3.3081,-3.3081,-3.3081,-3.3081,-3.3081,-3.3081,-3.3081,-3.281,-3.2636,-3.2562,-3.2113,-3.1761,-3.1407,-3.096,-3.042,-2.9943,-2.9312,-2.8839,-2.8466,-2.782,-2.7357,-2.7177,-2.689,-2.6602,-2.64,-2.6506,-2.6496,-2.6197,-2.6004,-2.582,-2.5732,-2.5742,-2.5859,-2.6094,-2.6318,-2.6641,-2.7026,-2.7201,-2.7398,-2.7419,-2.7409,-2.728,-2.7051,-2.6881,-2.6554,-2.6336,-2.5999,-2.5679,-2.5348,-2.5128,-2.4906,-2.4915,-2.5136,-2.5026,-2.4795,-2.4565,-2.447,-2.4504,-2.4487,-2.4462,-2.4351,-2.4351,-2.4231,-2.4119,-2.4119,-2.4119,-2.4119,-2.4144,-2.4521,-2.4675,-2.4485,-2.3979,-2.3479,-2.3623,-2.4041,-2.4553,-2.5085,-2.5275,-2.5335,-2.5326,-2.5221,-2.5204,-2.5386,-2.4838,-2.3918,-2.4269,-2.4678,-2.4746,-2.4738,-2.4474,-2.4105,-2.3467,-2.3288,-3.9553,-3.9424,-3.9424,-3.9424,-3.9337,-3.9177,-3.8943,-3.8708,-3.8352,-3.7901,-3.7534,-3.69,-3.6429,-3.5951,-3.5318,-3.4825,-3.441,-3.3882,-3.3556,-3.3398,-3.324,-3.3081,-3.3081,-3.3081,-3.3081,-3.3081,-3.3081,-3.3081,-3.3068,-3.281,-3.2562,-3.2388,-3.1937,-3.1484,-3.1062,-3.0499,-3.0034,-2.9485,-2.9035,-2.8571,-2.7998,-2.7536,-2.7167,-2.69,-2.6592,-2.6304,-2.61,-2.61,-2.61,-2.6004,-2.582,-2.5732,-2.5732,-2.5732,-2.5762,-2.5801,-2.6133,-2.6119,-2.6174,-2.6381,-2.655,-2.6625,-2.6536,-2.6435,-2.6408,-2.6182,-2.5898,-2.5679,-2.5348,-2.5008,-2.4795,-2.447,-2.4033,-2.3585,-2.3921,-2.4033,-2.3921,-2.3809,-2.3697,-2.3697,-2.3801,-2.3689,-2.3464,-2.3472,-2.3239,-2.3127,-2.3014,-2.3014,-2.3006,-2.3127,-2.3287,-2.3287,-2.3263,-2.2974,-2.2542,-2.2822,-2.3119,-2.3392,-2.386,-2.4006,-2.4257,-2.424,-2.4232,-2.4086,-2.394,-2.3239,-2.2877,-2.3278,-2.3448,-2.3398,-2.3366,-2.3222,-2.2867,-2.2436,-2.2223,-3.9553,-3.9409,-3.9424,-3.9424,-3.9352,-3.9017,-3.887,-3.8708,-3.8052,-3.7687,-3.7471,-3.6772,-3.6218,-3.571,-3.5318,-3.4743,-3.4243,-3.381,-3.3543,-3.3398,-3.3167,-3.3081,-3.3081,-3.3081,-3.3081,-3.3081,-3.3081,-3.3081,-3.3068,-3.2649,-3.2475,-3.2388,-3.1761,-3.1217,-3.0972,-3.042,-2.9852,-2.9209,-2.8757,-2.829,-2.7726,-2.7272,-2.689,-2.6592,-2.6304,-2.611,-2.582,-2.582,-2.583,-2.583,-2.5732,-2.5732,-2.5732,-2.5732,-2.5635,-2.5664,-2.5644,-2.5759,-2.592,-2.5863,-2.5824,-2.5813,-2.5949,-2.5888,-2.546,-2.5519,-2.5305,-2.5008,-2.4804,-2.4368,-2.3913,-2.3585,-2.3135,-2.2683,-2.2796,-2.3022,-2.2909,-2.2683,-2.2562,-2.2562,-2.2683,-2.257,-2.257,-2.2456,-2.2449,-2.2335,-2.2335,-2.2222,-2.2214,-2.2222,-2.2358,-2.2472,-2.2335,-2.2063,-2.1805,-2.2078,-2.2335,-2.2449,-2.2609,-2.2851,-2.3093,-2.3206,-2.3206,-2.3198,-2.3093,-2.2546,-2.2305,-2.2382,-2.2343,-2.223,-2.2351,-2.2366,-2.2222,-2.1881,-2.1759,-3.9625,-3.9424,-3.9424,-3.9424,-3.9337,-3.8958,-3.8782,-3.8634,-3.7976,-3.761,-3.7394,-3.6786,-3.6138,-3.5723,-3.5236,-3.466,-3.3979,-3.381,-3.3556,-3.3326,-3.3167,-3.3081,-3.3081,-3.3081,-3.3081,-3.3081,-3.3081,-3.3081,-3.2896,-3.2562,-3.23,-3.2038,-3.1496,-3.096,-3.0589,-3.0136,-2.9577,-2.9024,-2.8477,-2.7998,-2.7452,-2.6986,-2.6592,-2.6304,-2.61,-2.583,-2.5732,-2.5732,-2.5732,-2.5732,-2.5732,-2.5732,-2.5732,-2.5547,-2.5538,-2.5538,-2.5235,-2.5261,-2.5225,-2.5102,-2.4996,-2.4948,-2.5154,-2.4897,-2.4667,-2.4659,-2.4657,-2.409,-2.3917,-2.3568,-2.3143,-2.2683,-2.223,-2.1888,-2.1767,-2.1995,-2.2343,-2.223,-2.2108,-2.2108,-2.2108,-2.2002,-2.1888,-2.1774,-2.1653,-2.1531,-2.1303,-2.1303,-2.1303,-2.131,-2.1432,-2.1554,-2.1546,-2.1159,-2.1031,-2.1288,-2.1417,-2.1539,-2.1653,-2.1767,-2.2222,-2.2343,-2.2464,-2.2472,-2.2245,-2.2124,-2.1759,-2.1517,-2.1425,-2.1432,-2.1432,-2.1425,-2.1288,-2.1259,-2.113,-3.9783,-3.9409,-3.9409,-3.9424,-3.9337,-3.8943,-3.8782,-3.8634,-3.7991,-3.761,-3.7471,-3.6772,-3.6218,-3.571,-3.5236,-3.4564,-3.381,-3.3725,-3.3471,-3.324,-3.3081,-3.3081,-3.3081,-3.3081,-3.3081,-3.3081,-3.3081,-3.2995,-3.2723,-3.2475,-3.2125,-3.1761,-3.1241,-3.0781,-3.0306,-2.976,-2.922,-2.8757,-2.8186,-2.7726,-2.7262,-2.6784,-2.64,-2.6197,-2.5917,-2.5732,-2.5732,-2.5732,-2.5732,-2.5732,-2.5732,-2.5635,-2.5635,-2.543,-2.5333,-2.5128,-2.4932,-2.4754,-2.4449,-2.4306,-2.4099,-2.4149,-2.4052,-2.3773,-2.3605,-2.3733,-2.362,-2.2974,-2.2863,-2.2694,-2.2456,-2.1888,-2.1546,-2.1196,-2.0845,-2.1189,-2.1653,-2.1881,-2.1881,-2.1888,-2.1881,-2.1774,-2.1546,-2.1318,-2.0967,-2.096,-2.073,-2.073,-2.073,-2.073,-2.0867,-2.1003,-2.0759,-2.0385,-2.0378,-2.0378,-2.05,-2.0615,-2.073,-2.096,-2.1425,-2.1653,-2.1759,-2.1653,-2.1683,-2.1325,-2.0931,-2.0709,-2.073,-2.0737,-2.0845,-2.0622,-2.0385,-2.0472,-2.0451,-3.9854,-3.9625,-3.9481,-3.9424,-3.9352,-3.8958,-3.8782,-3.8708,-3.8142,-3.7777,-3.7457,-3.6915,-3.627,-3.571,-3.5236,-3.466,-3.3992,-3.381,-3.3471,-3.3167,-3.3081,-3.3081,-3.3081,-3.3081,-3.3081,-3.3081,-3.3081,-3.2982,-3.2723,-3.2475,-3.2113,-3.1673,-3.1151,-3.0703,-3.0125,-2.9497,-2.8954,-2.8488,-2.8008,-2.7441,-2.6986,-2.6699,-2.6304,-2.61,-2.582,-2.5732,-2.5732,-2.5732,-2.5732,-2.5732,-2.5635,-2.5538,-2.544,-2.5333,-2.5137,-2.4932,-2.4529,-2.4233,-2.4134,-2.3746,-2.3373,-2.3094,-2.3134,-2.3143,-2.2595,-2.2503,-2.2476,-2.2124,-2.2057,-2.1803,-2.1427,-2.1167,-2.0802,-2.0558,-2.0472,-2.0486,-2.0622,-2.073,-2.0845,-2.073,-2.073,-2.073,-2.0622,-2.0622,-2.0507,-2.0385,-2.027,-2.027,-2.027,-2.0155,-2.0291,-2.0428,-2.0298,-2.0046,-2.004,-2.004,-2.004,-2.0046,-2.0046,-2.0162,-2.0622,-2.0974,-2.0967,-2.0989,-2.114,-2.0766,-2.0486,-2.0235,-2.0249,-2.0141,-2.0148,-2.0155,-2.004,-2.0019,-1.9897,-3.991,-3.9696,-3.9481,-3.9424,-3.9337,-3.9104,-3.887,-3.8708,-3.8277,-3.7839,-3.7534,-3.6978,-3.635,-3.579,-3.5318,-3.4743,-3.4243,-3.3725,-3.3398,-3.3167,-3.3081,-3.3081,-3.3081,-3.3081,-3.3081,-3.3068,-3.297,-3.281,-3.255,-3.2288,-3.195,-3.1407,-3.096,-3.0408,-2.9852,-2.9312,-2.8746,-2.8196,-2.7736,-2.7262,-2.6794,-2.6496,-2.6207,-2.6014,-2.5723,-2.5732,-2.5732,-2.5732,-2.5635,-2.5538,-2.5538,-2.544,-2.5235,-2.5039,-2.4833,-2.4529,-2.4242,-2.3836,-2.3746,-2.3238,-2.2828,-2.2526,-2.2333,-2.1981,-2.1794,-2.1513,-2.1368,-2.1255,-2.1053,-2.0796,-2.0384,-2.0279,-1.9991,-1.9925,-1.9832,-1.9887,-1.989,-2.0162,-2.027,-2.027,-2.0385,-2.0385,-2.027,-2.0155,-2.004,-2.004,-1.9822,-1.9822,-1.9822,-1.9707,-1.9815,-1.9829,-1.9829,-1.9822,-1.9693,-1.9693,-1.97,-1.97,-1.9707,-1.9707,-1.9938,-2.006,-2.0176,-2.0312,-2.0672,-2.0557,-2.0291,-2.0033,-1.9788,-1.9809,-1.9815,-1.9815,-1.9809,-1.9693,-1.9693,-3.9925,-3.9768,-3.9481,-3.9424,-3.9352,-3.9192,-3.8958,-3.8797,-3.8427,-3.7991,-3.7534,-3.6978,-3.6508,-3.5951,-3.5399,-3.4825,-3.423,-3.381,-3.3398,-3.3167,-3.3081,-3.3081,-3.3081,-3.3081,-3.3081,-3.2982,-3.281,-3.2649,-3.2388,-3.2038,-3.1673,-3.1062,-3.0679,-3.0216,-2.9485,-2.8932,-2.8466,-2.7904,-2.7452,-2.6976,-2.6592,-2.6304,-2.6014,-2.583,-2.5732,-2.5732,-2.5635,-2.5635,-2.5538,-2.5333,-2.5235,-2.5137,-2.5039,-2.4735,-2.4332,-2.4035,-2.3746,-2.3438,-2.3138,-2.2728,-2.2325,-2.2232,-2.1742,-2.113,-2.0909,-2.0763,-2.0483,-2.0309,-2.0067,-1.988,-1.9346,-1.9437,-1.932,-1.9234,-1.9302,-1.9205,-1.9388,-1.9685,-1.9873,-2.0046,-2.0046,-1.9931,-1.9931,-1.9815,-1.9815,-1.9686,-1.9461,-1.9345,-1.9339,-1.9461,-1.9448,-1.9468,-1.9591,-1.9597,-1.9591,-1.955,-1.9557,-1.953,-1.9428,-1.9428,-1.9421,-1.9605,-1.9828,-2.0053,-2.019,-2.0169,-2.0053,-1.97,-1.9577,-1.9366,-1.9482,-1.9591,-1.9475,-1.9482,-1.9468,-3.9996,-3.9925,-3.9553,-3.9424,-3.9352,-3.9177,-3.9017,-3.8782,-3.8575,-3.8142,-3.761,-3.7134,-3.6587,-3.5951,-3.5399,-3.4647,-3.3966,-3.3628,-3.3386,-3.3167,-3.3081,-3.3081,-3.3081,-3.3081,-3.2995,-3.281,-3.2723,-3.2562,-3.23,-3.1937,-3.1496,-3.096,-3.0499,-2.9943,-2.922,-2.8675,-2.8196,-2.7726,-2.7177,-2.6794,-2.6496,-2.6197,-2.6014,-2.5732,-2.5732,-2.5635,-2.5635,-2.544,-2.5333,-2.5235,-2.4843,-2.4538,-2.4332,-2.4233,-2.3935,-2.3737,-2.3138,-2.2828,-2.2526,-2.2131,-2.1623,-2.1224,-2.1019,-2.0704,-2.0315,-1.9836,-1.9613,-1.9462,-1.9234,-1.9059,-1.9002,-1.8933,-1.8802,-1.8773,-1.8682,-1.8715,-1.8776,-1.8843,-1.9104,-1.9503,-1.9496,-1.953,-1.9435,-1.9395,-1.9381,-1.9361,-1.926,-1.9158,-1.9165,-1.9219,-1.9381,-1.9428,-1.9482,-1.9482,-1.9482,-1.9428,-1.9394,-1.9327,-1.932,-1.932,-1.9293,-1.9448,-1.9569,-1.9597,-1.9672,-1.9591,-1.9496,-1.9374,-1.9354,-1.9158,-1.9245,-1.9332,-1.9245,-1.9165,-1.9285,-4.0137,-3.9996,-3.9696,-3.9481,-3.9424,-3.9337,-3.9104,-3.8797,-3.8723,-3.8277,-3.7672,-3.7303,-3.6836,-3.6204,-3.5562,-3.4729,-3.3882,-3.3713,-3.3471,-3.3167,-3.3081,-3.3081,-3.3081,-3.3081,-3.2909,-3.2723,-3.2636,-3.2376,-3.2213,-3.1761,-3.1229,-3.0781,-3.0318,-2.968,-2.9035,-2.8466,-2.7914,-2.7452,-2.6986,-2.6592,-2.6304,-2.6014,-2.583,-2.5732,-2.5635,-2.5645,-2.544,-2.544,-2.5137,-2.4833,-2.4529,-2.4242,-2.3935,-2.3529,-2.3238,-2.3029,-2.2728,-2.2224,-2.1928,-2.153,-2.1121,-2.0719,-2.0506,-2.0094,-1.968,-1.9376,-1.8966,-1.8688,-1.8513,-1.839,-1.8191,-1.8245,-1.8205,-1.8223,-1.8263,-1.833,-1.843,-1.847,-1.8651,-1.8865,-1.8951,-1.8937,-1.8971,-1.8957,-1.8891,-1.8918,-1.8938,-1.8951,-1.8978,-1.9119,-1.9166,-1.9018,-1.9032,-1.9032,-1.9045,-1.9052,-1.9058,-1.9038,-1.9025,-1.9018,-1.9072,-1.9176,-1.9023,-1.903,-1.9018,-1.9151,-1.9025,-1.8824,-1.8885,-1.8938,-1.8918,-1.8918,-1.8945,-1.8985,-1.9085,-4.0331,-4.0011,-3.9783,-3.9553,-3.9424,-3.9424,-3.9177,-3.8855,-3.8782,-3.8337,-3.761,-3.738,-3.6929,-3.6312,-3.5562,-3.4729,-3.3713,-3.3713,-3.3484,-3.3167,-3.3081,-3.3081,-3.3081,-3.3081,-3.2909,-3.2636,-3.2463,-3.2213,-3.1937,-3.1496,-3.1038,-3.0499,-3.0057,-2.9416,-2.8757,-2.8279,-2.7715,-2.7251,-2.6784,-2.639,-2.6014,-2.583,-2.5732,-2.5635,-2.5635,-2.5547,-2.5342,-2.5137,-2.4833,-2.4529,-2.4134,-2.3836,-2.3438,-2.2828,-2.2417,-2.2224,-2.2232,-2.1835,-2.1428,-2.0909,-2.0609,-2.0205,-1.9887,-1.948,-1.9168,-1.8855,-1.8548,-1.8023,-1.7925,-1.7939,-1.7775,-1.7615,-1.7722,-1.7869,-1.7969,-1.8023,-1.8156,-1.821,-1.8183,-1.8297,-1.831,-1.8424,-1.8537,-1.8631,-1.8698,-1.8698,-1.8718,-1.8698,-1.8711,-1.8796,-1.8915,-1.8624,-1.8597,-1.8604,-1.8631,-1.8671,-1.8691,-1.8718,-1.8711,-1.8711,-1.8736,-1.8857,-1.8719,-1.8574,-1.8543,-1.8556,-1.8467,-1.8366,-1.8499,-1.8539,-1.8544,-1.8551,-1.8677,-1.8744,-1.8811,-4.0331,-3.9996,-3.9768,-3.9553,-3.9424,-3.9424,-3.9177,-3.8855,-3.8782,-3.8352,-3.761,-3.738,-3.7007,-3.6298,-3.5494,-3.4647,-3.3966,-3.3713,-3.3484,-3.3167,-3.3167,-3.3081,-3.3081,-3.3081,-3.2822,-3.2562,-3.2388,-3.2113,-3.1673,-3.1241,-3.0781,-3.0227,-2.976,-2.9128,-2.8488,-2.8102,-2.7641,-2.6986,-2.6592,-2.6207,-2.582,-2.5742,-2.5732,-2.5635,-2.5538,-2.5342,-2.5137,-2.4843,-2.444,-2.4134,-2.3935,-2.3438,-2.2837,-2.2636,-2.192,-2.142,-2.113,-2.1027,-2.0822,-2.0506,-1.999,-1.9687,-1.9376,-1.9056,-1.8639,-1.8325,-1.8016,-1.7694,-1.7694,-1.7694,-1.7582,-1.7589,-1.7615,-1.7649,-1.7716,-1.7702,-1.7769,-1.7943,-1.7916,-1.7883,-1.7943,-1.8156,-1.833,-1.8424,-1.851,-1.8497,-1.8484,-1.845,-1.8404,-1.846,-1.8543,-1.8257,-1.8237,-1.8237,-1.823,-1.8263,-1.8194,-1.8357,-1.8247,-1.8247,-1.8283,-1.8196,-1.8265,-1.8198,-1.8158,-1.8064,-1.8041,-1.8077,-1.8066,-1.8143,-1.8257,-1.835,-1.8504,-1.8537,-1.8537,-3.9548,-3.9434,-3.9364,-3.9365,-3.9409,-3.9424,-3.9177,-3.8855,-3.8782,-3.8427,-3.7839,-3.7534,-3.6993,-3.6125,-3.5399,-3.4729,-3.4147,-3.3797,-3.3556,-3.3326,-3.3154,-3.3081,-3.3081,-3.2995,-3.2649,-3.2487,-3.2213,-3.1773,-3.1419,-3.1062,-3.0703,-3.0057,-2.9497,-2.8932,-2.8196,-2.7809,-2.7251,-2.6688,-2.6304,-2.5927,-2.5732,-2.5635,-2.5635,-2.544,-2.5333,-2.5128,-2.4833,-2.4529,-2.4134,-2.3836,-2.3438,-2.2929,-2.2426,-2.192,-2.1326,-2.1019,-2.0403,-2.0197,-2.0205,-1.9894,-1.948,-1.9168,-1.8855,-1.8639,-1.822,-1.7905,-1.7799,-1.7589,-1.7589,-1.7589,-1.7589,-1.7589,-1.7589,-1.7589,-1.7589,-1.7589,-1.7589,-1.7589,-1.7649,-1.7602,-1.7609,-1.7749,-1.7928,-1.7935,-1.7968,-1.8063,-1.8036,-1.8003,-1.7949,-1.8003,-1.7889,-1.7896,-1.7889,-1.7896,-1.7869,-1.7869,-1.7675,-1.7708,-1.76,-1.76,-1.7486,-1.7541,-1.7655,-1.7635,-1.7662,-1.7628,-1.7564,-1.7672,-1.7672,-1.7875,-1.7969,-1.8056,-1.8028,-1.8223,-1.8154,-3.858,-3.8629,-3.8759,-3.8847,-3.8987,-3.8931,-3.8775,-3.8604,-3.8517,-3.834,-3.7962,-3.7534,-3.6822,-3.6031,-3.5399,-3.4825,-3.4397,-3.3882,-3.3628,-3.3386,-3.324,-3.3167,-3.3081,-3.2896,-3.2636,-3.24,-3.2025,-3.1596,-3.1163,-3.0804,-3.042,-2.9783,-2.9312,-2.8653,-2.8092,-2.7536,-2.7071,-2.64,-2.5927,-2.5732,-2.5732,-2.5732,-2.5528,-2.5333,-2.5137,-2.4932,-2.443,-2.4134,-2.3945,-2.3338,-2.2937,-2.2426,-2.192,-2.142,-2.0814,-2.0506,-1.999,-1.9576,-1.9583,-1.9279,-1.9078,-1.8757,-1.8436,-1.8108,-1.7905,-1.7694,-1.7589,-1.7589,-1.7589,-1.7589,-1.7589,-1.7589,-1.7589,-1.7589,-1.7589,-1.7589,-1.7483,-1.7483,-1.7378,-1.716,-1.716,-1.7265,-1.7377,-1.7324,-1.7417,-1.7516,-1.7483,-1.7483,-1.749,-1.7503,-1.7424,-1.7383,-1.739,-1.7397,-1.737,-1.7318,-1.7173,-1.7166,-1.706,-1.708,-1.6945,-1.7051,-1.7158,-1.7119,-1.7093,-1.7025,-1.7028,-1.7251,-1.7378,-1.7377,-1.7443,-1.7477,-1.7516,-1.7635,-1.7734,-3.7437,-3.7628,-3.7943,-3.7978,-3.785,-3.7623,-3.7789,-3.8112,-3.7969,-3.7901,-3.776,-3.7246,-3.6503,-3.5924,-3.5372,-3.4825,-3.4397,-3.3882,-3.3641,-3.3398,-3.324,-3.3081,-3.2982,-3.281,-3.255,-3.2288,-3.1925,-3.1407,-3.0972,-3.051,-3.0045,-2.9497,-2.9035,-2.856,-2.7998,-2.7431,-2.6774,-2.6207,-2.583,-2.5732,-2.5635,-2.5635,-2.5528,-2.5235,-2.5039,-2.4637,-2.4125,-2.3836,-2.3447,-2.2837,-2.2434,-2.203,-2.1318,-2.0917,-2.0506,-1.999,-1.9583,-1.9279,-1.8974,-1.8869,-1.8653,-1.8227,-1.7911,-1.7793,-1.7694,-1.7694,-1.7589,-1.7589,-1.7589,-1.7589,-1.7589,-1.7589,-1.7589,-1.7483,-1.7483,-1.7265,-1.7272,-1.7166,-1.706,-1.6842,-1.6836,-1.6942,-1.6942,-1.7047,-1.7054,-1.7166,-1.7166,-1.716,-1.7054,-1.7067,-1.6836,-1.6855,-1.6861,-1.6861,-1.6855,-1.6836,-1.6842,-1.6736,-1.663,-1.663,-1.6549,-1.6636,-1.6662,-1.653,-1.643,-1.6511,-1.6505,-1.6511,-1.6518,-1.673,-1.6836,-1.7054,-1.7054,-1.7038,-1.7064,-3.7291,-3.7157,-3.7121,-3.7299,-3.7707,-3.7473,-3.7431,-3.743,-3.7334,-3.6996,-3.6718,-3.6372,-3.6031,-3.5644,-3.5373,-3.5003,-3.4743,-3.3979,-3.3725,-3.3484,-3.3326,-3.3081,-3.2822,-3.2649,-3.2388,-3.2113,-3.1661,-3.1217,-3.0769,-3.0227,-2.968,-2.9128,-2.8757,-2.829,-2.7726,-2.7156,-2.6486,-2.6014,-2.5723,-2.5732,-2.5635,-2.5538,-2.5333,-2.5039,-2.4833,-2.444,-2.3945,-2.3429,-2.3029,-2.2535,-2.1928,-2.1318,-2.0814,-2.0403,-1.9998,-1.948,-1.9175,-1.8862,-1.845,-1.8338,-1.8122,-1.7905,-1.7694,-1.7589,-1.7589,-1.7589,-1.7589,-1.7589,-1.7589,-1.7582,-1.7582,-1.7483,-1.7279,-1.7272,-1.7272,-1.7054,-1.6948,-1.6849,-1.6743,-1.6524,-1.6624,-1.673,-1.6723,-1.6723,-1.6836,-1.6842,-1.6842,-1.6842,-1.663,-1.663,-1.6405,-1.6299,-1.6405,-1.6411,-1.6411,-1.6518,-1.6518,-1.6411,-1.6199,-1.6099,-1.5998,-1.6147,-1.616,-1.591,-1.5779,-1.5779,-1.5779,-1.5672,-1.5879,-1.6199,-1.6518,-1.673,-1.6723,-1.6505,-1.6399,-3.727,-3.6954,-3.6631,-3.6776,-3.7126,-3.6955,-3.6888,-3.6862,-3.667,-3.6312,-3.5739,-3.5751,-3.5495,-3.5214,-3.4928,-3.4779,-3.4574,-3.41,-3.3771,-3.3556,-3.3326,-3.2995,-3.2736,-3.2475,-3.2213,-3.1849,-3.1395,-3.0949,-3.0487,-2.9954,-2.9312,-2.8768,-2.8301,-2.7914,-2.7441,-2.6774,-2.611,-2.583,-2.5732,-2.5635,-2.5528,-2.544,-2.5128,-2.4833,-2.4529,-2.4134,-2.3637,-2.3129,-2.2526,-2.2021,-2.142,-2.0814,-2.0403,-1.999,-1.948,-1.9175,-1.8869,-1.8443,-1.8128,-1.7911,-1.7799,-1.7694,-1.7589,-1.7589,-1.7589,-1.7589,-1.7582,-1.7483,-1.7483,-1.7477,-1.7371,-1.716,-1.706,-1.6948,-1.6948,-1.6836,-1.663,-1.653,-1.6318,-1.6205,-1.6205,-1.6092,-1.5986,-1.5986,-1.6199,-1.6211,-1.6217,-1.6105,-1.5885,-1.5885,-1.5992,-1.5879,-1.5879,-1.5986,-1.6092,-1.5986,-1.5779,-1.5779,-1.5565,-1.5464,-1.5482,-1.5517,-1.5517,-1.5267,-1.5143,-1.516,-1.4934,-1.4798,-1.5227,-1.5879,-1.6211,-1.6336,-1.5986,-1.5767,-1.5873,-3.7358,-3.6999,-3.66,-3.6304,-3.6155,-3.5827,-3.6039,-3.6395,-3.6073,-3.5773,-3.5482,-3.5243,-3.4943,-3.4582,-3.4348,-3.4193,-3.4071,-3.3757,-3.3572,-3.35,-3.3148,-3.2907,-3.2723,-3.2475,-3.2125,-3.1673,-3.1217,-3.0679,-3.0216,-2.9497,-2.8954,-2.8395,-2.7914,-2.7441,-2.7262,-2.6486,-2.6014,-2.5732,-2.5732,-2.5528,-2.543,-2.5245,-2.4932,-2.4529,-2.4233,-2.3935,-2.3338,-2.2837,-2.2224,-2.1522,-2.1011,-2.0506,-1.9887,-1.9583,-1.9175,-1.8869,-1.8338,-1.8128,-1.7918,-1.7694,-1.7694,-1.7589,-1.7589,-1.7582,-1.7582,-1.7582,-1.7477,-1.7272,-1.7173,-1.706,-1.6842,-1.6736,-1.6736,-1.663,-1.6518,-1.6411,-1.6105,-1.5998,-1.5891,-1.5678,-1.5357,-1.5035,-1.5035,-1.5137,-1.5351,-1.5464,-1.5583,-1.5476,-1.525,-1.5357,-1.5458,-1.5351,-1.5458,-1.5345,-1.5345,-1.5137,-1.5035,-1.5035,-1.4928,-1.4821,-1.4719,-1.473,-1.4724,-1.4606,-1.4272,-1.4164,-1.3932,-1.3814,-1.4363,-1.4917,-1.5612,-1.5737,-1.538,-1.5024,-1.5013,-3.6457,-3.6401,-3.6162,-3.6107,-3.6117,-3.5816,-3.5804,-3.5723,-3.5407,-3.4986,-3.4568,-3.4453,-3.4315,-3.3991,-3.3752,-3.3607,-3.3502,-3.2862,-3.2726,-3.3104,-3.2685,-3.2536,-3.2414,-3.2326,-3.2013,-3.1484,-3.0949,-3.051,-2.9977,-2.9231,-2.8653,-2.8092,-2.7347,-2.688,-2.6688,-2.6304,-2.6014,-2.5732,-2.5528,-2.5333,-2.5235,-2.4932,-2.4627,-2.4233,-2.4044,-2.3538,-2.2828,-2.2434,-2.1827,-2.1121,-2.0712,-2.0094,-1.948,-1.9175,-1.8764,-1.8443,-1.8016,-1.7911,-1.7799,-1.7582,-1.7589,-1.7589,-1.7582,-1.7477,-1.7378,-1.7384,-1.7173,-1.6955,-1.6849,-1.6736,-1.673,-1.653,-1.6424,-1.6105,-1.5998,-1.5678,-1.547,-1.5357,-1.525,-1.5143,-1.4928,-1.4606,-1.4498,-1.439,-1.4493,-1.46,-1.4719,-1.4934,-1.4928,-1.5035,-1.5143,-1.4922,-1.4815,-1.4708,-1.4493,-1.439,-1.4283,-1.418,-1.418,-1.3964,-1.3964,-1.3959,-1.3851,-1.3743,-1.3398,-1.3058,-1.3171,-1.3181,-1.3295,-1.3748,-1.4423,-1.4866,-1.4509,-1.4261,-1.4024,-3.584,-3.5765,-3.5623,-3.5577,-3.5615,-3.5746,-3.5653,-3.5279,-3.5016,-3.4534,-3.4066,-3.3903,-3.3673,-3.3344,-3.3068,-3.2994,-3.2944,-3.2421,-3.2175,-3.2542,-3.2034,-3.1928,-3.2007,-3.1956,-3.158,-3.1122,-3.0656,-3.0227,-2.9691,-2.9046,-2.829,-2.7536,-2.687,-2.6582,-2.6304,-2.61,-2.582,-2.5635,-2.544,-2.5226,-2.5039,-2.4735,-2.4233,-2.3935,-2.3538,-2.3038,-2.2526,-2.192,-2.142,-2.0814,-2.0205,-1.968,-1.9175,-1.8757,-1.8443,-1.8122,-1.7911,-1.7806,-1.7687,-1.7582,-1.7589,-1.7483,-1.7477,-1.7378,-1.7173,-1.7067,-1.6849,-1.663,-1.6524,-1.6311,-1.6205,-1.6004,-1.5791,-1.5577,-1.5363,-1.5041,-1.4934,-1.4821,-1.4504,-1.4498,-1.4277,-1.4067,-1.3851,-1.3743,-1.3743,-1.3743,-1.3743,-1.4067,-1.4385,-1.439,-1.4498,-1.4283,-1.4169,-1.3954,-1.3851,-1.3743,-1.364,-1.3428,-1.3315,-1.3207,-1.3202,-1.3202,-1.2985,-1.2994,-1.2994,-1.2994,-1.2659,-1.2659,-1.2654,-1.2767,-1.2994,-1.332,-1.3521,-1.3393,-1.3043,-3.5671,-3.5244,-3.4977,-3.4721,-3.4675,-3.5399,-3.5439,-3.4876,-3.492,-3.4549,-3.3911,-3.3536,-3.317,-3.2798,-3.2468,-3.2395,-3.2309,-3.2071,-3.1986,-3.186,-3.1386,-3.1348,-3.1283,-3.1125,-3.0862,-3.0678,-3.0383,-2.975,-2.9429,-2.8571,-2.7736,-2.7071,-2.6592,-2.6304,-2.611,-2.582,-2.5635,-2.5538,-2.5333,-2.503,-2.4735,-2.4341,-2.3935,-2.3538,-2.3038,-2.2627,-2.2021,-2.1522,-2.0917,-2.0308,-1.9791,-1.9279,-1.8757,-1.8331,-1.8122,-1.7911,-1.7694,-1.7694,-1.7589,-1.7483,-1.7378,-1.7166,-1.7179,-1.7179,-1.7067,-1.6743,-1.6418,-1.6211,-1.5998,-1.5684,-1.5476,-1.5256,-1.5035,-1.4821,-1.4713,-1.4498,-1.439,-1.4175,-1.3856,-1.364,-1.3418,-1.3202,-1.3093,-1.2989,-1.2876,-1.2876,-1.2876,-1.2985,-1.3197,-1.3418,-1.3423,-1.3423,-1.3315,-1.331,-1.3098,-1.2989,-1.2876,-1.2663,-1.255,-1.2441,-1.2441,-1.2441,-1.2332,-1.2455,-1.2811,-1.2702,-1.2114,-1.1778,-1.1787,-1.19,-1.2232,-1.2341,-1.2659,-1.2195,-1.1964,-3.4695,-3.4714,-3.4415,-3.4472,-3.4577,-3.4561,-3.4433,-3.4322,-3.4699,-3.4534,-3.3882,-3.3493,-3.3058,-3.266,-3.2125,-3.191,-3.1615,-3.1278,-3.128,-3.1055,-3.0834,-3.0803,-3.0744,-3.0495,-3.0191,-2.9863,-2.9569,-2.915,-2.8685,-2.795,-2.7326,-2.6688,-2.639,-2.61,-2.582,-2.5528,-2.543,-2.5333,-2.5137,-2.4833,-2.444,-2.4044,-2.3546,-2.3038,-2.2636,-2.2123,-2.142,-2.1121,-2.0617,-1.9894,-1.9583,-1.9063,-1.8534,-1.8227,-1.7911,-1.7687,-1.7582,-1.7582,-1.7378,-1.7279,-1.7166,-1.6842,-1.6643,-1.6537,-1.643,-1.6324,-1.5992,-1.5785,-1.5464,-1.5148,-1.4934,-1.4713,-1.439,-1.4175,-1.3964,-1.3851,-1.3635,-1.3418,-1.3098,-1.2989,-1.2767,-1.255,-1.2337,-1.2228,-1.2114,-1.2005,-1.1896,-1.2005,-1.2114,-1.2441,-1.2663,-1.2668,-1.2555,-1.255,-1.2337,-1.2119,-1.201,-1.1896,-1.1787,-1.1787,-1.1678,-1.1678,-1.1787,-1.1796,-1.2032,-1.1686,-1.1105,-1.1109,-1.1131,-1.1358,-1.1586,-1.1691,-1.1682,-1.1223,-1.1101,-3.4191,-3.4197,-3.3925,-3.3779,-3.3702,-3.3645,-3.3487,-3.3391,-3.4153,-3.4155,-3.3525,-3.338,-3.3058,-3.2632,-3.1963,-3.1562,-3.1413,-3.0851,-3.0637,-3.0559,-3.0136,-3.0245,-3.011,-2.988,-2.9533,-2.9176,-2.8854,-2.8466,-2.7894,-2.7374,-2.6783,-2.6225,-2.6068,-2.5897,-2.5635,-2.5333,-2.5235,-2.503,-2.4735,-2.444,-2.4143,-2.3746,-2.3138,-2.2636,-2.2325,-2.1623,-2.0917,-2.0712,-2.0094,-1.9576,-1.9168,-1.8743,-1.822,-1.801,-1.7806,-1.7582,-1.7477,-1.7378,-1.7285,-1.7067,-1.6849,-1.6524,-1.6211,-1.5998,-1.5897,-1.5684,-1.5464,-1.5256,-1.4928,-1.4606,-1.439,-1.4067,-1.3748,-1.3428,-1.3207,-1.3098,-1.2767,-1.255,-1.2441,-1.2332,-1.2114,-1.1896,-1.1678,-1.1459,-1.135,-1.124,-1.1131,-1.0911,-1.124,-1.1678,-1.201,-1.2237,-1.201,-1.1896,-1.1682,-1.1463,-1.1354,-1.124,-1.1135,-1.1021,-1.1021,-1.0911,-1.0916,-1.0916,-1.1029,-1.0684,-1.0343,-1.057,-1.0692,-1.081,-1.0928,-1.0928,-1.092,-1.0574,-1.046,-3.4167,-3.388,-3.345,-3.2944,-3.2354,-3.2737,-3.2571,-3.2105,-3.3269,-3.3456,-3.2925,-3.3125,-3.2919,-3.2439,-3.1869,-3.1508,-3.1211,-3.0672,-3.0228,-3.01,-2.9555,-2.9524,-2.9436,-2.8986,-2.8727,-2.8584,-2.8321,-2.7668,-2.7201,-2.6666,-2.6155,-2.5708,-2.5789,-2.5526,-2.5112,-2.4929,-2.4697,-2.4291,-2.4152,-2.4003,-2.389,-2.3538,-2.3046,-2.2434,-2.1725,-2.1121,-2.0712,-2.0197,-1.9583,-1.916,-1.8743,-1.8325,-1.801,-1.7799,-1.7694,-1.7483,-1.7378,-1.7173,-1.6961,-1.6743,-1.6318,-1.6099,-1.5779,-1.5464,-1.525,-1.5143,-1.4928,-1.4713,-1.439,-1.3851,-1.3527,-1.331,-1.2989,-1.2772,-1.255,-1.2441,-1.2223,-1.1896,-1.1568,-1.1459,-1.124,-1.1021,-1.1021,-1.0802,-1.0692,-1.0582,-1.0472,-1.0253,-1.0363,-1.0911,-1.1249,-1.1581,-1.1358,-1.1131,-1.1017,-1.0802,-1.0802,-1.0696,-1.0476,-1.0366,-1.0366,-1.026,-1.0044,-1.026,-1.0476,-1.0033,-0.9809,-1.0033,-1.0143,-1.0147,-1.0264,-1.0272,-1.0044,-0.9923,-1.0029,-3.425,-3.3848,-3.3256,-3.2664,-3.2206,-3.2205,-3.1895,-3.1382,-3.2149,-3.2407,-3.2254,-3.2393,-3.236,-3.1985,-3.1721,-3.1429,-3.1057,-3.0646,-3.0216,-2.9844,-2.93,-2.8955,-2.8863,-2.8395,-2.8046,-2.7633,-2.7307,-2.6824,-2.6267,-2.5756,-2.5421,-2.5053,-2.4992,-2.4769,-2.4496,-2.4297,-2.3918,-2.3478,-2.319,-2.3347,-2.3377,-2.2985,-2.2426,-2.1928,-2.1326,-2.0806,-2.03,-1.9791,-1.9279,-1.8966,-1.8436,-1.801,-1.7694,-1.7589,-1.7483,-1.7279,-1.7173,-1.6961,-1.6636,-1.6318,-1.5891,-1.5571,-1.525,-1.4821,-1.46,-1.4493,-1.4385,-1.4062,-1.3738,-1.3202,-1.2767,-1.255,-1.2223,-1.2005,-1.1896,-1.1787,-1.1678,-1.124,-1.0802,-1.0692,-1.0472,-1.0363,-1.0366,-1.0257,-1.0147,-1.0036,-1.0036,-0.9926,-0.9926,-1.0147,-1.0374,-1.0598,-1.037,-1.0257,-1.0249,-1.0359,-1.0363,-1.0147,-1.0036,-0.9926,-0.9706,-0.971,-0.971,-0.982,-0.9816,-0.9592,-0.9482,-0.9699,-0.9702,-0.9706,-0.9713,-0.9717,-0.9607,-0.9375,-0.9596,-3.4349,-3.3899,-3.3203,-3.2664,-3.2302,-3.2094,-3.1655,-3.1205,-3.1471,-3.1431,-3.1268,-3.1617,-3.1678,-3.1364,-3.1218,-3.099,-3.0734,-3.0506,-3.0024,-2.9599,-2.93,-2.8895,-2.8431,-2.795,-2.7592,-2.7065,-2.6356,-2.5818,-2.5337,-2.5076,-2.4786,-2.4453,-2.4248,-2.4098,-2.3839,-2.357,-2.3177,-2.2857,-2.233,-2.232,-2.2582,-2.2275,-2.1887,-2.144,-2.0909,-2.0388,-1.9783,-1.9272,-1.8966,-1.8548,-1.801,-1.7793,-1.7582,-1.7477,-1.7378,-1.7173,-1.6961,-1.6649,-1.6217,-1.5785,-1.5464,-1.5035,-1.4713,-1.4277,-1.3635,-1.3527,-1.3413,-1.3088,-1.3088,-1.2659,-1.2223,-1.2005,-1.1678,-1.135,-1.124,-1.1021,-1.0802,-1.0472,-1.0253,-1.0147,-1.0036,-1.0036,-1.0036,-1.0036,-0.9816,-0.9706,-0.9599,-0.9489,-0.9489,-0.9489,-0.9717,-0.9831,-0.9713,-0.9588,-0.9467,-0.9691,-0.9923,-0.9706,-0.9599,-0.9485,-0.9375,-0.9375,-0.9375,-0.9485,-0.9485,-0.9261,-0.9261,-0.9372,-0.9375,-0.9268,-0.9272,-0.9275,-0.9161,-0.9047,-0.9158,-3.4448,-3.3949,-3.3203,-3.2703,-3.2398,-3.2079,-3.1655,-3.1146,-3.1102,-3.0731,-3.0311,-3.0819,-3.086,-3.0665,-3.0586,-3.023,-2.9982,-3.0095,-2.9758,-2.9419,-2.9131,-2.8736,-2.8259,-2.7765,-2.7196,-2.6456,-2.5698,-2.503,-2.4533,-2.4341,-2.4177,-2.3969,-2.3903,-2.3788,-2.3438,-2.3038,-2.2574,-2.2155,-2.1687,-2.1337,-2.1386,-2.1519,-2.123,-2.0865,-2.0389,-1.9892,-1.9391,-1.8902,-1.8478,-1.8122,-1.7799,-1.7589,-1.7371,-1.7272,-1.706,-1.6855,-1.6537,-1.6217,-1.5791,-1.547,-1.4928,-1.4498,-1.4169,-1.363,-1.2985,-1.2659,-1.2436,-1.2219,-1.2219,-1.2005,-1.1678,-1.135,-1.1021,-1.0692,-1.0582,-1.0472,-1.0143,-0.9816,-0.9816,-0.971,-0.9706,-0.9706,-0.9706,-0.9706,-0.9596,-0.9379,-0.9268,-0.9158,-0.9047,-0.9158,-0.9272,-0.9386,-0.9382,-0.9147,-0.9027,-0.914,-0.9485,-0.9375,-0.9268,-0.9158,-0.9047,-0.9158,-0.9158,-0.9047,-0.8937,-0.8933,-0.8933,-0.9044,-0.8937,-0.894,-0.9051,-0.9161,-0.9051,-0.8937,-0.8937,-3.4349,-3.3745,-3.315,-3.2718,-3.2413,-3.2079,-3.1655,-3.1132,-3.094,-3.0582,-3.0107,-2.9757,-2.9716,-2.9886,-2.9939,-2.9737,-2.9559,-2.9674,-2.9479,-2.916,-2.8851,-2.8438,-2.7938,-2.736,-2.6693,-2.5863,-2.5115,-2.4444,-2.41,-2.3854,-2.3467,-2.3163,-2.3065,-2.2824,-2.2466,-2.2124,-2.1726,-2.1287,-2.0761,-2.0348,-1.9987,-2.0119,-2.0232,-1.9862,-1.9376,-1.9152,-1.8789,-1.8461,-1.8219,-1.7934,-1.7582,-1.7358,-1.7166,-1.6955,-1.6743,-1.653,-1.6111,-1.5791,-1.547,-1.4928,-1.439,-1.3954,-1.363,-1.2871,-1.2332,-1.2001,-1.1782,-1.1455,-1.1345,-1.1236,-1.0911,-1.0692,-1.0472,-1.0147,-0.9926,-0.9926,-0.9816,-0.9599,-0.9489,-0.9379,-0.9268,-0.9268,-0.9158,-0.9158,-0.9158,-0.9047,-0.9047,-0.8937,-0.8937,-0.8937,-0.8937,-0.8937,-0.9051,-0.9047,-0.8933,-0.893,-0.9158,-0.9047,-0.9047,-0.8937,-0.8937,-0.8937,-0.8937,-0.8937,-0.8937,-0.8937,-0.8937,-0.8937,-0.8937,-0.8937,-0.8937,-0.8937,-0.8937,-0.8937,-0.8937]},{"header":{"parameterUnit":"m.s-1","parameterCategory":1,"la1":31.0,"la2":29.5877,"lo1":-88.7671,"lo2":-86.6584,"dy":0.0162,"dx":0.0185,"nx":115,"ny":88,"refTime":"2023-06-25T00:00:00:Z","depth":0,"parameterNumber":3,"parameterNumberName":"V-component_of_WINDS"},"data":[0.0,0.0,0.0,0.0,0.0,0.0,0.0,0.0,0.0,0.0,0.0,0.0,0.0,0.0,0.0,0.0,0.0,0.0,0.0,0.0,0.0,0.0,0.0,0.0,0.0,0.0,0.0,0.0,0.0,0.0,0.0,0.0,0.0,0.0,0.0,0.0,0.0,0.0,0.0,0.0,0.0,0.0,0.0,0.0,0.0,0.0,0.0,0.0,0.0,0.0,0.0,0.0,0.0,0.0,0.0,0.0,0.0,0.0,0.0,0.0,0.0,0.0,0.0,0.0,0.0,0.0,0.0,0.0,0.0,0.0,0.0,0.0,0.0,0.0,0.0,0.0,0.0,0.0,0.0,0.0,0.0,0.0,0.0,0.0,0.0,0.0,0.0,0.0,0.0,0.0,0.0,0.0,0.0,0.0,0.0,0.0,0.0,0.0,0.0,0.0,0.0,0.0,0.0,0.0,0.0,0.0,0.0,0.0,0.0,0.0,0.0,0.0,0.0,0.0,0.0,0.0,0.0,0.0,0.0,0.0,0.0,0.0,0.0,0.0,0.0,0.0,0.0,0.0,0.0,0.0,0.0,0.0,0.0,0.0,0.0,0.0,0.0,0.0,0.0,0.0,0.0,0.0,0.0,0.0,0.0,0.0,0.0,0.0,0.0,0.0,0.0,0.0,0.0,0.0,0.0,0.0,0.0,0.0,0.0,0.0,0.0,0.0,0.0,0.0,0.0,0.0,0.0,0.0,0.0,0.0,0.0,0.0,0.0,0.0,0.0,0.0,0.0,0.0,0.0,0.0,0.0,0.0,0.0,0.0,0.0,0.0,0.0,0.0,0.0,0.0,0.0,0.0,0.0,0.0,0.0,0.0,0.0,0.0,0.0,0.0,0.0,0.0,0.0,0.0,0.0,0.0,0.0,0.0,0.0,0.0,0.0,0.0,0.0,0.0,0.0,0.0,0.0,0.0,0.0,0.0,0.0,0.0,0.0,0.0,0.0,0.0,0.0,0.0,0.0,0.0,0.0,0.0,0.0,0.0,0.0,0.0,0.0,0.0,0.0,0.0,0.0,0.0,0.0,0.0,0.0,0.0,0.0,0.0,0.0,0.0,0.0,0.0,0.0,0.0,0.0,0.0,0.0,0.0,0.0,0.0,0.0,0.0,0.0,0.0,0.0,0.0,0.0,0.0,0.0,0.0,0.0,0.0,0.0,0.0,0.0,0.0,0.0,0.0,0.0,0.0,0.0,0.0,0.0,0.0,0.0,0.0,0.0,0.0,0.0,0.0,0.0,0.0,0.0,0.0,0.0,0.0,0.0,0.0,0.0,0.0,0.0,0.0,0.0,0.0,0.0,0.0,0.0,0.0,0.0,0.0,0.0,0.0,0.0,0.0,0.0,0.0,0.0,0.0,0.0,0.0,0.0,0.0,0.0,0.0,0.0,0.0,0.0,0.0,0.0,0.0,0.0,0.0,0.0,0.0,0.0,0.0,0.0,0.0,0.0,0.0,0.0,0.0,0.0,0.0,0.0,0.0,0.0,0.0,0.0,0.0,0.0,0.0,0.0,0.0,0.0,0.0,0.0,0.0,0.0,0.0,0.0,0.0,0.0,0.0,0.0,0.0,0.0,0.0,0.0,0.0,0.0,0.0,0.0,0.0,0.0,0.0,0.0,0.0,0.0,0.0,0.0,0.0,0.0,0.0,0.0,0.0,0.0,0.0,0.0,0.0,0.0,0.0,0.0,0.0,0.0,0.0,0.0,0.0,0.0,0.0,0.0,0.0,0.0,0.0,0.0,0.0,0.0,0.0,0.0,0.0,0.0,0.0,0.0,0.0,0.0,0.0,0.0,0.0,0.0,0.0,0.0,0.0,0.0,0.0,0.0,0.0,0.0,0.0,0.0,0.0,0.0,0.0,0.0,0.0,0.0,0.0,0.0,0.0,0.0,0.0,0.0,0.0,0.0,0.0,0.0,0.0,0.0,0.0,0.0,0.0,0.0,0.0,0.0,0.0,0.0,0.0,0.0,0.0,0.0,0.0,0.0,0.0,0.0,0.0,0.0,0.0,0.0,0.0,0.0,0.0,0.0,0.0,0.0,0.0,0.0,0.0,0.0,0.0,0.0,0.0,0.0,0.0,0.0,0.0,0.0,0.0,0.0,0.0,0.0,0.0,0.0,0.0,0.0,0.0,0.0,0.0,0.0,0.0,0.0,0.0,0.0,0.0,0.0,0.0,0.0,0.0,0.0,0.0,0.0,0.0,0.0,0.0,0.0,0.0,0.0,0.0,0.0,0.0,0.0,0.0,0.0,0.0,0.0,0.0,0.0,0.0,0.0,0.0,0.0,0.0,0.0,0.0,0.0,0.0,0.0,0.0,0.0,0.0,0.0,0.0,0.0,0.0,0.0,0.0,0.0,0.0,0.0,0.0,0.0,0.0,0.0,0.0,0.0,0.0,0.0,0.0,0.0,0.0,0.0,0.0,0.0,0.0,0.0,0.0,0.0,0.0,0.0,0.0,0.0,0.0,0.0,0.0,0.0,0.0,0.0,0.0,0.0,0.0,0.0,0.0,0.0,0.0,0.0,0.0,0.0,0.0,0.0,0.0,0.0,0.0,0.0,0.0,0.0,0.0,0.0,0.0,0.0,0.0,0.0,0.0,0.0,0.0,0.0,0.0,0.0,0.0,0.0,0.0,0.0,0.0,0.0,0.0,0.0,0.0,0.0,0.0,0.0,0.0,0.0,0.0,0.0,0.0,0.0,0.0,0.0,0.0,0.0,0.0,0.0,0.0,0.0,0.0,0.0,0.0,0.0,0.0,0.0,0.0,0.0,0.0,0.0,0.0,0.0,0.0,0.0,0.0,0.0,0.0,0.0,0.0,0.0,0.0,0.0,0.0,0.0,0.0,0.0,0.0,0.0,0.0,0.0,0.0,0.0,0.0,0.0,0.0,0.0,0.0,0.0,0.0,0.0,0.0,0.0,0.0,0.0,0.0,0.0,0.0,0.0,0.0,0.0,0.0,0.0,0.0,0.0,0.0,0.0,0.0,0.0,0.0,0.0,0.0,0.0,0.0,0.0,0.0,0.0,0.0,0.0,0.0,0.0,0.0,0.0,0.0,0.0,0.0,0.0,0.0,0.0,0.0,0.0,0.0,0.0,0.0,0.0,0.0,0.0,0.0,0.0,0.0,0.0,0.0,0.0,0.0,0.0,0.0,0.0,0.0,0.0,0.0,0.0,0.0,0.0,0.0,0.0,0.0,0.0,0.0,0.0,0.0,0.0,0.0,0.0,0.0,0.0,0.0,0.0,0.0,0.0,0.0,0.0,0.0,0.0,0.0,0.0,0.0,0.0,0.0,0.0,0.0,0.0,0.0,0.0,0.0,0.0,0.0,0.0,0.0,0.0,0.0,0.0,0.0,0.0,0.0,0.0,0.0,0.0,0.0,0.0,0.0,0.0,0.0,0.0,0.0,0.0,0.0,0.0,0.0,0.0,0.0,0.0,0.0,0.0,0.0,0.0,0.0,0.0,0.0,0.0,0.0,0.0,0.0,0.0,0.0,0.0,0.0,0.0,0.0,0.0,0.0,0.0,0.0,0.0,0.0,0.0,0.0,0.0,0.0,0.0,0.0,0.0,0.0,0.0,0.0,0.0,0.0,0.0,0.0,0.0,0.0,0.0,0.0,0.0,0.0,0.0,0.0,0.0,0.0,0.0,0.0,0.0,0.0,0.0,0.0,0.0,0.0,0.0,0.0,0.0,0.0,0.0,0.0,0.0,0.0,0.0,0.0,0.0,0.0,0.0,0.0,0.0,0.0,0.0,0.0,0.0,0.0,0.0,0.0,0.0,0.0,0.0,0.0,0.0,0.0,0.0,0.0,0.0,0.0,0.0,0.0,0.0,0.0,0.0,0.0,0.0,0.0,0.0,0.0,0.0,0.0,0.0,0.0,0.0,0.0,0.0,0.0,0.0,0.0,0.0,0.0,0.0,0.0,0.0,0.0,0.0,0.0,0.0,0.0,0.0,0.0,0.0,0.0,0.0,0.0,0.0,0.0,0.0,0.0,0.0,0.0,0.0,0.0,0.0,0.0,0.0,0.0,0.0,0.0,0.0,0.0,0.0,0.0,0.0,0.0,0.0,0.0,0.0,0.0,0.0,0.0,0.0,0.0,0.0,0.0,0.0,0.0,0.0,0.0,0.0,0.0,0.0,0.0,0.0,0.0,0.0,0.0,0.0,0.0,0.0,0.0,0.0,0.0,0.0,0.0,0.0,0.0,-3.3797,0.0,0.0,0.0,0.0,0.0,0.0,0.0,0.0,0.0,0.0,0.0,0.0,0.0,0.0,0.0,0.0,0.0,0.0,0.0,0.0,0.0,0.0,0.0,0.0,0.0,0.0,0.0,0.0,0.0,0.0,0.0,0.0,0.0,0.0,0.0,0.0,0.0,0.0,0.0,0.0,0.0,0.0,0.0,0.0,0.0,0.0,0.0,0.0,0.0,0.0,0.0,0.0,0.0,0.0,0.0,0.0,0.0,0.0,0.0,0.0,0.0,0.0,0.0,0.0,0.0,0.0,0.0,0.0,0.0,0.0,0.0,0.0,0.0,0.0,0.0,0.0,0.0,0.0,0.0,0.0,0.0,0.0,0.0,0.0,0.0,0.0,0.0,0.0,0.0,0.0,0.0,0.0,0.0,0.0,0.0,0.0,0.0,0.0,0.0,0.0,0.0,0.0,0.0,0.0,0.0,0.0,0.0,0.0,0.0,0.0,-3.5103,-3.4855,-3.4466,-3.3975,-3.3396,0.0,0.0,0.0,0.0,0.0,0.0,0.0,0.0,0.0,0.0,0.0,0.0,0.0,0.0,0.0,0.0,0.0,0.0,0.0,0.0,0.0,0.0,0.0,0.0,0.0,0.0,0.0,0.0,0.0,0.0,0.0,0.0,0.0,0.0,0.0,0.0,0.0,0.0,0.0,0.0,0.0,0.0,0.0,0.0,0.0,0.0,0.0,0.0,0.0,0.0,0.0,0.0,0.0,0.0,0.0,0.0,0.0,0.0,0.0,0.0,0.0,0.0,0.0,0.0,0.0,0.0,0.0,0.0,0.0,0.0,0.0,0.0,0.0,0.0,0.0,0.0,0.0,0.0,0.0,0.0,0.0,0.0,0.0,0.0,0.0,0.0,0.0,0.0,0.0,0.0,0.0,0.0,0.0,0.0,0.0,0.0,0.0,0.0,0.0,0.0,0.0,0.0,0.0,0.0,0.0,0.0,0.0,0.0,0.0,0.0,0.0,0.0,-3.3725,-3.3502,-3.2808,0.0,0.0,0.0,0.0,0.0,0.0,0.0,0.0,0.0,0.0,0.0,0.0,0.0,0.0,0.0,0.0,0.0,0.0,0.0,0.0,0.0,0.0,0.0,0.0,0.0,0.0,0.0,0.0,0.0,0.0,0.0,0.0,0.0,0.0,0.0,0.0,0.0,0.0,0.0,0.0,0.0,0.0,0.0,0.0,0.0,0.0,0.0,0.0,0.0,0.0,0.0,0.0,0.0,0.0,0.0,0.0,0.0,0.0,0.0,0.0,0.0,0.0,0.0,0.0,0.0,0.0,0.0,0.0,0.0,0.0,0.0,0.0,0.0,0.0,0.0,0.0,0.0,0.0,0.0,0.0,0.0,0.0,0.0,0.0,0.0,0.0,0.0,0.0,0.0,0.0,0.0,0.0,0.0,0.0,0.0,0.0,0.0,0.0,0.0,0.0,0.0,0.0,0.0,0.0,0.0,0.0,0.0,0.0,0.0,0.0,-3.3458,-3.2599,-3.2711,0.0,-3.1644,0.0,0.0,0.0,0.0,0.0,0.0,0.0,0.0,0.0,0.0,0.0,0.0,0.0,0.0,0.0,0.0,0.0,0.0,0.0,0.0,0.0,0.0,0.0,0.0,0.0,0.0,0.0,0.0,0.0,0.0,0.0,0.0,0.0,0.0,0.0,0.0,0.0,0.0,0.0,0.0,0.0,0.0,0.0,0.0,0.0,0.0,0.0,0.0,0.0,0.0,0.0,0.0,0.0,0.0,0.0,0.0,0.0,0.0,0.0,0.0,0.0,0.0,0.0,0.0,0.0,0.0,0.0,0.0,0.0,0.0,0.0,0.0,0.0,0.0,0.0,0.0,0.0,0.0,0.0,0.0,0.0,0.0,0.0,0.0,0.0,0.0,0.0,0.0,0.0,0.0,0.0,0.0,0.0,0.0,0.0,0.0,0.0,0.0,0.0,0.0,0.0,0.0,0.0,0.0,0.0,0.0,0.0,0.0,0.0,0.0,-3.2513,-3.1737,-3.1825,-3.1416,0.0,0.0,0.0,0.0,0.0,0.0,0.0,0.0,0.0,0.0,0.0,0.0,0.0,0.0,0.0,0.0,0.0,0.0,0.0,0.0,0.0,0.0,0.0,0.0,0.0,0.0,0.0,0.0,0.0,0.0,0.0,0.0,0.0,0.0,0.0,0.0,0.0,0.0,0.0,0.0,0.0,0.0,0.0,0.0,0.0,0.0,0.0,0.0,0.0,0.0,0.0,0.0,0.0,0.0,0.0,0.0,0.0,0.0,0.0,0.0,0.0,0.0,0.0,0.0,0.0,0.0,0.0,0.0,0.0,0.0,0.0,0.0,0.0,0.0,0.0,0.0,0.0,0.0,0.0,0.0,0.0,0.0,0.0,0.0,0.0,0.0,0.0,0.0,0.0,0.0,0.0,0.0,0.0,0.0,0.0,0.0,0.0,0.0,0.0,0.0,0.0,0.0,0.0,0.0,0.0,0.0,0.0,0.0,0.0,0.0,-3.2251,-3.1637,-3.1026,-3.1026,-3.069,-3.0048,0.0,0.0,0.0,0.0,0.0,0.0,0.0,0.0,0.0,0.0,0.0,0.0,0.0,0.0,0.0,0.0,0.0,0.0,0.0,0.0,0.0,0.0,0.0,0.0,0.0,0.0,0.0,0.0,0.0,0.0,0.0,0.0,0.0,0.0,0.0,0.0,0.0,0.0,0.0,0.0,0.0,0.0,0.0,0.0,0.0,0.0,0.0,0.0,0.0,0.0,0.0,0.0,0.0,0.0,0.0,0.0,0.0,0.0,0.0,0.0,0.0,0.0,0.0,0.0,0.0,0.0,0.0,0.0,0.0,0.0,0.0,0.0,0.0,0.0,0.0,0.0,0.0,0.0,0.0,0.0,0.0,0.0,0.0,0.0,0.0,0.0,0.0,0.0,0.0,0.0,0.0,0.0,0.0,0.0,0.0,0.0,0.0,0.0,0.0,0.0,0.0,0.0,0.0,0.0,0.0,0.0,0.0,0.0,-3.2064,-3.1371,-3.0769,-3.0306,-3.0216,-3.0244,0.0,0.0,0.0,0.0,0.0,0.0,0.0,0.0,0.0,0.0,0.0,0.0,0.0,0.0,0.0,0.0,0.0,0.0,0.0,0.0,0.0,0.0,0.0,0.0,0.0,0.0,0.0,0.0,0.0,0.0,0.0,0.0,0.0,0.0,0.0,0.0,0.0,0.0,0.0,0.0,0.0,0.0,0.0,0.0,0.0,0.0,0.0,0.0,0.0,0.0,0.0,0.0,0.0,0.0,0.0,0.0,0.0,0.0,0.0,0.0,0.0,0.0,0.0,0.0,0.0,0.0,0.0,0.0,0.0,0.0,0.0,0.0,0.0,0.0,0.0,0.0,0.0,0.0,0.0,0.0,0.0,0.0,0.0,0.0,0.0,0.0,0.0,0.0,0.0,0.0,0.0,0.0,0.0,0.0,0.0,0.0,0.0,0.0,0.0,0.0,0.0,0.0,0.0,0.0,0.0,0.0,0.0,0.0,0.0,-3.1282,-3.0306,-2.976,-2.976,-2.9577,-2.9523,0.0,0.0,0.0,0.0,0.0,0.0,0.0,0.0,0.0,0.0,0.0,0.0,0.0,0.0,0.0,0.0,0.0,0.0,0.0,0.0,0.0,0.0,0.0,0.0,0.0,0.0,0.0,0.0,0.0,0.0,0.0,0.0,0.0,0.0,0.0,0.0,0.0,0.0,0.0,0.0,0.0,0.0,0.0,0.0,0.0,0.0,0.0,0.0,0.0,0.0,0.0,0.0,0.0,0.0,0.0,0.0,0.0,0.0,0.0,0.0,0.0,0.0,0.0,0.0,0.0,0.0,0.0,0.0,0.0,0.0,0.0,0.0,0.0,0.0,0.0,0.0,0.0,0.0,0.0,0.0,0.0,0.0,0.0,0.0,0.0,0.0,0.0,0.0,0.0,0.0,0.0,0.0,0.0,0.0,0.0,0.0,0.0,0.0,0.0,0.0,0.0,0.0,0.0,0.0,0.0,0.0,0.0,0.0,0.0,-3.0216,0.0,-2.9024,-2.9013,-2.9035,-2.9065,0.0,0.0,0.0,0.0,0.0,0.0,0.0,0.0,0.0,0.0,0.0,0.0,0.0,0.0,0.0,0.0,0.0,0.0,0.0,0.0,0.0,0.0,0.0,0.0,0.0,0.0,0.0,0.0,0.0,0.0,0.0,0.0,0.0,0.0,0.0,0.0,0.0,0.0,0.0,0.0,0.0,0.0,0.0,0.0,0.0,0.0,0.0,0.0,0.0,0.0,0.0,0.0,0.0,0.0,0.0,0.0,0.0,0.0,0.0,0.0,0.0,0.0,0.0,0.0,0.0,0.0,0.0,0.0,0.0,0.0,0.0,0.0,0.0,0.0,0.0,0.0,0.0,0.0,0.0,0.0,0.0,0.0,0.0,0.0,0.0,0.0,0.0,0.0,0.0,0.0,0.0,0.0,0.0,0.0,0.0,0.0,0.0,0.0,0.0,0.0,0.0,0.0,0.0,0.0,0.0,0.0,0.0,0.0,-3.0633,-2.8943,-2.8861,-2.856,-2.8092,-2.856,-2.8839,0.0,0.0,0.0,0.0,0.0,0.0,0.0,0.0,0.0,0.0,0.0,0.0,0.0,0.0,0.0,0.0,0.0,0.0,0.0,0.0,0.0,0.0,0.0,0.0,0.0,0.0,0.0,0.0,0.0,0.0,0.0,0.0,0.0,0.0,0.0,0.0,0.0,0.0,0.0,0.0,0.0,0.0,0.0,0.0,0.0,0.0,0.0,0.0,0.0,0.0,0.0,0.0,0.0,0.0,0.0,0.0,0.0,0.0,0.0,0.0,0.0,0.0,0.0,0.0,0.0,0.0,0.0,0.0,0.0,0.0,0.0,0.0,0.0,0.0,0.0,0.0,0.0,0.0,0.0,0.0,0.0,0.0,0.0,0.0,0.0,0.0,0.0,0.0,0.0,0.0,0.0,0.0,0.0,0.0,0.0,0.0,0.0,0.0,0.0,0.0,0.0,0.0,0.0,0.0,0.0,0.0,0.0,0.0,0.0,-2.885,-2.829,-2.7998,-2.7987,-2.8186,-2.8408,0.0,0.0,0.0,0.0,0.0,0.0,0.0,0.0,0.0,0.0,0.0,0.0,0.0,0.0,0.0,0.0,0.0,0.0,0.0,0.0,0.0,0.0,0.0,0.0,0.0,0.0,0.0,0.0,0.0,0.0,0.0,0.0,0.0,0.0,0.0,0.0,0.0,0.0,0.0,0.0,0.0,0.0,0.0,0.0,0.0,0.0,0.0,0.0,0.0,0.0,0.0,0.0,0.0,0.0,0.0,0.0,0.0,0.0,0.0,0.0,0.0,0.0,0.0,0.0,0.0,0.0,0.0,0.0,0.0,0.0,0.0,0.0,0.0,0.0,0.0,0.0,0.0,0.0,0.0,0.0,0.0,0.0,0.0,0.0,0.0,0.0,0.0,0.0,0.0,0.0,0.0,0.0,0.0,0.0,0.0,0.0,0.0,0.0,0.0,0.0,0.0,0.0,0.0,0.0,0.0,0.0,0.0,0.0,0.0,-2.8477,-2.7914,-2.7631,-2.7715,-2.7904,-2.8054,-2.8228,0.0,0.0,0.0,0.0,0.0,0.0,0.0,0.0,0.0,0.0,0.0,0.0,0.0,0.0,0.0,0.0,0.0,0.0,0.0,0.0,0.0,0.0,0.0,0.0,0.0,0.0,0.0,0.0,0.0,0.0,0.0,0.0,0.0,0.0,0.0,0.0,0.0,0.0,0.0,0.0,0.0,0.0,0.0,0.0,0.0,0.0,0.0,0.0,0.0,0.0,0.0,0.0,0.0,0.0,0.0,0.0,0.0,0.0,0.0,0.0,0.0,0.0,0.0,0.0,0.0,0.0,0.0,0.0,0.0,0.0,0.0,0.0,0.0,0.0,0.0,0.0,0.0,0.0,0.0,0.0,0.0,0.0,0.0,0.0,0.0,0.0,0.0,0.0,0.0,0.0,0.0,0.0,0.0,0.0,0.0,0.0,0.0,0.0,0.0,0.0,0.0,0.0,0.0,0.0,0.0,0.0,0.0,0.0,-2.7987,-2.7715,-2.7452,-2.7347,-2.7726,-2.7961,0.0,0.0,0.0,0.0,0.0,0.0,0.0,0.0,0.0,0.0,0.0,0.0,0.0,0.0,0.0,0.0,0.0,0.0,0.0,0.0,0.0,0.0,0.0,0.0,0.0,0.0,0.0,0.0,0.0,0.0,0.0,0.0,0.0,0.0,0.0,0.0,0.0,0.0,0.0,0.0,0.0,0.0,0.0,0.0,0.0,0.0,0.0,0.0,0.0,0.0,0.0,0.0,0.0,0.0,0.0,0.0,0.0,0.0,0.0,0.0,0.0,0.0,0.0,0.0,0.0,0.0,0.0,0.0,0.0,0.0,0.0,0.0,0.0,0.0,0.0,0.0,0.0,0.0,0.0,0.0,0.0,0.0,0.0,0.0,0.0,0.0,0.0,0.0,0.0,0.0,0.0,0.0,0.0,0.0,0.0,0.0,0.0,0.0,0.0,0.0,0.0,0.0,0.0,0.0,0.0,0.0,0.0,0.0,0.0,-2.7998,-2.7631,-2.7357,-2.7357,-2.7715,-2.7961,0.0,0.0,0.0,0.0,0.0,0.0,0.0,0.0,0.0,0.0,0.0,0.0,0.0,0.0,0.0,0.0,0.0,0.0,0.0,0.0,0.0,0.0,0.0,0.0,0.0,0.0,0.0,0.0,0.0,0.0,0.0,0.0,0.0,0.0,0.0,0.0,0.0,0.0,0.0,0.0,0.0,0.0,0.0,0.0,0.0,0.0,0.0,0.0,0.0,0.0,0.0,0.0,0.0,0.0,0.0,0.0,0.0,0.0,0.0,0.0,0.0,0.0,0.0,0.0,0.0,0.0,0.0,0.0,0.0,0.0,0.0,0.0,0.0,0.0,0.0,0.0,0.0,0.0,0.0,0.0,0.0,0.0,0.0,0.0,0.0,0.0,0.0,0.0,0.0,0.0,0.0,0.0,0.0,0.0,0.0,0.0,0.0,0.0,0.0,0.0,0.0,0.0,0.0,0.0,0.0,0.0,0.0,0.0,-2.8571,-2.7987,-2.7536,-2.7357,-2.7441,-2.782,-2.7961,0.0,0.0,0.0,0.0,0.0,0.0,0.0,0.0,0.0,0.0,0.0,0.0,0.0,0.0,0.0,0.0,0.0,0.0,0.0,0.0,0.0,0.0,0.0,0.0,0.0,0.0,0.0,0.0,0.0,0.0,0.0,0.0,0.0,0.0,0.0,0.0,0.0,0.0,0.0,0.0,0.0,0.0,0.0,0.0,0.0,0.0,0.0,0.0,0.0,0.0,0.0,0.0,0.0,0.0,0.0,0.0,0.0,0.0,0.0,0.0,0.0,0.0,0.0,0.0,0.0,0.0,0.0,0.0,0.0,0.0,0.0,0.0,0.0,0.0,0.0,0.0,0.0,0.0,0.0,0.0,0.0,0.0,0.0,0.0,0.0,0.0,0.0,0.0,0.0,0.0,0.0,0.0,0.0,0.0,0.0,0.0,0.0,0.0,0.0,0.0,0.0,0.0,0.0,0.0,0.0,0.0,0.0,0.0,-2.8571,-2.8092,-2.762,-2.7441,-2.7641,-2.7904,-2.8086,0.0,0.0,0.0,0.0,0.0,0.0,0.0,0.0,0.0,0.0,0.0,0.0,0.0,0.0,0.0,0.0,0.0,0.0,0.0,0.0,0.0,0.0,0.0,0.0,0.0,0.0,0.0,0.0,0.0,0.0,0.0,0.0,0.0,0.0,0.0,0.0,0.0,0.0,0.0,0.0,0.0,0.0,0.0,0.0,0.0,0.0,0.0,0.0,0.0,0.0,0.0,0.0,0.0,0.0,0.0,0.0,0.0,0.0,0.0,0.0,0.0,0.0,0.0,0.0,0.0,0.0,0.0,0.0,0.0,0.0,0.0,0.0,0.0,0.0,0.0,0.0,0.0,0.0,0.0,0.0,0.0,0.0,0.0,0.0,0.0,0.0,0.0,0.0,0.0,0.0,0.0,0.0,0.0,0.0,0.0,0.0,0.0,0.0,0.0,0.0,0.0,0.0,0.0,0.0,0.0,0.0,0.0,0.0,-2.8839,-2.829,-2.7998,-2.7904,-2.7904,-2.7998,-2.8226,0.0,0.0,0.0,0.0,0.0,0.0,0.0,0.0,0.0,0.0,0.0,0.0,0.0,0.0,0.0,0.0,0.0,0.0,0.0,0.0,0.0,0.0,0.0,0.0,0.0,0.0,0.0,0.0,0.0,0.0,0.0,0.0,0.0,0.0,0.0,0.0,0.0,0.0,0.0,0.0,0.0,0.0,0.0,0.0,0.0,0.0,0.0,0.0,-3.4484,0.0,0.0,0.0,0.0,0.0,0.0,0.0,0.0,0.0,0.0,0.0,0.0,0.0,0.0,0.0,0.0,0.0,0.0,0.0,0.0,0.0,0.0,0.0,0.0,0.0,0.0,0.0,0.0,0.0,0.0,0.0,0.0,0.0,0.0,0.0,0.0,0.0,0.0,0.0,0.0,0.0,0.0,0.0,0.0,0.0,0.0,0.0,0.0,0.0,0.0,0.0,0.0,0.0,0.0,0.0,0.0,0.0,0.0,0.0,-2.8954,-2.8571,-2.8186,-2.8081,-2.8373,-2.8373,-2.8653,0.0,0.0,0.0,0.0,0.0,0.0,0.0,0.0,0.0,0.0,0.0,0.0,0.0,0.0,0.0,0.0,0.0,0.0,0.0,0.0,0.0,0.0,0.0,0.0,0.0,0.0,0.0,0.0,0.0,0.0,0.0,0.0,0.0,0.0,0.0,0.0,0.0,0.0,0.0,0.0,0.0,0.0,0.0,0.0,0.0,0.0,0.0,0.0,0.0,0.0,0.0,0.0,0.0,0.0,0.0,0.0,0.0,0.0,0.0,0.0,0.0,0.0,0.0,0.0,0.0,0.0,0.0,0.0,0.0,0.0,0.0,0.0,0.0,0.0,0.0,0.0,0.0,0.0,0.0,0.0,0.0,0.0,0.0,0.0,0.0,0.0,0.0,0.0,0.0,0.0,0.0,0.0,0.0,0.0,0.0,0.0,0.0,0.0,0.0,0.0,0.0,0.0,0.0,0.0,0.0,0.0,0.0,-2.9577,-2.9128,-2.8932,-2.8466,-2.8466,-2.8943,-2.8943,-2.9209,-2.9658,0.0,0.0,0.0,0.0,0.0,0.0,0.0,0.0,0.0,0.0,0.0,0.0,0.0,0.0,0.0,0.0,0.0,0.0,0.0,0.0,0.0,0.0,0.0,0.0,0.0,0.0,0.0,0.0,0.0,0.0,0.0,0.0,0.0,0.0,0.0,0.0,0.0,0.0,-3.3762,-3.3726,0.0,0.0,0.0,0.0,0.0,0.0,0.0,0.0,-3.4178,0.0,0.0,0.0,0.0,0.0,0.0,0.0,0.0,0.0,0.0,0.0,0.0,0.0,0.0,0.0,0.0,0.0,0.0,0.0,0.0,0.0,0.0,0.0,0.0,0.0,0.0,0.0,0.0,0.0,0.0,0.0,0.0,0.0,0.0,0.0,0.0,0.0,0.0,0.0,0.0,0.0,0.0,0.0,0.0,0.0,0.0,0.0,0.0,0.0,0.0,0.0,0.0,0.0,0.0,0.0,0.0,-3.0566,-3.0216,-2.9852,-2.9393,-2.9301,-2.9301,-2.9393,-2.976,-3.0216,-3.0633,0.0,0.0,0.0,0.0,0.0,0.0,0.0,0.0,0.0,0.0,0.0,0.0,0.0,0.0,0.0,0.0,0.0,0.0,0.0,0.0,0.0,0.0,0.0,0.0,0.0,0.0,0.0,0.0,0.0,0.0,0.0,0.0,0.0,0.0,0.0,0.0,0.0,0.0,0.0,-3.4324,-3.421,0.0,0.0,0.0,0.0,0.0,0.0,0.0,0.0,-3.4371,0.0,0.0,0.0,0.0,0.0,0.0,0.0,0.0,0.0,0.0,0.0,0.0,0.0,0.0,0.0,0.0,0.0,0.0,0.0,0.0,0.0,0.0,0.0,0.0,0.0,0.0,0.0,0.0,0.0,0.0,0.0,0.0,0.0,0.0,0.0,0.0,0.0,0.0,0.0,0.0,0.0,0.0,0.0,0.0,0.0,0.0,0.0,0.0,0.0,0.0,0.0,0.0,0.0,0.0,0.0,-3.0902,-3.0578,-3.0306,-3.0114,-2.9943,-2.9943,-3.0034,-3.0397,-3.0758,0.0,0.0,0.0,0.0,0.0,0.0,0.0,0.0,0.0,0.0,0.0,0.0,0.0,0.0,0.0,0.0,0.0,0.0,0.0,0.0,0.0,0.0,0.0,0.0,0.0,0.0,0.0,0.0,0.0,0.0,0.0,0.0,0.0,0.0,0.0,0.0,0.0,0.0,0.0,0.0,-3.4291,-3.4147,-3.3894,0.0,0.0,0.0,0.0,0.0,0.0,-3.381,-3.4147,0.0,0.0,0.0,0.0,0.0,0.0,0.0,0.0,0.0,0.0,0.0,0.0,0.0,0.0,0.0,0.0,0.0,0.0,0.0,0.0,0.0,0.0,0.0,0.0,0.0,0.0,0.0,0.0,0.0,0.0,0.0,0.0,0.0,0.0,0.0,0.0,0.0,0.0,0.0,0.0,0.0,0.0,0.0,0.0,0.0,0.0,0.0,0.0,0.0,0.0,0.0,0.0,0.0,0.0,0.0,-3.1383,-3.0937,-3.0758,-3.0679,-3.0487,-3.0487,-3.0758,-3.0937,-3.1383,0.0,0.0,0.0,0.0,0.0,0.0,0.0,0.0,0.0,0.0,0.0,0.0,0.0,0.0,0.0,0.0,0.0,0.0,0.0,0.0,0.0,0.0,0.0,0.0,0.0,0.0,0.0,0.0,0.0,0.0,0.0,0.0,0.0,0.0,0.0,0.0,0.0,0.0,0.0,0.0,0.0,-3.4076,-3.381,-3.3556,0.0,0.0,0.0,0.0,-3.3628,-3.3725,0.0,0.0,0.0,0.0,0.0,0.0,0.0,0.0,0.0,0.0,0.0,0.0,0.0,0.0,0.0,0.0,0.0,0.0,0.0,0.0,0.0,0.0,0.0,0.0,0.0,0.0,0.0,0.0,0.0,0.0,0.0,0.0,0.0,0.0,0.0,0.0,0.0,0.0,0.0,0.0,0.0,0.0,0.0,0.0,0.0,0.0,0.0,0.0,0.0,0.0,0.0,0.0,0.0,0.0,0.0,0.0,-3.1661,-3.1395,-3.1139,-3.0972,-3.1128,-3.1217,-3.1217,-3.1637,-3.2077,0.0,0.0,0.0,0.0,0.0,0.0,0.0,0.0,0.0,0.0,0.0,0.0,0.0,0.0,0.0,0.0,0.0,0.0,0.0,0.0,0.0,0.0,0.0,0.0,0.0,0.0,0.0,0.0,0.0,0.0,0.0,0.0,0.0,0.0,0.0,0.0,0.0,0.0,0.0,0.0,0.0,-3.4327,-3.4076,-3.3654,-3.3424,0.0,0.0,-3.3484,-3.3641,-3.3894,0.0,0.0,0.0,0.0,0.0,0.0,0.0,0.0,0.0,0.0,0.0,0.0,0.0,0.0,0.0,0.0,0.0,0.0,0.0,0.0,0.0,0.0,0.0,0.0,0.0,0.0,0.0,0.0,0.0,0.0,0.0,0.0,0.0,0.0,0.0,0.0,0.0,0.0,0.0,0.0,0.0,0.0,0.0,0.0,0.0,0.0,0.0,0.0,0.0,0.0,0.0,0.0,0.0,0.0,0.0,-3.2288,-3.2113,-3.2038,-3.1849,-3.1785,-3.1849,-3.1937,-3.2101,-3.2438,-3.2797,0.0,0.0,0.0,0.0,0.0,0.0,0.0,0.0,0.0,0.0,0.0,0.0,0.0,0.0,0.0,0.0,0.0,0.0,0.0,0.0,0.0,0.0,0.0,0.0,0.0,0.0,0.0,0.0,0.0,0.0,0.0,0.0,0.0,0.0,0.0,0.0,0.0,0.0,0.0,0.0,0.0,0.0,-3.4314,-3.3992,0.0,0.0,0.0,-3.3628,-3.3901,0.0,0.0,0.0,0.0,0.0,0.0,0.0,0.0,0.0,0.0,0.0,0.0,0.0,0.0,0.0,0.0,0.0,0.0,0.0,0.0,0.0,0.0,0.0,0.0,0.0,0.0,0.0,0.0,0.0,0.0,0.0,0.0,0.0,0.0,0.0,0.0,0.0,0.0,0.0,0.0,0.0,0.0,0.0,0.0,0.0,0.0,0.0,0.0,0.0,0.0,0.0,0.0,0.0,0.0,0.0,0.0,0.0,-3.2475,-3.2475,-3.2475,-3.2475,-3.2562,-3.2723,-3.2884,-3.3154,0.0,0.0,0.0,0.0,0.0,0.0,0.0,0.0,0.0,0.0,0.0,0.0,0.0,0.0,0.0,0.0,0.0,0.0,0.0,0.0,0.0,0.0,0.0,0.0,0.0,0.0,0.0,-4.0729,0.0,0.0,0.0,0.0,0.0,0.0,0.0,0.0,0.0,0.0,0.0,0.0,0.0,0.0,-3.4908,-3.4647,-3.4397,-3.4115,0.0,0.0,-3.394,-3.4158,-3.4332,-3.4647,0.0,0.0,0.0,0.0,0.0,0.0,0.0,0.0,0.0,0.0,0.0,0.0,0.0,0.0,0.0,0.0,0.0,0.0,0.0,0.0,0.0,0.0,0.0,0.0,0.0,0.0,0.0,0.0,0.0,0.0,0.0,0.0,0.0,0.0,0.0,0.0,0.0,0.0,0.0,0.0,0.0,0.0,0.0,0.0,0.0,0.0,0.0,0.0,0.0,0.0,0.0,0.0,0.0,0.0,0.0,-3.2723,-3.2723,-3.2711,-3.2711,-3.3142,-3.3313,-3.3398,-3.3823,-3.416,0.0,0.0,0.0,0.0,0.0,0.0,0.0,0.0,0.0,0.0,0.0,0.0,0.0,0.0,0.0,0.0,0.0,0.0,0.0,0.0,0.0,0.0,0.0,0.0,0.0,0.0,0.0,0.0,0.0,0.0,0.0,0.0,0.0,0.0,0.0,0.0,0.0,0.0,0.0,0.0,0.0,-3.5548,-3.5399,-3.4977,-3.4551,0.0,0.0,-3.4332,-3.4397,-3.4637,-3.5003,-3.5562,0.0,0.0,0.0,0.0,0.0,0.0,0.0,0.0,0.0,0.0,0.0,0.0,0.0,0.0,0.0,0.0,0.0,0.0,0.0,0.0,0.0,0.0,0.0,0.0,0.0,0.0,0.0,0.0,0.0,0.0,0.0,0.0,0.0,0.0,0.0,0.0,0.0,0.0,0.0,0.0,0.0,0.0,0.0,0.0,0.0,0.0,0.0,0.0,0.0,0.0,0.0,0.0,0.0,-3.3313,-3.33,-3.3288,-3.33,-3.33,-3.3654,-3.3907,-3.3979,-3.4494,-3.4812,0.0,0.0,0.0,0.0,0.0,0.0,0.0,0.0,0.0,0.0,0.0,0.0,0.0,0.0,0.0,0.0,0.0,0.0,0.0,0.0,0.0,0.0,0.0,0.0,0.0,0.0,0.0,0.0,-4.1488,-4.0966,-4.0624,0.0,0.0,0.0,0.0,0.0,0.0,0.0,0.0,0.0,0.0,-3.5924,-3.5629,-3.5613,0.0,0.0,-3.5708,-3.5982,-3.5973,-3.6266,-3.6558,-3.6809,-3.7318,0.0,0.0,0.0,0.0,0.0,0.0,0.0,0.0,0.0,0.0,0.0,0.0,0.0,0.0,0.0,0.0,0.0,0.0,0.0,0.0,0.0,0.0,0.0,0.0,0.0,0.0,0.0,0.0,0.0,0.0,0.0,0.0,0.0,0.0,0.0,0.0,0.0,0.0,0.0,0.0,0.0,0.0,0.0,0.0,0.0,0.0,0.0,0.0,0.0,0.0,0.0,0.0,-3.381,-3.381,-3.3966,-3.3966,-3.3953,-3.4314,-3.4577,-3.4729,-3.5154,-3.548,0.0,0.0,0.0,0.0,0.0,0.0,0.0,0.0,0.0,0.0,0.0,0.0,0.0,0.0,0.0,0.0,0.0,0.0,0.0,0.0,0.0,0.0,0.0,0.0,0.0,0.0,0.0,0.0,-4.1472,-4.0898,-4.0401,0.0,0.0,0.0,0.0,0.0,0.0,0.0,0.0,0.0,0.0,-3.6827,-3.6713,-3.6825,-3.692,-3.6646,-3.6936,-3.7222,-3.7144,-3.7524,-3.7727,-3.7908,0.0,0.0,0.0,0.0,0.0,0.0,0.0,0.0,0.0,0.0,0.0,0.0,0.0,0.0,0.0,0.0,0.0,0.0,0.0,0.0,0.0,0.0,0.0,0.0,0.0,0.0,0.0,0.0,0.0,0.0,0.0,0.0,0.0,0.0,0.0,0.0,0.0,0.0,0.0,0.0,0.0,0.0,0.0,0.0,0.0,0.0,0.0,0.0,0.0,0.0,0.0,0.0,0.0,-3.4076,-3.4076,-3.4481,-3.4716,-3.4716,-3.5141,-3.5413,-3.5399,-3.579,-3.6097,-3.6308,0.0,0.0,0.0,0.0,0.0,0.0,0.0,0.0,0.0,0.0,0.0,0.0,0.0,0.0,0.0,0.0,0.0,0.0,0.0,0.0,0.0,0.0,0.0,0.0,0.0,0.0,-4.2109,-4.1488,-4.0966,0.0,0.0,0.0,0.0,0.0,0.0,0.0,0.0,0.0,0.0,-3.8396,-3.8385,-3.8707,-3.8693,-3.8379,-3.7877,-3.7915,-3.7894,-3.796,-3.8095,-3.8325,0.0,0.0,0.0,0.0,0.0,0.0,0.0,0.0,0.0,0.0,0.0,0.0,0.0,0.0,0.0,0.0,0.0,0.0,0.0,0.0,0.0,0.0,0.0,0.0,0.0,0.0,0.0,-3.1562,-3.1835,0.0,0.0,0.0,0.0,0.0,0.0,0.0,0.0,0.0,0.0,0.0,-3.4134,-3.4481,0.0,0.0,0.0,0.0,0.0,0.0,0.0,0.0,0.0,0.0,0.0,0.0,-3.4825,-3.499,-3.5072,-3.5223,-3.5386,-3.5629,-3.5857,-3.6004,-3.6415,-3.6822,-3.712,0.0,0.0,0.0,0.0,0.0,0.0,0.0,0.0,0.0,0.0,0.0,0.0,0.0,0.0,0.0,0.0,0.0,0.0,0.0,0.0,0.0,0.0,0.0,0.0,0.0,-4.2174,0.0,0.0,0.0,0.0,0.0,0.0,0.0,0.0,0.0,0.0,0.0,-3.9876,-3.9721,-3.9592,-3.9441,-3.9145,-3.9403,-3.9478,0.0,0.0,0.0,0.0,0.0,0.0,0.0,0.0,0.0,0.0,0.0,0.0,0.0,0.0,-4.2784,-4.1776,-4.1761,-4.1881,-4.194,0.0,0.0,0.0,0.0,0.0,0.0,0.0,0.0,0.0,0.0,0.0,0.0,0.0,0.0,0.0,0.0,-3.2797,0.0,0.0,0.0,0.0,0.0,0.0,0.0,0.0,-3.4327,-3.4647,-3.4729,-3.5072,-3.5236,0.0,-3.5548,-3.5562,0.0,0.0,0.0,0.0,0.0,0.0,0.0,0.0,-3.548,-3.5629,-3.5804,-3.5965,-3.6031,-3.6363,-3.6494,-3.6624,-3.712,-3.7519,-3.7839,-3.8202,-3.8412,0.0,0.0,0.0,0.0,0.0,0.0,0.0,0.0,0.0,0.0,0.0,0.0,0.0,0.0,0.0,0.0,0.0,0.0,0.0,0.0,0.0,0.0,0.0,-4.2398,0.0,0.0,0.0,0.0,0.0,0.0,0.0,0.0,0.0,-4.0726,-4.0797,-4.0923,-4.0768,-4.0719,-4.0619,-4.0354,0.0,0.0,0.0,0.0,0.0,0.0,0.0,-4.1535,-4.1717,-4.2049,-4.2363,-4.2622,-4.3189,-4.3554,-4.3723,0.0,0.0,-4.2697,-4.2743,-4.2924,-4.2923,-4.3223,-4.355,-4.3572,-4.4138,-4.4658,0.0,0.0,0.0,0.0,0.0,0.0,0.0,0.0,-3.245,-3.2711,0.0,-3.2982,0.0,0.0,0.0,0.0,0.0,0.0,0.0,0.0,-3.4673,-3.5086,-3.5399,-3.548,-3.5642,-3.6031,-3.6031,-3.6204,-3.6391,-3.5965,0.0,0.0,0.0,0.0,0.0,0.0,-3.6031,-3.6031,-3.6522,-3.6744,-3.6744,-3.707,-3.7303,-3.7289,-3.7901,-3.8202,-3.8202,-3.856,-3.887,-3.9104,-3.9104,0.0,0.0,0.0,0.0,0.0,0.0,0.0,0.0,0.0,0.0,0.0,0.0,0.0,0.0,0.0,0.0,0.0,0.0,0.0,0.0,-4.2854,0.0,0.0,0.0,0.0,0.0,0.0,0.0,0.0,0.0,0.0,-4.1776,-4.155,-4.153,-4.175,0.0,0.0,0.0,0.0,-4.2262,-4.2005,-4.2047,-4.2026,-4.2033,-4.2275,-4.2392,-4.2377,0.0,0.0,-4.325,-4.3728,-4.404,-4.4035,-4.4343,-4.4526,-4.4112,-4.4265,-4.4505,-4.4555,-4.4887,-4.5262,-4.5468,-4.5431,-4.5567,-2.9852,0.0,0.0,0.0,0.0,-3.1661,-3.2013,-3.245,-3.2624,-3.281,-3.2995,-3.3081,0.0,0.0,0.0,0.0,0.0,0.0,-3.4494,-3.4908,-3.5236,-3.5548,-3.5871,-3.6191,-3.6429,-3.6508,-3.6744,-3.6993,-3.707,-3.7056,-3.6822,-3.6429,0.0,0.0,0.0,0.0,-3.6822,-3.6915,-3.7056,-3.7226,-3.7303,-3.7457,-3.7687,-3.7901,-3.8427,-3.8634,-3.8649,-3.887,-3.9031,-3.9104,-3.9394,0.0,0.0,0.0,0.0,0.0,0.0,0.0,0.0,0.0,0.0,0.0,0.0,0.0,0.0,0.0,0.0,0.0,0.0,0.0,-4.3834,-4.382,-4.3989,0.0,0.0,0.0,0.0,0.0,0.0,0.0,0.0,0.0,-4.4018,-4.3549,-4.324,0.0,0.0,-4.2802,-4.2805,-4.2688,-4.2592,-4.2511,0.0,0.0,0.0,-4.282,-4.293,-4.3235,-4.3488,-4.3738,-4.3972,-4.4263,-4.4494,-4.4587,-4.4862,-4.5015,-4.5055,-4.4993,-4.5036,-4.5231,-4.541,-4.5735,-4.5848,-4.5992,-4.6136,-3.0589,-3.0859,-3.0937,-3.1306,-3.1849,-3.2013,-3.2363,-3.2723,-3.281,-3.2995,-3.3081,-3.3081,-3.3167,-3.3227,-3.3581,0.0,0.0,0.0,-3.4908,-3.5318,-3.5777,-3.6111,-3.6429,-3.6744,-3.6978,-3.7056,-3.7303,-3.7457,-3.7519,-3.7749,-3.7672,-3.7443,0.0,0.0,-3.7226,-3.7226,-3.7303,-3.7519,-3.7596,-3.7763,-3.7915,-3.8052,-3.8202,-3.8427,-3.8723,-3.8943,-3.8943,-3.909,-3.925,-3.9322,-3.9538,-3.9753,0.0,0.0,0.0,0.0,0.0,0.0,0.0,0.0,0.0,0.0,0.0,-4.2174,-4.2571,0.0,0.0,0.0,-4.3663,-4.4202,-4.49,-4.4887,0.0,0.0,0.0,0.0,0.0,0.0,0.0,-4.6088,-4.5905,-4.5614,-4.5262,-4.4874,-4.4435,-4.3957,-4.3723,-4.3488,-4.3409,0.0,-4.325,-4.325,-4.3205,-4.3254,-4.3394,-4.3394,-4.3488,-4.3786,-4.4112,-4.4343,-4.4511,-4.4726,-4.4909,-4.5086,-4.5313,-4.5524,-4.5719,-4.5722,-4.5746,-4.5728,-4.5905,-4.6207,-4.6404,-4.677,-4.7174,-3.133,-3.1749,-3.1761,-3.1937,-3.2113,-3.2537,-3.2711,-3.2723,-3.2982,-3.3081,-3.3081,-3.3081,-3.3227,-3.3484,-3.3907,0.0,0.0,-3.4908,-3.5318,-3.579,-3.6163,-3.6559,-3.7056,-3.7303,-3.7457,-3.7625,-3.7687,-3.7749,-3.7962,-3.8127,-3.8366,-3.8516,-3.7991,-3.7687,-3.7701,-3.7687,-3.7763,-3.7962,-3.8127,-3.8352,-3.8516,-3.8723,-3.8797,-3.8782,-3.9017,-3.9104,-3.9104,-3.9337,-3.9481,-3.9681,-3.9768,-3.9839,-4.0066,0.0,0.0,0.0,0.0,0.0,0.0,0.0,0.0,0.0,0.0,0.0,0.0,0.0,0.0,0.0,-4.4673,0.0,-4.6157,-4.6005,0.0,0.0,0.0,-4.6733,-4.7186,-4.7098,-4.6892,-4.6652,0.0,0.0,0.0,0.0,-4.5356,-4.4649,-4.4327,-4.4156,-4.4217,-4.4261,-4.423,-4.423,-4.4264,-4.4249,-4.4339,-4.4402,-4.4494,-4.4711,-4.4893,-4.5182,-4.5273,-4.5422,-4.554,-4.5793,-4.5934,-4.6167,-4.6295,-4.6668,-4.677,-4.6509,-4.6619,-4.6867,-4.7151,-4.7846,-4.8409,-3.1673,-3.195,-3.2276,-3.245,-3.255,-3.2636,-3.2822,-3.2982,-3.3081,-3.3081,-3.3081,-3.3081,-3.3313,-3.3628,-3.4147,-3.4494,-3.4756,-3.5318,-3.579,-3.6149,-3.6652,-3.7042,-3.7457,-3.7839,-3.7976,-3.8052,-3.8337,-3.856,-3.856,-3.8634,-3.8634,-3.8723,-3.8575,-3.8501,-3.8501,-3.8501,-3.8575,-3.856,-3.8634,-3.8708,-3.8708,-3.8943,-3.9031,-3.9017,-3.9265,-3.9337,-3.9352,-3.9481,-3.9696,-3.9696,-3.998,-4.0191,-4.0401,-4.0593,0.0,0.0,0.0,0.0,0.0,0.0,0.0,0.0,0.0,-4.2759,-4.319,0.0,-4.444,0.0,-4.5467,-4.6324,-4.7015,-4.7082,0.0,0.0,-4.7719,-4.7605,-4.7555,-4.7454,-4.7267,-4.7098,-4.6839,-4.6824,-4.7173,-4.6932,-4.6829,-4.7186,-4.6204,-4.5603,-4.6175,-4.6111,-4.5953,-4.5986,-4.594,-4.608,-4.6237,-4.6454,-4.6486,-4.6733,-4.6886,-4.7054,-4.734,-4.7474,-4.7548,-4.777,-4.7958,-4.8161,-4.8271,-4.8578,-4.8637,-4.8714,-4.8302,-4.8107,-4.8805,-4.9153,-4.9423,-3.1849,-3.2213,-3.255,-3.2797,-3.2884,-3.2896,-3.2982,-3.3081,-3.3081,-3.3081,-3.3081,-3.3326,-3.3641,-3.405,-3.4397,-3.4825,-3.5236,-3.5629,-3.6097,-3.6638,-3.7042,-3.7457,-3.7915,-3.8217,-3.8352,-3.8486,-3.8708,-3.887,-3.8943,-3.8943,-3.8943,-3.9017,-3.9104,-3.9104,-3.9031,-3.887,-3.887,-3.8943,-3.9017,-3.9104,-3.909,-3.9192,-3.925,-3.9265,-3.9337,-3.9409,-3.9553,-3.9625,-3.9768,-3.998,-4.0261,-4.0455,-4.0593,-4.0987,-4.1256,0.0,0.0,0.0,0.0,0.0,0.0,0.0,0.0,0.0,0.0,0.0,-4.5273,0.0,-4.668,0.0,-4.7955,-4.8023,-4.8128,-4.8322,-4.8244,-4.8179,-4.8081,-4.815,-4.8164,-4.808,-4.807,-4.8204,-4.8414,-4.8176,-4.8198,-4.8813,-4.8108,-4.7431,-4.7262,-4.706,-4.6982,-4.706,-4.7029,-4.7123,-4.7387,-4.7572,-4.7709,-4.7861,-4.7937,-4.8088,-4.8371,-4.8477,-4.8583,-4.8828,-4.8997,-4.9109,-4.9316,-4.9453,-4.9693,-5.0171,-5.0043,-4.9829,-4.9862,-5.0195,-5.0565,-3.2098,-3.2388,-3.2636,-3.2896,-3.3081,-3.3081,-3.3081,-3.3081,-3.3081,-3.3081,-3.3154,-3.3556,-3.3979,-3.4397,-3.4743,-3.5168,-3.5723,-3.6031,-3.6429,-3.7056,-3.7457,-3.7915,-3.8277,-3.8441,-3.8649,-3.887,-3.887,-3.8958,-3.9104,-3.9104,-3.925,-3.9424,-3.9424,-3.9424,-3.9352,-3.9017,-3.8943,-3.9104,-3.9337,-3.9424,-3.9424,-3.9424,-3.9424,-3.9424,-3.9424,-3.9481,-3.9681,-3.9681,-3.991,-4.0261,-4.047,-4.0662,-4.0919,-4.1323,-4.1654,0.0,-4.2302,0.0,0.0,0.0,0.0,0.0,0.0,0.0,0.0,-4.5284,-4.6176,-4.7737,-4.7994,-4.8264,-4.8798,-4.8832,-4.8769,-4.8564,-4.8631,-4.8698,-4.8651,-4.9043,-4.9293,-4.931,-4.95,-4.9616,-4.9589,-4.9463,-4.9507,-4.9934,-4.9823,-4.9297,-4.8365,-4.7979,-4.7949,-4.7961,-4.7961,-4.8211,-4.8393,-4.8513,-4.8663,-4.8706,-4.8904,-4.8955,-4.924,-4.9231,-4.9353,-4.9668,-4.9831,-4.9888,-4.996,-5.0162,-5.0582,-5.133,-5.1572,-5.1356,-5.0888,-5.119,-5.1693,-3.2705,-3.2475,-3.281,-3.3081,-3.3081,-3.3081,-3.3081,-3.3081,-3.3081,-3.3154,-3.3326,-3.3556,-3.3979,-3.4397,-3.4977,-3.5399,-3.571,-3.6508,-3.6978,-3.7226,-3.7825,-3.8202,-3.8441,-3.8811,-3.9031,-3.9017,-3.9192,-3.9337,-3.9337,-3.9352,-3.9337,-3.9424,-3.9424,-3.9424,-3.9424,0.0,0.0,0.0,-3.9337,-3.9424,-3.9424,-3.9424,-3.9424,-3.9424,-3.9424,0.0,-3.9696,-3.9839,-4.0137,-4.0455,-4.0662,0.0,0.0,0.0,0.0,0.0,0.0,0.0,0.0,0.0,0.0,0.0,-4.5527,-4.5965,-4.6012,-4.6747,-4.7669,-4.8635,-4.8798,-4.8849,-4.8923,-4.8956,-4.8894,-4.8786,-4.9261,-4.9533,-4.9404,-4.9975,-5.0409,-5.0409,-5.0224,-5.0334,-5.0777,-5.061,-5.069,-5.1255,-5.1287,-5.0999,-5.0778,-5.0169,-4.9987,-5.0019,-4.9908,-5.0064,-5.0265,-5.0294,-5.0365,-5.0795,-5.0869,-5.0969,-5.1067,-5.119,-5.1165,-5.1319,-5.1458,-5.1602,-5.1718,-5.1931,-5.2091,-5.253,-5.2616,-5.2583,-5.2449,-5.2516,-5.2686,-3.3128,0.0,-3.3021,-3.3081,0.0,-3.3081,-3.3081,-3.3081,-3.3081,-3.3227,-3.3556,-3.3894,-3.4314,-3.4743,-3.5304,-3.5723,-3.6045,-3.6679,-3.7134,-3.7457,-3.7976,-3.8352,-3.8649,-3.8943,-3.9177,-3.9265,-3.9352,-3.9424,-3.9424,-3.9424,-3.9424,-3.9424,-3.9424,-3.9424,-3.9424,-3.9424,-3.9424,-3.9424,-3.9424,-3.9424,-3.9424,-3.9424,-3.9424,-3.9424,0.0,0.0,0.0,0.0,0.0,0.0,0.0,0.0,0.0,0.0,0.0,-4.2571,-4.2883,-4.3415,-4.4004,-4.4594,-4.5367,-4.624,-4.7204,-4.7518,-4.712,-4.7838,-4.8551,-4.8951,-4.9018,-4.9018,-4.9018,-4.9018,-4.9092,-4.9384,-4.9772,-5.0126,-5.0402,-5.0992,-5.1363,-5.143,-5.1513,-5.1675,-5.2008,-5.1706,-5.1625,-5.1987,-5.1778,-5.1647,-5.1647,-5.1167,-5.0864,-5.1048,-5.1108,-5.1258,-5.135,-5.135,-5.1424,-5.1573,-5.1647,-5.1778,-5.198,-5.2006,-5.2145,-5.2247,-5.2407,-5.2511,-5.2607,-5.2667,-5.279,-5.2991,-5.3041,-5.311,-5.3144,-5.3127,-5.311,-3.3362,-3.3481,-3.322,-3.3081,-3.3081,-3.3081,-3.3081,-3.3081,0.0,0.0,0.0,-3.4217,-3.466,-3.5072,-3.5548,-3.6045,-3.647,-3.6915,-3.7289,-3.7687,-3.8142,-3.8486,-3.8855,-3.9017,-3.9265,-3.9424,-3.9424,-3.9424,-3.9424,-3.9424,-3.9424,-3.9424,-3.9424,-3.9424,-3.9424,-3.9424,-3.9424,-3.9424,-3.9424,-3.9424,-3.9424,-3.9409,-3.9409,-3.9409,-3.9625,-3.9839,-4.0066,-4.0331,-4.0662,-4.0935,-4.1323,-4.1654,-4.1785,-4.2302,-4.2634,-4.2821,-4.3443,-4.4075,-4.4776,-4.53,-4.6277,-4.7821,-4.8602,-4.8748,-4.8156,-4.8663,-4.9018,-4.9018,-4.9018,-4.9018,-4.9018,-4.9018,-4.9306,-5.0016,-5.0202,-5.0591,-5.1336,-5.1948,-5.2371,-5.2371,-5.2655,-5.2972,-5.287,-5.2574,-5.2395,-5.2378,-5.2181,-5.198,-5.1908,-5.1598,-5.1301,-5.1483,-5.1631,-5.1778,-5.1851,-5.1851,-5.1924,-5.1997,-5.198,-5.2125,-5.2285,-5.2418,-5.2539,-5.2797,-5.2914,-5.2898,-5.292,-5.2925,-5.2994,-5.3213,-5.3247,-5.3348,-5.3416,-5.3348,-5.3332,-3.3707,-3.3493,-3.3208,-3.3081,-3.3081,-3.3081,-3.3081,-3.3081,-3.3326,-3.3484,-3.3713,-3.4217,-3.4647,-3.5154,-3.571,-3.6191,-3.6665,-3.724,-3.7763,0.0,-3.856,-3.887,-3.909,-3.9265,-3.9337,-3.9424,-3.9424,-3.9424,-3.9424,-3.9424,-3.9424,-3.9424,-3.9424,-3.9424,-3.9424,-3.9424,-3.9424,-3.9424,-3.9424,-3.9424,-3.9424,-3.9553,-3.9681,-3.9696,-3.9839,-4.0137,-4.0385,-4.0455,-4.0799,-4.1456,-4.1588,-4.1835,-4.2429,-4.2555,-4.2883,-4.3405,-4.4147,-4.471,-4.5143,-4.6478,-4.777,-4.8686,-4.8951,-4.8951,-4.8866,-4.8934,-4.9018,-4.9018,-4.9018,-4.9018,-4.9018,-4.9018,-4.9306,-5.0033,-5.0676,-5.1336,-5.2063,-5.2824,-5.323,-5.323,-5.3196,-5.3179,-5.311,-5.2972,-5.2834,-5.2834,-5.2694,-5.2711,-5.2553,-5.2125,-5.1778,-5.1778,-5.1778,-5.1908,-5.2181,-5.2252,-5.2324,-5.2694,-5.2694,-5.2694,-5.2764,-5.2814,-5.2831,-5.292,-5.2941,-5.2959,-5.3128,-5.3146,-5.3264,-5.3399,-5.3416,-5.3433,-5.3518,-5.3433,-5.3433,-3.4033,-3.4058,-3.3432,-3.3081,-3.3081,-3.3081,-3.3167,-3.3326,-3.3471,-3.3641,-3.381,-3.4481,-3.5003,-3.5331,-3.5898,-3.6443,-3.69,-3.7394,-3.7839,-3.8202,-3.8649,-3.8929,-3.909,-3.9265,-3.9424,-3.9424,-3.9424,-3.9424,-3.9424,-3.9424,-3.9424,-3.9424,-3.9424,-3.9424,-3.9424,-3.9424,-3.9481,-3.9538,-3.9481,-3.9424,-3.9553,-3.9696,-3.9768,-3.9839,-4.0121,-4.0331,-4.0524,-4.0799,-4.1122,-4.1588,-4.1851,-4.2174,-4.2571,-4.2883,-4.319,-4.3585,-4.4471,-4.5233,-4.5857,-4.7467,-4.8585,-4.8968,-4.9018,-4.9018,-4.9018,-4.9018,-4.9018,-4.9018,-4.9018,-4.9018,-4.9018,-4.9018,-4.9441,-5.0591,-5.1014,-5.1691,-5.2756,-5.3247,-5.3501,-5.3501,-5.3433,-5.3348,-5.3348,-5.3179,-5.3041,-5.3041,-5.2989,-5.2903,-5.2903,-5.2624,-5.2412,-5.2412,-5.2412,-5.2483,-5.2607,-5.2607,-5.2677,-5.2903,-5.2903,-5.2972,-5.3058,-5.3023,-5.3142,-5.3229,-5.323,-5.3298,-5.3332,-5.3366,-5.3382,-5.3484,-5.3518,-5.3518,-5.3518,-5.3518,-5.3518,-3.4086,-3.4437,-3.3495,-3.3081,-3.3081,-3.3081,-3.324,-3.3398,-3.3628,-3.3797,-3.3966,-3.4743,-3.5236,-3.5562,-3.6138,-3.6693,-3.707,-3.7457,-3.7915,-3.8337,-3.8649,-3.8943,-3.9177,-3.9337,-3.9424,-3.9424,-3.9424,-3.9424,-3.9424,-3.9424,-3.9424,-3.9424,-3.9424,-3.9424,-3.9424,-3.9424,-3.9553,-3.9696,-3.9625,-3.9625,-3.9768,-3.9839,-3.991,-4.0137,-4.0401,-4.0593,-4.0662,-4.1107,-4.1456,-4.172,-4.219,-4.2508,-4.2696,-4.319,-4.3575,-4.4012,-4.4959,-4.5941,-4.7029,-4.8264,-4.9018,-4.9018,-4.9018,-4.9018,-4.9018,-4.9018,-4.9018,-4.9018,-4.9018,-4.9018,-4.9018,-4.9018,-4.9593,-5.0997,-5.1234,-5.1843,-5.3213,-5.3518,-5.3518,-5.3518,-5.3518,-5.3518,-5.3501,-5.3348,-5.3264,-5.3264,-5.3127,-5.3058,-5.3058,-5.3058,-5.3058,-5.2972,-5.2989,-5.292,-5.2972,-5.2972,-5.2972,-5.2989,-5.3058,-5.3127,-5.3212,-5.3296,-5.333,-5.345,-5.3501,-5.3501,-5.3501,-5.3501,-5.3501,-5.3518,-5.3518,-5.3518,-5.3518,-5.3518,-5.3518,-3.3541,-3.3884,-3.3332,-3.3081,-3.3081,-3.3081,-3.324,-3.3398,-3.3641,-3.3966,-3.4397,-3.4908,-3.5318,-3.571,-3.635,-3.6915,-3.7303,-3.7701,-3.8217,-3.8708,-3.8782,-3.9017,-3.9337,-3.9424,-3.9424,-3.9424,-3.9424,-3.9424,-3.9424,-3.9424,-3.9424,-3.9424,-3.9424,-3.9424,-3.9424,-3.9538,-3.9696,-3.9681,-3.9854,-3.994,-3.9996,-4.0121,-4.0347,-4.0455,-4.0662,-4.0919,-4.1189,-4.1456,-4.172,-4.2045,-4.2381,-4.2759,-4.3052,-4.3372,-4.4029,-4.4959,-4.5874,-4.708,-4.8534,-4.8917,-4.9018,-4.9018,-4.9018,-4.9018,-4.9018,-4.9018,-4.9018,-4.9018,-4.9018,-4.9018,-4.9018,-4.9018,-4.9593,-5.0896,-5.1183,-5.1809,-5.3112,-5.3518,-5.3518,-5.3518,-5.3518,-5.3518,-5.3501,-5.3433,-5.3433,-5.3433,-5.3433,-5.3365,-5.3365,-5.3365,-5.3365,-5.3348,-5.3127,-5.3041,-5.3127,-5.3179,-5.3195,-5.3348,-5.3433,-5.3433,-5.3433,-5.3433,-5.3518,-5.345,-5.3518,-5.3518,-5.3501,-5.3518,-5.3501,-5.3568,-5.3585,-5.3518,-5.3518,-5.3501,-5.3568,-3.3467,-3.3847,-3.3307,-3.3081,-3.3081,-3.3081,-3.3313,-3.3543,-3.3641,-3.4147,-3.4825,-3.499,-3.5413,-3.5871,-3.6429,-3.6993,-3.7457,-3.7915,-3.8352,-3.8782,-3.8943,-3.9104,-3.9352,-3.9424,-3.9424,-3.9424,-3.9424,-3.9424,-3.9424,-3.9424,-3.9424,-3.9424,-3.9424,-3.9496,-3.9553,-3.9681,-3.9839,-4.0051,-4.0191,-4.0331,-4.0455,-4.047,-4.0524,-4.073,-4.1055,-4.1323,-4.1456,-4.172,-4.2045,-4.2365,-4.2634,-4.2945,-4.3251,-4.3568,-4.4197,-4.5169,-4.6531,-4.7841,-4.8934,-4.9018,-4.9018,-4.9018,-4.9018,-4.9018,-4.9018,-4.9018,-4.9018,-4.9018,-4.9001,-4.9018,-4.9018,-4.9018,-4.9424,-5.0388,-5.093,-5.164,-5.2655,-5.3213,-5.3518,-5.3518,-5.3518,-5.3518,-5.3518,-5.3518,-5.3518,-5.3518,-5.3518,-5.3501,-5.3518,-5.3518,-5.3518,-5.3501,-5.3348,-5.328,-5.3348,-5.3332,-5.3416,-5.3501,-5.3518,-5.3518,-5.3501,-5.3518,-5.3518,-5.3518,-5.3518,-5.3568,-5.3584,-5.3583,-5.3615,-5.37,-5.3771,-5.3821,-5.3785,-5.3817,-5.3817,-3.3244,-3.3608,-3.3244,-3.3081,-3.3081,-3.3081,-3.3313,-3.3713,-3.3713,-3.4217,-3.5072,-3.5168,-3.548,-3.6125,-3.6587,-3.7056,-3.761,-3.8052,-3.8501,-3.8782,-3.9017,-3.9192,-3.9352,-3.9424,-3.9424,-3.9424,-3.9424,-3.9424,-3.9424,-3.9424,-3.9424,-3.9424,-3.9496,-3.9553,-3.9681,-3.9768,-4.0051,-4.0331,-4.0524,-4.073,-4.0851,-4.0867,-4.0851,-4.107,-4.139,-4.1654,-4.1851,-4.2125,-4.2365,-4.268,-4.2899,-4.3146,-4.3432,-4.3763,-4.4457,-4.5589,-4.7055,-4.824,-4.8951,-4.9018,-4.9018,-4.9018,-4.9018,-4.9018,-4.9018,-4.9018,-4.9018,-4.9018,-4.9001,-4.9063,-4.9018,-4.9018,-4.9323,-5.0079,-5.0689,-5.1265,-5.2058,-5.2838,-5.3279,-5.3313,-5.3515,-5.3635,-5.3635,-5.3618,-5.3702,-5.3702,-5.3618,-5.3618,-5.3618,-5.3618,-5.3635,-5.3653,-5.3619,-5.3618,-5.3501,-5.3551,-5.3551,-5.3551,-5.3618,-5.3685,-5.3618,-5.3618,-5.3618,-5.3751,-5.3669,-5.3669,-5.3783,-5.3813,-5.3792,-5.3963,-5.4003,-5.4039,-5.3966,-5.4011,-5.4011,-3.2686,-3.3119,-3.3093,-3.3081,-3.3081,-3.3081,-3.3326,-3.3713,-3.3713,-3.423,-3.5086,-3.5331,-3.5737,-3.6391,-3.6836,-3.7226,-3.7625,-3.8217,-3.8575,-3.8782,-3.9031,-3.9192,-3.9424,-3.9424,-3.9424,-3.9424,-3.9424,-3.9424,-3.9424,-3.9424,-3.9424,-3.9424,-3.9553,-3.9681,-3.9753,-4.0051,-4.0347,-4.0539,-4.073,-4.0935,-4.1256,-4.144,-4.1522,-4.1588,-4.1588,-4.1851,-4.2318,-4.2508,-4.2696,-4.2899,-4.319,-4.3449,-4.3611,-4.3939,-4.4884,-4.6507,-4.7462,-4.824,-4.8866,-4.9018,-4.9018,-4.9018,-4.9018,-4.9018,-4.9018,-4.9001,-4.9001,-4.9018,-4.9107,-4.9168,-4.9063,-4.9063,-4.9413,-5.0181,-5.0402,-5.089,-5.1629,-5.2362,-5.2755,-5.2908,-5.3335,-5.3642,-5.3813,-5.398,-5.3761,-5.3744,-5.3895,-5.3778,-5.3676,-5.3778,-5.3798,-5.3719,-5.3751,-5.3815,-5.3567,-5.3601,-5.3717,-5.3717,-5.3783,-5.3915,-5.398,-5.398,-5.3963,-5.3949,-5.3887,-5.387,-5.3997,-5.4025,-5.4038,-5.4106,-5.4162,-5.4114,-5.4257,-5.4097,-5.4068,-3.2661,-3.3068,-3.3081,-3.3081,-3.3081,-3.3081,-3.3326,-3.3713,-3.3713,-3.423,-3.499,-3.5318,-3.5723,-3.6391,-3.6915,-3.7303,-3.7701,-3.8352,-3.8723,-3.8855,-3.909,-3.9337,-3.9424,-3.9424,-3.9424,-3.9424,-3.9424,-3.9424,-3.9424,-3.9424,-3.9424,-3.9424,-3.9625,-3.9768,-3.991,-4.0261,-4.0539,-4.073,-4.107,-4.139,-4.1522,-4.1916,-4.2109,-4.2254,-4.2238,-4.2302,-4.2508,-4.2743,-4.3068,-4.3328,-4.3449,-4.3628,-4.3956,-4.4591,-4.5454,-4.6718,-4.7513,-4.824,-4.8883,-4.9018,-4.9018,-4.9018,-4.9018,-4.9001,-4.9001,-4.9046,-4.9107,-4.9185,-4.9307,-4.9367,-4.9367,-4.9307,-4.947,-4.982,-5.0281,-5.0639,-5.0997,-5.164,-5.2101,-5.2152,-5.2392,-5.2528,-5.2694,-5.2545,-5.2545,-5.2528,-5.2545,-5.258,-5.2562,-5.2545,-5.2669,-5.2564,-5.2558,-5.2477,-5.2369,-5.3318,-5.3915,-5.3915,-5.398,-5.3929,-5.3977,-5.3857,-5.3823,-5.3819,-5.3847,-5.3847,-5.3849,-5.4069,-5.4132,-5.4264,-5.4339,-5.4161,-5.4655,-5.4181,-5.4309,-3.281,-3.3081,-3.3081,-3.3081,-3.3081,-3.3081,-3.3326,-3.3713,-3.3713,-3.423,-3.499,-3.5399,-3.5804,-3.647,-3.7084,-3.7457,-3.7687,-3.8412,-3.8782,-3.8855,-3.9192,-3.9424,-3.9424,-3.9424,-3.9424,-3.9424,-3.9424,-3.9424,-3.9424,-3.9424,-3.9409,-3.9481,-3.9696,-3.991,-4.0191,-4.047,-4.073,-4.1055,-4.139,-4.167,-4.1916,-4.2254,-4.2571,-4.2759,-4.2805,-4.2883,-4.2867,-4.3129,-4.3372,-4.3628,-4.373,-4.3864,-4.4205,-4.4781,-4.5503,-4.6397,-4.7141,-4.7868,-4.8562,-4.8883,-4.9018,-4.9018,-4.9063,-4.9046,-4.9046,-4.9229,-4.929,-4.935,-4.9471,-4.959,-4.9649,-4.9708,-4.9708,-4.97,-5.0052,-5.042,-5.0515,-5.1193,-5.1709,-5.2001,-5.2165,-5.2087,-5.2018,-5.2069,-5.2087,-5.2035,-5.2018,-5.2035,-5.2035,-5.2035,-5.2015,-5.2021,-5.2158,-5.2192,-5.2304,-5.3004,-5.3238,-5.3227,-5.3415,-5.357,-5.369,-5.3639,-5.3621,-5.3621,-5.3621,-5.3639,-5.3731,-5.4008,-5.4131,-5.4348,-5.3983,-5.358,-5.3923,-5.4179,-5.4164,-3.3081,-3.3081,-3.3081,-3.3081,-3.3081,-3.3167,-3.3313,-3.3628,-3.3713,-3.4314,-3.5072,-3.5575,-3.5965,-3.647,-3.724,-3.761,-3.7763,-3.8427,-3.8782,-3.8855,-3.9192,-3.9424,-3.9424,-3.9424,-3.9424,-3.9424,-3.9424,-3.9424,-3.9424,-3.9409,-3.9466,-3.9681,-3.9925,-4.0121,-4.0455,-4.0662,-4.107,-4.1456,-4.1588,-4.198,-4.2508,-4.2634,-4.2821,-4.3113,-4.3251,-4.3372,-4.3372,-4.3492,-4.3687,-4.3881,-4.3998,-4.4155,-4.431,-4.4564,-4.4942,-4.5737,-4.6413,-4.7124,-4.7919,-4.8562,-4.8883,-4.9063,-4.9124,-4.9185,-4.9229,-4.935,-4.9488,-4.9547,-4.9649,-4.9767,-4.9942,-5.0057,-5.0114,-4.9924,-5.0045,-5.0178,-5.0511,-5.1037,-5.1807,-5.2288,-5.2392,-5.2584,-5.2642,-5.2375,-5.2271,-5.2306,-5.2358,-5.2323,-5.2195,-5.2178,-5.25,-5.252,-5.2233,-5.1923,-5.2305,-5.2625,-5.2455,-5.2356,-5.2658,-5.2866,-5.3022,-5.3039,-5.3151,-5.3108,-5.3255,-5.3255,-5.3345,-5.3504,-5.3387,-5.3463,-5.3133,-5.3237,-5.348,-5.3717,-5.3514,-3.3081,-3.3081,-3.3081,-3.3081,-3.3167,-3.324,-3.3471,-3.3725,-3.4063,-3.4564,-3.5168,-3.5723,-3.6191,-3.6679,-3.7303,-3.7701,-3.7853,-3.8486,-3.8782,-3.887,-3.9177,-3.9424,-3.9424,-3.9424,-3.9424,-3.9424,-3.9424,-3.9424,-3.9424,-3.9553,-3.961,-3.9768,-4.0066,-4.0261,-4.0524,-4.083,-4.1221,-4.1588,-4.198,-4.2318,-4.2634,-4.2945,-4.3251,-4.3432,-4.3628,-4.3763,-4.3864,-4.3805,-4.3923,-4.4155,-4.4196,-4.431,-4.444,-4.457,-4.4925,-4.5602,-4.5889,-4.665,-4.7733,-4.8105,-4.8538,-4.8972,-4.9152,-4.929,-4.9411,-4.953,-4.9708,-4.9767,-4.9942,-5.0132,-5.0228,-5.038,-5.038,-5.0285,-5.0228,-5.0341,-5.0582,-5.0829,-5.1077,-5.1304,-5.1374,-5.1374,-5.1409,-5.1444,-5.157,-5.157,-5.1553,-5.1553,-5.1444,-5.1605,-5.1424,-5.1389,-5.1406,-5.1608,-5.1808,-5.1968,-5.1888,-5.1926,-5.2148,-5.2265,-5.2445,-5.248,-5.255,-5.2619,-5.2712,-5.2817,-5.2916,-5.2919,-5.2843,-5.3032,-5.3204,-5.3299,-5.3344,-5.3223,-5.3029,-3.2982,-3.3081,-3.3081,-3.3081,-3.3167,-3.3313,-3.3471,-3.3713,-3.4217,-3.4647,-3.5154,-3.571,-3.627,-3.6744,-3.7303,-3.7763,-3.8066,-3.8575,-3.887,-3.8943,-3.9265,-3.9424,-3.9424,-3.9424,-3.9424,-3.9424,-3.9424,-3.9424,-3.9424,-3.9625,-3.9768,-3.9854,-4.0191,-4.047,-4.0746,-4.1086,-4.1488,-4.1785,-4.2254,-4.2555,-4.2805,-4.3251,-4.3568,-4.3704,-4.3881,-4.4056,-4.4155,-4.4114,-4.4097,-4.4253,-4.4367,-4.4497,-4.457,-4.4587,-4.479,-4.5196,-4.5585,-4.6143,-4.7048,-4.7352,-4.7937,-4.8711,-4.8941,-4.9214,-4.9563,-4.9767,-4.9942,-5.0057,-5.0211,-5.0397,-5.0564,-5.0675,-5.0784,-5.0801,-5.0692,-5.0747,-5.0838,-5.0928,-5.1017,-5.1087,-5.1052,-5.0999,-5.1052,-5.1052,-5.1088,-5.114,-5.114,-5.114,-5.114,-5.1193,-5.1122,-5.1157,-5.1334,-5.1422,-5.1223,-5.1243,-5.1264,-5.1475,-5.1718,-5.1821,-5.1944,-5.1926,-5.1999,-5.1964,-5.2049,-5.2075,-5.2182,-5.2343,-5.2324,-5.2767,-5.3051,-5.2786,-5.259,-5.2707,-5.2615,-3.2896,-3.3081,-3.3081,-3.3081,-3.3154,-3.3313,-3.3556,-3.3797,-3.423,-3.4729,-3.5154,-3.579,-3.627,-3.6744,-3.738,-3.7839,-3.8217,-3.8634,-3.8943,-3.9104,-3.9265,-3.9424,-3.9424,-3.9424,-3.9424,-3.9424,-3.9424,-3.9424,-3.9409,-3.9625,-3.9854,-3.9996,-4.0331,-4.0662,-4.1034,-4.1406,-4.172,-4.2109,-4.2445,-4.2759,-4.3113,-4.3432,-4.3687,-4.3898,-4.4039,-4.4212,-4.431,-4.431,-4.431,-4.4367,-4.4497,-4.457,-4.457,-4.457,-4.4621,-4.4688,-4.5263,-4.5699,-4.6028,-4.6629,-4.7408,-4.8282,-4.862,-4.8942,-4.9666,-5.0028,-5.0285,-5.0397,-5.0564,-5.0712,-5.0838,-5.1017,-5.1246,-5.1454,-5.1298,-5.1246,-5.1298,-5.135,-5.1402,-5.1402,-5.1333,-5.1384,-5.1487,-5.1505,-5.1589,-5.164,-5.169,-5.169,-5.1672,-5.164,-5.1696,-5.1696,-5.1643,-5.1601,-5.1535,-5.1562,-5.1622,-5.1627,-5.1757,-5.1776,-5.1723,-5.1688,-5.167,-5.1652,-5.1634,-5.1589,-5.1687,-5.1978,-5.2052,-5.2246,-5.2175,-5.1854,-5.1969,-5.222,-5.2354,-3.2896,-3.3068,-3.3081,-3.3081,-3.3167,-3.3471,-3.3641,-3.3797,-3.4564,-3.499,-3.5249,-3.5978,-3.6536,-3.6978,-3.738,-3.7915,-3.8366,-3.8723,-3.8929,-3.9104,-3.9352,-3.9424,-3.9424,-3.9424,-3.9424,-3.9424,-3.9424,-3.9424,-3.9409,-3.9783,-3.9925,-3.9996,-4.047,-4.0867,-4.1102,-4.1488,-4.1851,-4.2302,-4.2634,-4.2945,-4.3312,-4.3645,-4.3881,-4.4039,-4.4212,-4.4327,-4.4497,-4.4497,-4.4514,-4.4514,-4.457,-4.457,-4.457,-4.457,-4.4626,-4.4677,-4.4868,-4.5297,-4.5813,-4.6181,-4.6828,-4.7791,-4.8294,-4.8946,-4.9434,-5.0084,-5.0477,-5.0712,-5.0855,-5.1088,-5.1281,-5.1454,-5.1658,-5.1858,-5.1808,-5.1708,-5.1758,-5.1858,-5.1889,-5.1889,-5.1858,-5.1907,-5.1907,-5.1956,-5.1938,-5.1987,-5.1987,-5.2036,-5.2018,-5.2036,-5.2041,-5.1992,-5.1987,-5.1976,-5.2,-5.2012,-5.1987,-5.1938,-5.1996,-5.1933,-5.1869,-5.1818,-5.1818,-5.18,-5.1869,-5.1853,-5.1915,-5.2095,-5.2005,-5.2054,-5.2023,-5.2059,-5.2036,-5.218,-5.2209,-3.281,-3.3081,-3.3081,-3.3081,-3.3154,-3.3569,-3.3713,-3.3882,-3.4647,-3.5072,-3.5331,-3.5992,-3.6615,-3.6993,-3.7457,-3.7991,-3.8575,-3.8723,-3.8943,-3.9192,-3.9352,-3.9424,-3.9424,-3.9424,-3.9424,-3.9424,-3.9424,-3.9424,-3.9553,-3.9854,-4.0066,-4.0277,-4.0677,-4.1086,-4.1339,-4.167,-4.2045,-4.2429,-4.2821,-4.3113,-4.3509,-4.3822,-4.4039,-4.4212,-4.431,-4.4514,-4.457,-4.457,-4.457,-4.457,-4.457,-4.457,-4.457,-4.4699,-4.4682,-4.4682,-4.4831,-4.5107,-4.5507,-4.5754,-4.6278,-4.7168,-4.781,-4.834,-4.8939,-4.973,-5.0275,-5.0506,-5.0998,-5.1418,-5.1675,-5.1858,-5.2054,-5.2198,-5.2228,-5.2132,-5.2005,-5.2054,-5.2084,-5.2084,-5.2084,-5.215,-5.2198,-5.2246,-5.2275,-5.2304,-5.2397,-5.2397,-5.2397,-5.2415,-5.2387,-5.2358,-5.234,-5.2371,-5.2381,-5.2361,-5.2351,-5.2322,-5.2275,-5.2228,-5.2036,-5.2005,-5.1974,-5.1992,-5.2089,-5.212,-5.2209,-5.2268,-5.2369,-5.2387,-5.2387,-5.2369,-5.2361,-5.2289,-5.2299,-3.2649,-3.3068,-3.3068,-3.3081,-3.3154,-3.3556,-3.3713,-3.3882,-3.466,-3.5072,-3.5249,-3.5978,-3.6536,-3.6978,-3.7457,-3.8052,-3.8723,-3.8797,-3.9017,-3.9265,-3.9424,-3.9424,-3.9424,-3.9424,-3.9424,-3.9424,-3.9424,-3.9496,-3.9696,-3.9925,-4.0207,-4.047,-4.0898,-4.1221,-4.1522,-4.1916,-4.2318,-4.2634,-4.299,-4.3312,-4.3628,-4.3923,-4.4155,-4.4253,-4.444,-4.457,-4.457,-4.457,-4.457,-4.457,-4.457,-4.4626,-4.4626,-4.472,-4.4776,-4.4869,-4.4978,-4.5121,-4.5264,-4.5474,-4.5805,-4.6638,-4.6952,-4.7422,-4.8398,-4.9204,-4.9799,-5.0122,-5.1052,-5.1576,-5.1956,-5.2198,-5.234,-5.2462,-5.2581,-5.2444,-5.2275,-5.218,-5.218,-5.2198,-5.218,-5.2246,-5.234,-5.2434,-5.2554,-5.2536,-5.2627,-5.2627,-5.2627,-5.2627,-5.2636,-5.2645,-5.2699,-5.2761,-5.2743,-5.2743,-5.2717,-5.2672,-5.2627,-5.2536,-5.2369,-5.2275,-5.2209,-5.2275,-5.2347,-5.2452,-5.2463,-5.2572,-5.2627,-5.2645,-5.2581,-5.269,-5.2761,-5.2644,-5.2589,-3.2562,-3.281,-3.2982,-3.3081,-3.3167,-3.3569,-3.3713,-3.3797,-3.4494,-3.4921,-3.5236,-3.5804,-3.6429,-3.6978,-3.7457,-3.7991,-3.859,-3.8723,-3.9017,-3.9352,-3.9424,-3.9424,-3.9424,-3.9424,-3.9424,-3.9424,-3.9424,-3.9481,-3.9696,-3.9925,-4.0191,-4.0539,-4.0966,-4.1303,-4.1654,-4.2125,-4.2524,-4.2837,-4.3129,-4.3492,-4.3822,-4.3998,-4.4212,-4.431,-4.4497,-4.457,-4.457,-4.457,-4.457,-4.457,-4.4626,-4.4682,-4.4737,-4.4776,-4.4886,-4.4978,-4.5177,-4.5336,-4.5389,-4.5615,-4.5873,-4.632,-4.6911,-4.745,-4.7908,-4.8813,-4.9319,-4.9692,-5.0426,-5.1365,-5.2051,-5.2389,-5.2472,-5.2526,-5.2644,-5.268,-5.269,-5.2627,-5.2581,-5.2627,-5.2627,-5.2627,-5.269,-5.269,-5.2735,-5.2761,-5.2806,-5.2806,-5.2806,-5.285,-5.286,-5.287,-5.2878,-5.2912,-5.2893,-5.2893,-5.2893,-5.2912,-5.2912,-5.2868,-5.269,-5.2572,-5.2554,-5.2608,-5.2653,-5.2717,-5.268,-5.2714,-5.2751,-5.2813,-5.2831,-5.285,-5.2893,-5.2839,-5.2864,-3.2463,-3.2723,-3.2982,-3.3081,-3.3154,-3.3398,-3.3641,-3.3797,-3.4314,-3.4825,-3.5154,-3.571,-3.635,-3.69,-3.738,-3.7915,-3.8366,-3.8797,-3.9104,-3.9352,-3.9424,-3.9424,-3.9424,-3.9424,-3.9424,-3.9409,-3.9466,-3.9625,-3.9839,-4.0051,-4.0347,-4.0746,-4.1086,-4.1472,-4.1851,-4.2254,-4.2618,-4.3007,-4.3328,-4.3628,-4.3939,-4.4097,-4.427,-4.4384,-4.4553,-4.457,-4.457,-4.457,-4.4626,-4.4682,-4.4682,-4.4737,-4.4831,-4.494,-4.5032,-4.5177,-4.5353,-4.5546,-4.5615,-4.5854,-4.6038,-4.6186,-4.6822,-4.7139,-4.7548,-4.8318,-4.8851,-4.9177,-4.9901,-5.0832,-5.1419,-5.1482,-5.1741,-5.2247,-5.2346,-5.2492,-5.2846,-5.2868,-5.2806,-5.2806,-5.2761,-5.2761,-5.2806,-5.285,-5.2893,-5.2893,-5.3017,-5.3017,-5.3017,-5.306,-5.2999,-5.3035,-5.3035,-5.3017,-5.3023,-5.3023,-5.3042,-5.3042,-5.306,-5.306,-5.2974,-5.2948,-5.2904,-5.2915,-5.2817,-5.2862,-5.286,-5.2875,-5.2926,-5.298,-5.2999,-5.2999,-5.298,-5.3023,-5.3023,-3.2475,-3.2636,-3.2982,-3.3081,-3.3167,-3.3326,-3.3569,-3.3725,-3.4147,-3.466,-3.5154,-3.571,-3.6191,-3.6744,-3.7303,-3.7839,-3.8352,-3.8723,-3.9104,-3.9352,-3.9424,-3.9424,-3.9424,-3.9424,-3.9424,-3.9481,-3.9625,-3.9783,-3.9996,-4.0277,-4.0539,-4.1034,-4.1272,-4.1588,-4.2109,-4.2492,-4.2805,-4.3174,-4.3509,-4.3805,-4.4039,-4.4212,-4.4384,-4.4514,-4.457,-4.457,-4.4626,-4.4626,-4.4682,-4.4776,-4.4831,-4.4886,-4.494,-4.5086,-4.5283,-4.5441,-4.5615,-4.5752,-4.5905,-4.6087,-4.6284,-4.635,-4.6625,-4.6906,-4.724,-4.7751,-4.8254,-4.873,-4.9358,-5.0148,-5.0399,-5.0636,-5.0994,-5.1444,-5.1627,-5.2059,-5.2553,-5.2651,-5.2455,-5.2912,-5.2912,-5.2955,-5.2955,-5.2999,-5.2999,-5.3005,-5.3109,-5.3151,-5.3133,-5.3109,-5.3072,-5.3127,-5.3103,-5.3121,-5.3103,-5.2993,-5.3011,-5.2938,-5.3017,-5.3017,-5.2999,-5.2785,-5.2681,-5.293,-5.2941,-5.2886,-5.293,-5.3042,-5.3066,-5.3206,-5.3164,-5.3103,-5.3146,-5.3164,-5.3127,-3.2388,-3.2475,-3.2896,-3.3081,-3.3167,-3.3313,-3.3471,-3.3713,-3.3979,-3.4494,-3.5072,-3.5548,-3.6111,-3.6744,-3.7303,-3.7976,-3.856,-3.8855,-3.909,-3.9352,-3.9424,-3.9424,-3.9424,-3.9424,-3.9496,-3.9625,-3.9696,-3.9854,-4.0066,-4.0331,-4.0677,-4.1086,-4.1406,-4.1785,-4.2318,-4.2713,-4.3007,-4.3312,-4.3704,-4.3939,-4.4097,-4.4253,-4.4384,-4.457,-4.457,-4.4626,-4.4626,-4.4737,-4.4776,-4.4831,-4.5049,-4.5194,-4.5283,-4.5336,-4.5494,-4.5598,-4.5905,-4.6038,-4.6186,-4.6398,-4.6637,-4.6842,-4.6934,-4.7053,-4.7285,-4.7594,-4.794,-4.817,-4.8829,-4.9651,-5.0488,-5.0305,-5.0625,-5.0886,-5.0982,-5.1073,-5.1238,-5.1422,-5.1784,-5.2511,-5.2846,-5.2938,-5.2682,-5.2572,-5.2535,-5.248,-5.2559,-5.2637,-5.2656,-5.2803,-5.2889,-5.3017,-5.3164,-5.3164,-5.3164,-5.3017,-5.2926,-5.2742,-5.2724,-5.2724,-5.265,-5.2364,-5.234,-5.2413,-5.2615,-5.2749,-5.2846,-5.2871,-5.2815,-5.2637,-5.2876,-5.3115,-5.2876,-5.2656,-5.2986,-3.2213,-3.2388,-3.2723,-3.2982,-3.3081,-3.3154,-3.3398,-3.3725,-3.381,-3.4314,-3.4977,-3.5399,-3.5884,-3.6522,-3.7148,-3.7901,-3.8634,-3.8782,-3.9017,-3.9352,-3.9424,-3.9424,-3.9424,-3.9424,-3.9568,-3.9696,-3.9768,-3.998,-4.0137,-4.047,-4.0882,-4.1221,-4.1538,-4.1996,-4.2445,-4.2805,-4.319,-4.3509,-4.3822,-4.4039,-4.4212,-4.4384,-4.4514,-4.457,-4.4626,-4.4643,-4.4737,-4.4737,-4.4886,-4.5032,-4.5177,-4.5353,-4.5494,-4.5684,-4.5854,-4.5938,-4.6087,-4.6332,-4.6495,-4.6702,-4.6888,-4.7088,-4.716,-4.7338,-4.7511,-4.7657,-4.7842,-4.8057,-4.8229,-4.8861,-4.931,-4.9456,-4.968,-5.0068,-5.0178,-5.0362,-5.0637,-5.0747,-5.1242,-5.183,-5.1715,-5.1678,-5.177,-5.1734,-5.1903,-5.1977,-5.2032,-5.2068,-5.2142,-5.2174,-5.2302,-5.2252,-5.2289,-5.2289,-5.2325,-5.2344,-5.2362,-5.2307,-5.227,-5.2252,-5.2045,-5.1632,-5.1564,-5.1582,-5.1899,-5.1912,-5.1917,-5.172,-5.1885,-5.2032,-5.1977,-5.1977,-5.205,-5.216,-5.2435,-3.1937,-3.24,-3.2649,-3.2896,-3.3081,-3.3081,-3.3313,-3.3628,-3.3713,-3.4217,-3.5072,-3.5318,-3.5817,-3.647,-3.7148,-3.7901,-3.8782,-3.8782,-3.9031,-3.9352,-3.9424,-3.9424,-3.9424,-3.9424,-3.9568,-3.9768,-3.991,-4.0137,-4.0331,-4.0677,-4.1003,-4.1406,-4.1752,-4.2206,-4.2634,-4.2929,-4.3295,-4.3611,-4.3923,-4.4138,-4.4384,-4.4514,-4.457,-4.4626,-4.4626,-4.4699,-4.4793,-4.4886,-4.5032,-4.5177,-4.5389,-4.5546,-4.5752,-4.6038,-4.6217,-4.6332,-4.635,-4.656,-4.6749,-4.6962,-4.7116,-4.7312,-4.7425,-4.7615,-4.7741,-4.7866,-4.8006,-4.8206,-4.8263,-4.83,-4.8506,-4.8398,-4.8691,-4.9095,-4.937,-4.9517,-4.9884,-5.0031,-4.9958,-5.027,-5.0306,-5.0618,-5.093,-5.1187,-5.1371,-5.1371,-5.1426,-5.1371,-5.1408,-5.1293,-5.1271,-5.1169,-5.1096,-5.1114,-5.1187,-5.1298,-5.1353,-5.1426,-5.1408,-5.1408,-5.1128,-5.0771,-5.0739,-5.0688,-5.0263,-5.0299,-5.0395,-5.0805,-5.1173,-5.1283,-5.0949,-5.0967,-5.1316,-5.1499,-5.1683,-3.1937,-3.2388,-3.2636,-3.2896,-3.3081,-3.3081,-3.3313,-3.3628,-3.3713,-3.423,-3.5072,-3.5318,-3.5737,-3.6457,-3.724,-3.7976,-3.856,-3.8782,-3.9031,-3.9352,-3.9352,-3.9424,-3.9424,-3.9424,-3.964,-3.9854,-3.9996,-4.0191,-4.0539,-4.0898,-4.1221,-4.1604,-4.1916,-4.2381,-4.2837,-4.3068,-4.3388,-4.3822,-4.4039,-4.427,-4.4497,-4.4587,-4.457,-4.4626,-4.4682,-4.4793,-4.4886,-4.5049,-4.5247,-4.5389,-4.5494,-4.5752,-4.6055,-4.6154,-4.6477,-4.6731,-4.6906,-4.6952,-4.7043,-4.716,-4.7381,-4.7529,-4.7657,-4.7765,-4.7929,-4.805,-4.8187,-4.8286,-4.8286,-4.8286,-4.8306,-4.8324,-4.8398,-4.8489,-4.8673,-4.8636,-4.882,-4.9297,-4.9224,-4.9132,-4.9297,-4.9884,-5.0362,-5.0618,-5.0857,-5.082,-5.0784,-5.0692,-5.0563,-5.0376,-5.0263,-5.016,-5.0105,-5.0105,-5.0086,-5.0178,-5.0328,-5.0435,-5.0475,-5.0475,-5.0233,-4.9994,-4.9845,-4.9661,-4.9218,-4.9294,-4.9905,-5.0349,-5.0664,-5.0533,-5.016,-5.0417,-5.0839,-5.093,-5.093,-3.1038,-3.1933,-3.2019,-3.245,-3.3068,-3.3081,-3.3313,-3.3628,-3.3713,-3.4147,-3.4825,-3.5154,-3.5723,-3.6601,-3.7303,-3.7901,-3.8427,-3.8708,-3.8943,-3.9192,-3.9337,-3.9424,-3.9424,-3.9496,-3.9783,-3.994,-4.0137,-4.0486,-4.0761,-4.1034,-4.1303,-4.1752,-4.2125,-4.2492,-4.3007,-4.3235,-4.3611,-4.3981,-4.4212,-4.4457,-4.457,-4.4626,-4.4626,-4.4737,-4.4776,-4.4869,-4.5032,-4.5177,-4.5389,-4.5546,-4.5752,-4.5988,-4.6235,-4.6477,-4.6795,-4.6934,-4.7205,-4.7294,-4.7312,-4.7443,-4.7615,-4.7741,-4.7866,-4.7929,-4.809,-4.8208,-4.8247,-4.8324,-4.8324,-4.8324,-4.8324,-4.8324,-4.8324,-4.8324,-4.8324,-4.8324,-4.8324,-4.8324,-4.8489,-4.8361,-4.8379,-4.9097,-4.9593,-4.9612,-4.9703,-4.9627,-4.9554,-4.9462,-4.9315,-4.9129,-4.915,-4.9169,-4.915,-4.9169,-4.9095,-4.9095,-4.9228,-4.932,-4.9358,-4.9358,-4.9378,-4.9193,-4.9173,-4.9118,-4.8859,-4.9099,-4.9599,-4.9561,-4.9561,-4.9446,-4.937,-4.9609,-4.9869,-5.0068,-5.0218,-2.9738,-3.1003,-3.1246,-3.1881,-3.2569,-3.2667,-3.2971,-3.3411,-3.3482,-3.392,-3.4634,-3.5154,-3.5871,-3.6665,-3.7303,-3.7839,-3.8202,-3.8634,-3.8855,-3.909,-3.9265,-3.9352,-3.9424,-3.9553,-3.9768,-4.0011,-4.0261,-4.0624,-4.0982,-4.1252,-4.1488,-4.1947,-4.2254,-4.268,-4.3052,-4.3432,-4.3747,-4.4155,-4.4457,-4.457,-4.457,-4.457,-4.4665,-4.4776,-4.4886,-4.4978,-4.523,-4.5389,-4.5511,-4.5803,-4.6005,-4.6235,-4.6477,-4.6731,-4.7025,-4.716,-4.7381,-4.7554,-4.7572,-4.7717,-4.7819,-4.7925,-4.8028,-4.8111,-4.8208,-4.8286,-4.8324,-4.8324,-4.8324,-4.8324,-4.8324,-4.8324,-4.8324,-4.8324,-4.8324,-4.8324,-4.8363,-4.8363,-4.8401,-4.8458,-4.8458,-4.842,-4.8733,-4.8586,-4.8511,-4.8454,-4.8363,-4.8363,-4.8381,-4.8418,-4.8529,-4.8751,-4.877,-4.8788,-4.8714,-4.8567,-4.8494,-4.8476,-4.8513,-4.8569,-4.8864,-4.8827,-4.879,-4.8679,-4.8605,-4.8753,-4.9104,-4.8715,-4.8401,-4.8733,-4.8917,-4.8676,-4.8787,-4.9118,-4.9393,-2.8339,-2.953,-3.0453,-3.103,-3.134,-3.143,-3.1991,-3.2695,-3.2861,-3.3532,-3.4449,-3.5345,-3.6029,-3.6716,-3.7275,-3.7839,-3.8202,-3.8634,-3.887,-3.9104,-3.9265,-3.9424,-3.9481,-3.9625,-3.9839,-4.0051,-4.0316,-4.0746,-4.1102,-4.1421,-4.1736,-4.2125,-4.2445,-4.2743,-4.3113,-4.3476,-4.3906,-4.427,-4.4514,-4.457,-4.4626,-4.4626,-4.4665,-4.4831,-4.494,-4.514,-4.5372,-4.5546,-4.577,-4.6055,-4.6253,-4.6447,-4.6778,-4.698,-4.716,-4.7381,-4.7572,-4.7717,-4.7861,-4.7902,-4.7966,-4.8108,-4.8226,-4.8229,-4.8286,-4.8286,-4.8324,-4.8324,-4.8324,-4.8324,-4.8324,-4.8324,-4.8324,-4.8363,-4.8363,-4.842,-4.8438,-4.8476,-4.8513,-4.8569,-4.855,-4.8514,-4.8514,-4.8476,-4.8495,-4.8476,-4.8476,-4.8458,-4.8495,-4.8532,-4.855,-4.8606,-4.8624,-4.8624,-4.8606,-4.855,-4.8569,-4.8605,-4.8642,-4.8642,-4.8752,-4.866,-4.8734,-4.8697,-4.8751,-4.8641,-4.8623,-4.8641,-4.866,-4.8587,-4.855,-4.8495,-4.8495,-4.879,-4.8864,-2.772,-2.8512,-2.9133,-3.0069,-3.1083,-3.1304,-3.1688,-3.211,-3.2311,-3.2875,-3.3794,-3.4819,-3.5562,-3.6114,-3.7112,-3.7701,-3.7915,-3.8575,-3.8797,-3.9031,-3.9192,-3.9424,-3.964,-3.9783,-3.9996,-4.0191,-4.0524,-4.0867,-4.1205,-4.1604,-4.1996,-4.2381,-4.2634,-4.2945,-4.3312,-4.3671,-4.408,-4.4384,-4.4553,-4.457,-4.4626,-4.4682,-4.4776,-4.494,-4.5032,-4.5247,-4.5511,-4.5735,-4.5938,-4.6204,-4.6495,-4.6778,-4.7025,-4.7205,-4.7399,-4.7615,-4.7759,-4.7884,-4.8065,-4.8087,-4.8148,-4.8208,-4.8286,-4.8324,-4.8324,-4.8324,-4.8324,-4.8324,-4.8324,-4.8306,-4.8306,-4.8363,-4.8457,-4.8438,-4.8438,-4.8495,-4.8532,-4.8587,-4.8624,-4.8678,-4.8623,-4.8587,-4.8569,-4.8569,-4.855,-4.8569,-4.8569,-4.8569,-4.8642,-4.8642,-4.8677,-4.8713,-4.8677,-4.8695,-4.8695,-4.866,-4.866,-4.8695,-4.8767,-4.882,-4.8874,-4.8969,-4.9006,-4.8964,-4.8925,-4.8925,-4.8925,-4.8959,-4.8872,-4.8767,-4.866,-4.8587,-4.8569,-4.8623,-4.8658,-2.7452,-2.7973,-2.8363,-2.9253,-3.0468,-3.0735,-3.109,-3.1483,-3.1736,-3.241,-3.3327,-3.4224,-3.4881,-3.5523,-3.6646,-3.7296,-3.7566,-3.8206,-3.8679,-3.8943,-3.9192,-3.9496,-3.9711,-3.9925,-4.0137,-4.0401,-4.073,-4.107,-4.139,-4.1801,-4.2254,-4.265,-4.2961,-4.319,-4.3492,-4.3906,-4.4327,-4.4514,-4.457,-4.4626,-4.4665,-4.4737,-4.4869,-4.5032,-4.5177,-4.5389,-4.5649,-4.5887,-4.6186,-4.6429,-4.6731,-4.7025,-4.7205,-4.7381,-4.7615,-4.7759,-4.7902,-4.8046,-4.8166,-4.8226,-4.8247,-4.8286,-4.8324,-4.8324,-4.8324,-4.8324,-4.8306,-4.8363,-4.8363,-4.8344,-4.8382,-4.8458,-4.8513,-4.8532,-4.8532,-4.855,-4.8642,-4.8697,-4.8768,-4.8785,-4.8785,-4.8802,-4.8837,-4.8837,-4.8767,-4.8804,-4.8822,-4.8839,-4.889,-4.889,-4.8855,-4.8872,-4.8872,-4.8837,-4.8802,-4.8837,-4.8925,-4.8925,-4.8993,-4.9046,-4.9101,-4.9213,-4.9213,-4.9168,-4.9146,-4.9202,-4.923,-4.9169,-4.9038,-4.8872,-4.8804,-4.8824,-4.8837,-4.8887,-4.8853,-2.7267,-2.7881,-2.8339,-2.8749,-2.9278,-2.9403,-2.9974,-3.0675,-3.1083,-3.1928,-3.3087,-3.3738,-3.4189,-3.4885,-3.6038,-3.6668,-3.702,-3.7989,-3.862,-3.8708,-3.8984,-3.9391,-3.9696,-3.9925,-4.0207,-4.0539,-4.0867,-4.1272,-4.1588,-4.2125,-4.2524,-4.2899,-4.319,-4.3492,-4.3628,-4.408,-4.4384,-4.457,-4.457,-4.4665,-4.472,-4.4848,-4.4978,-4.5177,-4.5336,-4.5494,-4.5803,-4.6055,-4.6332,-4.6684,-4.6916,-4.716,-4.7425,-4.7572,-4.7759,-4.7902,-4.8087,-4.8166,-4.8245,-4.8286,-4.8286,-4.8324,-4.8324,-4.8306,-4.8306,-4.8306,-4.8344,-4.8438,-4.8494,-4.8513,-4.8569,-4.8605,-4.8605,-4.8642,-4.866,-4.8695,-4.8839,-4.8874,-4.8909,-4.8978,-4.9079,-4.9179,-4.9179,-4.9127,-4.9061,-4.9046,-4.9049,-4.9083,-4.9113,-4.9079,-4.9027,-4.9061,-4.9027,-4.9042,-4.9042,-4.9127,-4.9179,-4.9179,-4.9211,-4.9244,-4.9295,-4.9332,-4.9313,-4.9308,-4.9365,-4.9396,-4.9401,-4.9394,-4.9277,-4.9174,-4.9142,-4.9164,-4.9154,-4.9141,-4.9104,-2.6246,-2.7182,-2.7498,-2.8083,-2.8858,-2.9263,-2.9646,-3.0108,-3.0509,-3.1226,-3.2235,-3.2982,-3.3574,-3.4289,-3.5257,-3.6039,-3.6243,-3.6981,-3.7647,-3.825,-3.8609,-3.9294,-3.9672,-3.992,-4.0246,-4.0662,-4.107,-4.1421,-4.1833,-4.2334,-4.268,-4.3052,-4.3552,-4.3864,-4.3981,-4.4212,-4.4384,-4.457,-4.4665,-4.4776,-4.4831,-4.4978,-4.5123,-4.5336,-4.5459,-4.5701,-4.6038,-4.6253,-4.6542,-4.6888,-4.707,-4.7338,-4.7615,-4.7759,-4.7943,-4.8046,-4.8187,-4.8226,-4.8247,-4.8306,-4.8324,-4.8324,-4.8306,-4.8344,-4.8401,-4.8419,-4.8494,-4.855,-4.8587,-4.8605,-4.8587,-4.8697,-4.8732,-4.8839,-4.8874,-4.8978,-4.9064,-4.9079,-4.9113,-4.9146,-4.9211,-4.9308,-4.934,-4.9371,-4.9321,-4.9289,-4.9295,-4.923,-4.9211,-4.9179,-4.9146,-4.9193,-4.9225,-4.9257,-4.9321,-4.9371,-4.9402,-4.9452,-4.9452,-4.9514,-4.9514,-4.9495,-4.9525,-4.9555,-4.9569,-4.9599,-4.9589,-4.9627,-4.9617,-4.9574,-4.9484,-4.9393,-4.9377,-4.9327,-4.9314,-2.5564,-2.6465,-2.6722,-2.7299,-2.8203,-2.8946,-2.9521,-2.9998,-3.0305,-3.0823,-3.1628,-3.2455,-3.2946,-3.3637,-3.4695,-3.5382,-3.5483,-3.6485,-3.7013,-3.76,-3.8008,-3.8732,-3.9349,-3.9817,-4.024,-4.0743,-4.1241,-4.1604,-4.2012,-4.2461,-4.2945,-4.3432,-4.3848,-4.4023,-4.4212,-4.431,-4.4497,-4.4626,-4.4737,-4.4814,-4.494,-4.5086,-4.5336,-4.5494,-4.5701,-4.5955,-4.6186,-4.6477,-4.6731,-4.7025,-4.7312,-4.7511,-4.7759,-4.7925,-4.8046,-4.8148,-4.8226,-4.8265,-4.8267,-4.8306,-4.8324,-4.8363,-4.8344,-4.8401,-4.8494,-4.8532,-4.8587,-4.8642,-4.8678,-4.875,-4.8785,-4.8892,-4.8962,-4.903,-4.9098,-4.9197,-4.923,-4.9244,-4.9358,-4.934,-4.9384,-4.9464,-4.9525,-4.9555,-4.9555,-4.9555,-4.9555,-4.9464,-4.9352,-4.9371,-4.934,-4.9402,-4.9415,-4.9476,-4.9525,-4.9555,-4.9604,-4.9682,-4.9692,-4.9721,-4.9702,-4.9702,-4.9759,-4.9797,-4.9797,-4.9797,-4.9843,-4.9843,-4.9824,-4.9816,-4.9797,-4.9711,-4.9596,-4.955,-4.9542,-2.5093,-2.5724,-2.6118,-2.6522,-2.7091,-2.8411,-2.9474,-3.0317,-3.0355,-3.0836,-3.1622,-3.1963,-3.2454,-3.2941,-3.4214,-3.4739,-3.4952,-3.6091,-3.6634,-3.6976,-3.7404,-3.8197,-3.8804,-3.9305,-3.9859,-4.0712,-4.1248,-4.1515,-4.2029,-4.2759,-4.3328,-4.3747,-4.4039,-4.4212,-4.4327,-4.4497,-4.4626,-4.4682,-4.4776,-4.4923,-4.5086,-4.53,-4.5494,-4.5701,-4.5955,-4.6137,-4.6429,-4.6684,-4.698,-4.7267,-4.7486,-4.7717,-4.7925,-4.8068,-4.8148,-4.8226,-4.8286,-4.8286,-4.8324,-4.8363,-4.8401,-4.8476,-4.8513,-4.8513,-4.8532,-4.8624,-4.8714,-4.8804,-4.8874,-4.8996,-4.9083,-4.9131,-4.9179,-4.9244,-4.9276,-4.934,-4.9371,-4.9434,-4.9544,-4.9604,-4.9644,-4.9702,-4.9731,-4.9778,-4.9788,-4.9788,-4.9788,-4.9759,-4.9683,-4.9644,-4.9663,-4.9663,-4.9692,-4.9673,-4.975,-4.9778,-4.9788,-4.9862,-4.9871,-4.9898,-4.9898,-4.9898,-4.9925,-4.9955,-4.9986,-5.0014,-4.9978,-5.0019,-5.0057,-5.005,-4.999,-4.9963,-4.9843,-4.9838,-4.9834,-2.4069,-2.499,-2.5466,-2.5977,-2.6772,-2.7614,-2.8637,-2.9704,-3.0163,-3.0823,-3.1596,-3.1923,-3.2345,-3.2803,-3.3705,-3.407,-3.4502,-3.5044,-3.5668,-3.62,-3.6746,-3.7533,-3.8135,-3.8683,-3.9168,-3.981,-4.0513,-4.1247,-4.1737,-4.2631,-4.3519,-4.3981,-4.4138,-4.431,-4.4497,-4.4665,-4.472,-4.4776,-4.4886,-4.5032,-4.5247,-4.5459,-4.5718,-4.5955,-4.6154,-4.6381,-4.6731,-4.6888,-4.7133,-4.7443,-4.7572,-4.7783,-4.797,-4.8108,-4.8226,-4.8267,-4.8306,-4.8306,-4.8401,-4.8457,-4.8476,-4.8569,-4.8679,-4.8715,-4.8751,-4.8787,-4.8855,-4.8943,-4.9046,-4.9164,-4.923,-4.9276,-4.9371,-4.9434,-4.9514,-4.9525,-4.9585,-4.9644,-4.975,-4.9778,-4.9816,-4.9871,-4.9944,-4.9971,-4.9978,-5.0005,-5.0031,-5.0005,-4.9978,-4.9898,-4.9862,-4.9881,-4.989,-4.9871,-4.9944,-4.9997,-5.0024,-5.0031,-5.0057,-5.0057,-5.0082,-5.0082,-5.0057,-5.0095,-5.0119,-5.012,-5.0092,-5.0111,-5.0207,-5.0196,-5.0184,-5.0139,-5.0101,-5.0106,-5.0073,-2.3389,-2.4168,-2.4648,-2.5339,-2.6212,-2.6883,-2.7851,-2.8899,-2.9689,-3.0485,-3.1263,-3.1815,-3.2345,-3.2775,-3.3536,-3.3994,-3.4131,-3.4718,-3.5244,-3.5622,-3.6235,-3.6854,-3.7517,-3.8073,-3.8663,-3.925,-3.9898,-4.0654,-4.1355,-4.2354,-4.3281,-4.3645,-4.4034,-4.4406,-4.4626,-4.4776,-4.4831,-4.4923,-4.5086,-4.5247,-4.5406,-4.5615,-4.5905,-4.6154,-4.6284,-4.6637,-4.698,-4.707,-4.7338,-4.7554,-4.7741,-4.7888,-4.809,-4.8169,-4.8265,-4.8306,-4.8344,-4.8401,-4.8475,-4.8532,-4.8587,-4.8678,-4.8804,-4.8874,-4.8927,-4.8996,-4.9046,-4.9131,-4.9211,-4.9308,-4.9371,-4.9464,-4.9574,-4.9682,-4.9721,-4.975,-4.9816,-4.9871,-4.9898,-4.9925,-4.9978,-5.0031,-5.0082,-5.0133,-5.0158,-5.0182,-5.0207,-5.0255,-5.0182,-5.0082,-5.0024,-5.0009,-5.0024,-5.0031,-5.0101,-5.0152,-5.0177,-5.0182,-5.0226,-5.0231,-5.0231,-5.0255,-5.0274,-5.0274,-5.0269,-5.0264,-5.0275,-5.0268,-5.0302,-5.0317,-5.0331,-5.0331,-5.0293,-5.0287,-5.0291,-2.2938,-2.3394,-2.397,-2.4825,-2.562,-2.6392,-2.7089,-2.7908,-2.892,-2.9861,-3.0703,-3.1573,-3.2208,-3.2581,-3.3437,-3.3937,-3.421,-3.4668,-3.5082,-3.5243,-3.5853,-3.6459,-3.7006,-3.7606,-3.8122,-3.8983,-3.9704,-4.0257,-4.0902,-4.1856,-4.2682,-4.2998,-4.3564,-4.399,-4.416,-4.4286,-4.4326,-4.4506,-4.4714,-4.4906,-4.5407,-4.5701,-4.5972,-4.6253,-4.659,-4.6888,-4.707,-4.7294,-4.7572,-4.7723,-4.7888,-4.805,-4.8169,-4.8247,-4.8286,-4.8363,-4.8401,-4.8494,-4.8569,-4.8624,-4.8768,-4.882,-4.8925,-4.9046,-4.9113,-4.9146,-4.9211,-4.9276,-4.9371,-4.9525,-4.9615,-4.9673,-4.9778,-4.9835,-4.9871,-4.9898,-4.9952,-5.0031,-5.0108,-5.0133,-5.0182,-5.0231,-5.0231,-5.0278,-5.0302,-5.0325,-5.0348,-5.0393,-5.0371,-5.0255,-5.022,-5.0165,-5.0196,-5.0207,-5.0212,-5.0278,-5.0278,-5.0321,-5.0367,-5.039,-5.039,-5.0432,-5.0495,-5.0432,-5.0367,-5.0438,-5.0462,-5.0438,-5.0416,-5.0435,-5.0451,-5.0489,-5.0495,-5.0459,-5.0418,-2.2777,-2.3372,-2.4273,-2.5064,-2.5618,-2.5963,-2.6527,-2.728,-2.7947,-2.8924,-3.0077,-3.101,-3.1662,-3.2124,-3.3281,-3.3851,-3.4192,-3.4639,-3.5067,-3.5409,-3.5861,-3.6239,-3.6612,-3.7173,-3.7559,-3.8033,-3.8818,-3.9956,-4.0836,-4.1621,-4.21,-4.232,-4.2854,-4.3119,-4.3297,-4.3386,-4.3597,-4.3924,-4.4076,-4.4611,-4.5388,-4.585,-4.6235,-4.6495,-4.6795,-4.7007,-4.7249,-4.7486,-4.7717,-4.7842,-4.8028,-4.8169,-4.8286,-4.8324,-4.8363,-4.8457,-4.8494,-4.8569,-4.866,-4.8768,-4.8909,-4.9012,-4.9113,-4.9244,-4.9289,-4.9321,-4.9352,-4.9446,-4.9537,-4.9702,-4.9816,-4.9871,-4.9952,-5.0005,-5.0031,-5.0057,-5.0082,-5.0182,-5.0278,-5.0302,-5.0348,-5.0371,-5.039,-5.0412,-5.0435,-5.0457,-5.0457,-5.0478,-5.0478,-5.0435,-5.0428,-5.0402,-5.0409,-5.0412,-5.0374,-5.0352,-5.0371,-5.0435,-5.0457,-5.0478,-5.0521,-5.054,-5.054,-5.0519,-5.05,-5.0523,-5.0544,-5.0483,-5.0502,-5.0521,-5.056,-5.0579,-5.06,-5.0584,-5.0542,-2.2628,-2.3298,-2.4345,-2.5064,-2.5465,-2.5758,-2.6327,-2.7007,-2.7357,-2.8053,-2.9158,-3.0267,-3.113,-3.1639,-3.2897,-3.3671,-3.3984,-3.4633,-3.5154,-3.5589,-3.5861,-3.6163,-3.6554,-3.6923,-3.7288,-3.7769,-3.8527,-3.9568,-4.0547,-4.1121,-4.1456,-4.1721,-4.1999,-4.2377,-4.2568,-4.274,-4.291,-4.3214,-4.3357,-4.4042,-4.5047,-4.5418,-4.6147,-4.6507,-4.6962,-4.7169,-4.7468,-4.7699,-4.7842,-4.8006,-4.8169,-4.8229,-4.8306,-4.8344,-4.8401,-4.8494,-4.8569,-4.8697,-4.8822,-4.8943,-4.9046,-4.9179,-4.9276,-4.9384,-4.9585,-4.9615,-4.9625,-4.9712,-4.9712,-4.9843,-4.9952,-5.0005,-5.0082,-5.0158,-5.0182,-5.0231,-5.0278,-5.0348,-5.0393,-5.0435,-5.0457,-5.0457,-5.0457,-5.0457,-5.05,-5.0521,-5.0562,-5.0582,-5.0582,-5.0582,-5.0579,-5.0577,-5.056,-5.0504,-5.0467,-5.0445,-5.0459,-5.0521,-5.0562,-5.0563,-5.0584,-5.0584,-5.0584,-5.0563,-5.0563,-5.0585,-5.0585,-5.0565,-5.0584,-5.0623,-5.0642,-5.0662,-5.0663,-5.0663,-5.0643,-2.2478,-2.3224,-2.4345,-2.4981,-2.5312,-2.5746,-2.6327,-2.6956,-2.7037,-2.7429,-2.8266,-2.9632,-3.0458,-3.1341,-3.2231,-3.299,-3.374,-3.4317,-3.4996,-3.5688,-3.5973,-3.6289,-3.6662,-3.7013,-3.7433,-3.796,-3.8641,-3.9101,-3.9644,-4.0311,-4.0841,-4.11,-4.1611,-4.2261,-4.2501,-4.2652,-4.2679,-4.2788,-4.3027,-4.3506,-4.4091,-4.4613,-4.5528,-4.6318,-4.6892,-4.7147,-4.7398,-4.7679,-4.7824,-4.8148,-4.8247,-4.8324,-4.8382,-4.8438,-4.8513,-4.8606,-4.8715,-4.8822,-4.8962,-4.9064,-4.9211,-4.934,-4.9415,-4.9566,-4.9759,-4.9843,-4.9879,-4.9933,-4.9933,-5.0005,-5.0082,-5.0158,-5.0231,-5.0302,-5.0325,-5.0348,-5.0416,-5.05,-5.05,-5.054,-5.0521,-5.0521,-5.0521,-5.0521,-5.0542,-5.0603,-5.0623,-5.0643,-5.0663,-5.0643,-5.0642,-5.0641,-5.0622,-5.0586,-5.0548,-5.0547,-5.0563,-5.0584,-5.0623,-5.0643,-5.0663,-5.0643,-5.0643,-5.0663,-5.0683,-5.0664,-5.0664,-5.0644,-5.0683,-5.0702,-5.0682,-5.0663,-5.0682,-5.0683,-5.0683,-2.2628,-2.3519,-2.4418,-2.4992,-2.5324,-2.5746,-2.6327,-2.6943,-2.7134,-2.7536,-2.8198,-2.8736,-2.9587,-3.0546,-3.1687,-3.2594,-3.341,-3.3986,-3.4976,-3.5849,-3.5948,-3.6399,-3.6907,-3.7314,-3.777,-3.8343,-3.886,-3.9309,-3.952,-3.9897,-4.0239,-4.0527,-4.0561,-4.0965,-4.1163,-4.1392,-4.1734,-4.2004,-4.2331,-4.2661,-4.3606,-4.4147,-4.4654,-4.514,-4.5372,-4.5954,-4.6504,-4.6866,-4.7463,-4.7968,-4.8306,-4.8345,-4.8476,-4.855,-4.8624,-4.8697,-4.8857,-4.8962,-4.9064,-4.9211,-4.9371,-4.9476,-4.9566,-4.9769,-4.9925,-4.9986,-5.0038,-5.0114,-5.0139,-5.0163,-5.0255,-5.0302,-5.0348,-5.0435,-5.0478,-5.0478,-5.05,-5.0562,-5.0582,-5.0603,-5.0623,-5.0623,-5.0643,-5.0643,-5.0643,-5.0663,-5.0663,-5.0683,-5.0683,-5.0683,-5.0683,-5.0683,-5.0682,-5.0663,-5.0664,-5.0644,-5.0643,-5.0663,-5.0663,-5.0683,-5.0683,-5.0683,-5.0683,-5.0683,-5.0683,-5.0683,-5.0683,-5.0683,-5.0683,-5.0683,-5.0683,-5.0683,-5.0683,-5.0683,-5.0683]}]]